[[{"header":{"parameterUnit":"m.s-1","parameterCategory":1,"la1":30.6,"la2":28.766,"lo1":-90.7593,"lo2":-88.6598,"dx":0.0162,"dy":0.0183,"nx":116,"ny":114,"refTime":"2022-12-17T18:00:00:Z","depth":0,"parameterNumber":2,"parameterNumberName":"U-component_of_WINDS"},"data":[0.0,0.0,0.0,0.0,0.0,0.0,0.0,0.0,0.0,0.0,0.0,0.0,0.0,0.0,0.0,0.0,0.0,0.0,0.0,0.0,0.0,0.0,0.0,0.0,0.0,0.0,0.0,0.0,0.0,0.0,0.0,0.0,0.0,0.0,0.0,0.0,0.0,0.0,0.0,0.0,0.0,0.0,0.0,0.0,0.0,0.0,0.0,0.0,0.0,0.0,0.0,0.0,0.0,0.0,0.0,0.0,0.0,0.0,0.0,0.0,0.0,0.0,0.0,0.0,0.0,0.0,0.0,0.0,0.0,0.0,0.0,0.0,0.0,0.0,0.0,0.0,0.0,0.0,0.0,0.0,0.0,0.0,0.0,0.0,0.0,0.0,0.0,0.0,0.0,0.0,0.0,0.0,0.0,0.0,0.0,0.0,0.0,0.0,0.0,0.0,0.0,0.0,0.0,0.0,0.0,0.0,0.0,0.0,0.0,0.0,0.0,0.0,0.0,0.0,0.0,0.0,0.0,0.0,0.0,0.0,0.0,0.0,0.0,0.0,0.0,0.0,0.0,0.0,0.0,0.0,0.0,0.0,0.0,0.0,0.0,0.0,0.0,0.0,0.0,0.0,0.0,0.0,0.0,0.0,0.0,0.0,0.0,0.0,0.0,0.0,0.0,0.0,0.0,0.0,0.0,0.0,0.0,0.0,0.0,0.0,0.0,0.0,0.0,0.0,0.0,0.0,0.0,0.0,0.0,0.0,0.0,0.0,0.0,0.0,0.0,0.0,0.0,0.0,0.0,0.0,0.0,0.0,0.0,0.0,0.0,0.0,0.0,0.0,0.0,0.0,0.0,0.0,0.0,0.0,0.0,0.0,0.0,0.0,0.0,0.0,0.0,0.0,0.0,0.0,0.0,0.0,0.0,0.0,0.0,0.0,0.0,0.0,0.0,0.0,0.0,0.0,0.0,0.0,0.0,0.0,0.0,0.0,0.0,0.0,0.0,0.0,0.0,0.0,0.0,0.0,0.0,0.0,0.0,0.0,0.0,0.0,0.0,0.0,0.0,0.0,0.0,0.0,0.0,0.0,0.0,0.0,0.0,0.0,0.0,0.0,0.0,0.0,0.0,0.0,0.0,0.0,0.0,0.0,0.0,0.0,0.0,0.0,0.0,0.0,0.0,0.0,0.0,0.0,0.0,0.0,0.0,0.0,0.0,0.0,0.0,0.0,0.0,0.0,0.0,0.0,0.0,0.0,0.0,0.0,0.0,0.0,0.0,0.0,0.0,0.0,0.0,0.0,0.0,0.0,0.0,0.0,0.0,0.0,0.0,0.0,0.0,0.0,0.0,0.0,0.0,0.0,0.0,0.0,0.0,0.0,0.0,0.0,0.0,0.0,0.0,0.0,0.0,0.0,0.0,0.0,0.0,0.0,0.0,0.0,0.0,0.0,0.0,0.0,0.0,0.0,0.0,0.0,0.0,0.0,0.0,0.0,0.0,0.0,0.0,0.0,0.0,0.0,0.0,0.0,0.0,0.0,0.0,0.0,0.0,0.0,0.0,0.0,0.0,0.0,0.0,0.0,0.0,0.0,0.0,0.0,0.0,0.0,0.0,0.0,0.0,0.0,0.0,0.0,0.0,0.0,0.0,0.0,0.0,0.0,0.0,0.0,0.0,0.0,0.0,0.0,0.0,0.0,0.0,0.0,0.0,0.0,0.0,0.0,0.0,0.0,0.0,0.0,0.0,0.0,0.0,0.0,0.0,0.0,0.0,0.0,0.0,0.0,0.0,0.0,0.0,0.0,0.0,0.0,0.0,0.0,0.0,0.0,0.0,0.0,0.0,0.0,0.0,0.0,0.0,0.0,0.0,0.0,0.0,0.0,0.0,0.0,0.0,0.0,0.0,0.0,0.0,0.0,0.0,0.0,0.0,0.0,0.0,0.0,0.0,0.0,0.0,0.0,0.0,0.0,0.0,0.0,0.0,0.0,0.0,0.0,0.0,0.0,0.0,0.0,0.0,0.0,0.0,0.0,0.0,0.0,0.0,0.0,0.0,0.0,0.0,0.0,0.0,0.0,0.0,0.0,0.0,0.0,0.0,0.0,0.0,0.0,0.0,0.0,0.0,0.0,0.0,0.0,0.0,0.0,0.0,0.0,0.0,0.0,0.0,0.0,0.0,0.0,0.0,0.0,0.0,0.0,0.0,0.0,0.0,0.0,0.0,0.0,0.0,0.0,0.0,0.0,0.0,0.0,0.0,0.0,0.0,0.0,0.0,0.0,0.0,0.0,0.0,0.0,0.0,0.0,0.0,0.0,0.0,0.0,0.0,0.0,0.0,0.0,0.0,0.0,0.0,0.0,0.0,0.0,0.0,0.0,0.0,0.0,0.0,0.0,0.0,0.0,0.0,0.0,0.0,0.0,0.0,0.0,0.0,0.0,0.0,0.0,0.0,0.0,0.0,0.0,0.0,0.0,0.0,0.0,0.0,0.0,0.0,0.0,0.0,0.0,0.0,0.0,0.0,0.0,0.0,0.0,0.0,0.0,0.0,0.0,0.0,0.0,0.0,0.0,0.0,0.0,0.0,0.0,0.0,0.0,0.0,0.0,0.0,0.0,0.0,0.0,0.0,0.0,0.0,0.0,0.0,0.0,0.0,0.0,0.0,0.0,0.0,0.0,0.0,0.0,0.0,0.0,0.0,0.0,0.0,0.0,0.0,0.0,0.0,0.0,0.0,0.0,0.0,0.0,0.0,0.0,0.0,0.0,0.0,0.0,0.0,0.0,0.0,0.0,0.0,0.0,0.0,0.0,0.0,0.0,0.0,0.0,0.0,0.0,0.0,0.0,0.0,0.0,0.0,0.0,0.0,0.0,0.0,0.0,0.0,0.0,0.0,0.0,0.0,0.0,0.0,0.0,0.0,0.0,0.0,0.0,0.0,0.0,0.0,0.0,0.0,0.0,0.0,0.0,0.0,0.0,0.0,0.0,0.0,0.0,0.0,0.0,0.0,0.0,0.0,0.0,0.0,0.0,0.0,0.0,0.0,0.0,0.0,0.0,0.0,0.0,0.0,0.0,0.0,0.0,0.0,0.0,0.0,0.0,0.0,0.0,0.0,0.0,0.0,0.0,0.0,0.0,0.0,0.0,0.0,0.0,0.0,0.0,0.0,0.0,0.0,0.0,0.0,0.0,0.0,0.0,0.0,0.0,0.0,0.0,0.0,0.0,0.0,0.0,0.0,0.0,0.0,0.0,0.0,0.0,0.0,0.0,0.0,0.0,0.0,0.0,0.0,0.0,0.0,0.0,0.0,0.0,0.0,0.0,0.0,0.0,0.0,0.0,0.0,0.0,0.0,0.0,0.0,0.0,0.0,0.0,0.0,0.0,0.0,0.0,0.0,0.0,0.0,0.0,0.0,0.0,0.0,0.0,0.0,0.0,0.0,0.0,0.0,0.0,0.0,0.0,0.0,0.0,0.0,0.0,0.0,0.0,0.0,0.0,0.0,0.0,0.0,0.0,0.0,0.0,0.0,0.0,0.0,0.0,0.0,0.0,0.0,0.0,0.0,0.0,0.0,0.0,0.0,0.0,0.0,0.0,0.0,0.0,0.0,0.0,0.0,0.0,0.0,0.0,0.0,0.0,0.0,0.0,0.0,0.0,0.0,0.0,0.0,0.0,0.0,0.0,0.0,0.0,0.0,0.0,0.0,0.0,0.0,0.0,0.0,0.0,0.0,0.0,0.0,0.0,0.0,0.0,0.0,0.0,0.0,0.0,0.0,0.0,0.0,0.0,0.0,0.0,0.0,0.0,0.0,0.0,0.0,0.0,0.0,0.0,0.0,0.0,0.0,0.0,0.0,0.0,0.0,0.0,0.0,0.0,0.0,0.0,0.0,0.0,0.0,0.0,0.0,0.0,0.0,0.0,0.0,0.0,0.0,0.0,0.0,0.0,0.0,0.0,0.0,0.0,0.0,0.0,0.0,0.0,0.0,0.0,0.0,0.0,0.0,0.0,0.0,0.0,0.0,0.0,0.0,0.0,0.0,0.0,0.0,0.0,0.0,0.0,0.0,0.0,0.0,0.0,0.0,0.0,0.0,0.0,0.0,0.0,0.0,0.0,0.0,0.0,0.0,0.0,0.0,0.0,0.0,0.0,0.0,0.0,0.0,0.0,0.0,0.0,0.0,0.0,0.0,0.0,0.0,0.0,0.0,0.0,0.0,0.0,0.0,0.0,0.0,0.0,0.0,0.0,0.0,0.0,0.0,0.0,0.0,0.0,0.0,0.0,0.0,0.0,0.0,0.0,0.0,0.0,0.0,0.0,0.0,0.0,0.0,0.0,0.0,0.0,0.0,0.0,0.0,0.0,0.0,0.0,0.0,0.0,0.0,0.0,0.0,0.0,0.0,0.0,0.0,0.0,0.0,0.0,0.0,0.0,0.0,0.0,0.0,0.0,0.0,0.0,0.0,0.0,0.0,0.0,0.0,0.0,0.0,0.0,0.0,0.0,0.0,0.0,0.0,0.0,0.0,0.0,0.0,0.0,0.0,0.0,0.0,0.0,0.0,0.0,0.0,0.0,0.0,0.0,0.0,0.0,0.0,0.0,0.0,0.0,0.0,0.0,0.0,0.0,0.0,0.0,0.0,0.0,0.0,0.0,0.0,0.0,0.0,0.0,0.0,0.0,0.0,0.0,0.0,0.0,0.0,0.0,0.0,0.0,0.0,0.0,0.0,0.0,0.0,0.0,0.0,0.0,0.0,0.0,0.0,0.0,0.0,0.0,0.0,0.0,0.0,0.0,0.0,0.0,0.0,0.0,0.0,0.0,0.0,0.0,0.0,0.0,0.0,0.0,0.0,0.0,0.0,0.0,0.0,0.0,0.0,0.0,0.0,0.0,0.0,0.0,0.0,0.0,0.0,0.0,0.0,0.0,0.0,0.0,0.0,0.0,0.0,0.0,0.0,0.0,0.0,0.0,0.0,0.0,0.0,0.0,0.0,0.0,0.0,0.0,0.0,0.0,0.0,0.0,0.0,0.0,0.0,0.0,0.0,0.0,0.0,0.0,0.0,0.0,0.0,0.0,0.0,0.0,0.0,0.0,0.0,0.0,0.0,0.0,0.0,0.0,0.0,0.0,0.0,0.0,0.0,0.0,0.0,0.0,0.0,0.0,0.0,0.0,0.0,0.0,0.0,0.0,0.0,0.0,0.0,0.0,0.0,0.0,0.0,0.0,0.0,0.0,0.0,0.0,0.0,0.0,0.0,0.0,0.0,0.0,0.0,0.0,0.0,0.0,0.0,0.0,0.0,0.0,0.0,0.0,0.0,0.0,0.0,0.0,0.0,0.0,0.0,0.0,0.0,0.0,0.0,0.0,0.0,0.0,0.0,0.0,0.0,0.0,0.0,0.0,0.0,0.0,0.0,0.0,0.0,0.0,0.0,0.0,0.0,0.0,0.0,0.0,0.0,0.0,0.0,0.0,0.0,0.0,0.0,0.0,0.0,0.0,0.0,0.0,0.0,0.0,0.0,0.0,0.0,0.0,0.0,0.0,0.0,0.0,0.0,0.0,0.0,0.0,0.0,0.0,0.0,0.0,0.0,0.0,0.0,0.0,0.0,0.0,0.0,0.0,0.0,0.0,0.0,0.0,0.0,0.0,0.0,0.0,0.0,0.0,0.0,0.0,0.0,0.0,0.0,0.0,0.0,0.0,0.0,0.0,0.0,0.0,0.0,0.0,0.0,0.0,0.0,0.0,0.0,0.0,0.0,0.0,0.0,0.0,0.0,0.0,0.0,0.0,0.0,0.0,0.0,0.0,0.0,0.0,0.0,0.0,0.0,0.0,0.0,0.0,0.0,0.0,0.0,0.0,0.0,0.0,0.0,0.0,0.0,0.0,0.0,0.0,0.0,0.0,0.0,0.0,0.0,0.0,0.0,0.0,0.0,0.0,0.0,0.0,0.0,0.0,0.0,0.0,0.0,0.0,0.0,0.0,0.0,0.0,0.0,0.0,0.0,0.0,0.0,0.0,0.0,0.0,0.0,0.0,0.0,0.0,0.0,0.0,0.0,0.0,0.0,0.0,0.0,0.0,0.0,0.0,0.0,0.0,2.6741,2.2975,0.0,0.0,0.0,0.0,0.0,0.0,0.0,0.0,0.0,0.0,0.0,0.0,0.0,0.0,0.0,0.0,0.0,0.0,0.0,0.0,0.0,0.0,0.0,0.7364,0.7433,0.7433,0.7433,0.0,0.0,0.0,0.0,0.0,0.0,0.0,0.0,0.0,0.7804,0.8563,0.9112,1.115,1.4509,1.428,1.4121,1.3977,0.0,0.0,0.0,0.0,0.0,0.0,0.0,0.0,0.0,0.0,0.0,0.0,0.0,0.0,0.0,0.0,0.0,0.0,0.0,0.0,0.0,0.0,0.0,0.0,0.0,0.0,0.0,0.0,0.0,0.0,0.0,0.0,0.0,0.0,0.0,0.0,0.0,0.0,0.0,0.0,0.0,0.0,0.0,0.0,0.0,0.0,0.0,0.0,0.0,0.0,0.0,0.0,0.0,0.0,0.0,0.0,0.0,0.0,0.0,0.0,0.0,0.0,0.0,0.0,0.0,0.0,0.0,0.0,0.0,0.0,3.0708,2.8072,0.0,0.0,0.0,0.0,0.0,0.0,0.0,0.0,0.0,0.0,0.0,0.0,0.0,0.0,0.0,0.0,0.0,0.0,0.0,0.0,0.0,0.7611,0.7705,0.7924,0.8125,0.8272,0.818,0.8126,0.8126,0.8032,0.0,0.0,0.0,0.0,0.0,0.8139,0.8844,1.0156,1.1861,1.4002,1.6538,1.8756,1.9231,1.8138,1.5271,0.0,0.0,0.0,0.0,0.0,0.0,0.0,0.0,0.0,0.0,0.0,0.0,0.0,0.0,0.0,0.0,0.0,0.0,0.0,0.0,0.0,0.0,0.0,0.0,0.0,0.0,0.0,0.0,0.0,0.0,0.0,0.0,0.0,0.0,0.0,0.0,0.0,0.0,0.0,0.0,0.0,0.0,0.0,0.0,0.0,0.0,0.0,0.0,0.0,0.0,0.0,0.0,0.0,0.0,0.0,0.0,0.0,0.0,0.0,0.0,0.0,0.0,0.0,3.5655,3.6157,3.6585,3.6685,3.799,3.9924,3.5228,3.4301,3.5656,3.008,0.0,0.0,0.0,0.0,0.0,0.0,0.0,0.0,0.0,0.0,0.0,0.0,0.0,0.0,0.0,0.0,0.0,0.0,0.0,0.8057,0.8577,0.8671,0.8991,0.9752,0.9337,0.9031,0.9031,0.8591,0.0,0.0,0.0,0.0,0.8322,0.9072,1.0274,1.1957,1.6959,1.9784,2.0465,2.1024,2.2468,2.4374,2.0814,1.8865,1.8121,0.0,0.0,0.0,0.0,0.0,0.0,0.0,0.0,0.0,0.0,0.0,0.0,0.0,0.0,0.0,0.0,0.0,0.0,0.0,0.0,0.0,0.0,0.0,0.0,0.0,0.0,0.0,0.0,0.0,0.0,0.0,0.0,0.0,0.0,0.0,0.0,0.0,0.0,0.0,0.0,0.0,2.3506,2.393,0.0,0.0,0.0,0.0,0.0,0.0,0.0,0.0,0.0,0.0,0.0,0.0,0.0,3.3696,3.5056,3.7513,3.9019,3.9672,4.2585,4.3991,4.4091,4.4568,4.4995,4.5271,4.4066,0.0,3.8341,3.6935,0.0,0.0,0.0,0.0,0.0,0.0,0.0,0.0,0.0,0.0,0.0,0.0,0.0,0.0,0.0,0.0,0.0,0.0,0.0,0.0,0.0,1.0544,1.1266,1.181,1.1899,1.1593,1.0768,1.0327,0.0,0.0,0.0,0.8858,0.9339,1.0734,1.3019,1.6297,1.9597,2.1535,2.2181,2.3206,2.4254,2.5262,2.5311,2.4091,2.1808,1.8148,0.0,0.0,0.0,0.0,0.0,0.0,0.0,0.0,0.0,0.0,0.0,0.0,0.0,0.0,0.0,0.0,0.0,0.0,0.0,0.0,0.0,0.0,0.0,0.0,0.0,0.0,0.0,0.0,0.0,0.0,0.0,0.0,0.0,0.0,0.0,0.0,0.0,0.0,0.0,2.2988,2.54,2.5237,2.5311,2.4932,0.0,0.0,0.0,0.0,0.0,0.0,0.0,0.0,0.0,3.4987,3.5918,3.7204,3.8899,4.044,4.1482,4.1967,4.3451,4.4249,4.4498,4.4733,4.5268,4.6017,4.5775,4.5011,4.3689,4.0325,3.7538,3.5127,0.0,0.0,0.0,0.0,3.2365,3.2721,0.0,0.0,0.0,0.0,0.0,0.0,0.0,0.0,0.0,0.0,0.0,0.0,1.1279,1.2623,1.3655,1.4068,1.4429,1.4129,1.2872,1.2144,1.1152,0.983,0.963,0.9832,1.0419,1.2939,1.6174,2.007,2.1462,2.2492,2.3169,2.4368,2.5042,2.5364,2.7036,2.6452,2.4112,2.1111,1.9618,1.899,0.0,0.0,0.0,0.0,0.0,0.0,0.0,0.0,0.0,0.0,0.0,0.0,0.0,0.0,0.0,0.0,0.0,0.0,0.0,0.0,0.0,0.0,0.0,0.0,0.0,0.0,0.0,0.0,0.0,0.0,0.0,0.0,0.0,0.0,0.0,0.0,0.0,2.5593,2.7533,2.661,2.7511,2.7384,0.0,0.0,0.0,0.0,0.0,0.0,3.2406,3.3247,3.4958,3.7728,3.9046,4.0445,4.2115,4.2527,4.2906,4.3262,4.3395,4.364,4.3927,4.4073,4.472,4.5698,4.5559,4.6096,4.6783,4.3241,4.1379,4.0501,3.8015,3.6585,3.6158,3.7739,3.8015,3.8141,0.0,0.0,0.0,0.0,0.0,0.0,0.0,0.0,0.0,0.0,0.0,1.1855,1.3293,1.4549,1.5605,1.646,1.6324,1.5922,1.5257,1.3668,1.2296,1.1322,1.0798,1.0784,1.1326,1.5858,1.9399,2.1857,2.3108,2.3723,2.3763,2.3834,2.4735,2.6225,2.4435,2.3741,2.41,2.5006,2.2979,1.9051,1.8196,0.0,0.0,0.0,0.0,0.0,0.0,0.0,0.0,0.0,0.0,0.0,0.0,0.0,0.0,0.0,0.0,0.0,0.0,0.0,0.0,0.0,0.0,0.0,0.0,0.0,0.0,0.0,0.0,0.0,0.0,0.0,0.0,0.0,0.0,0.0,0.0,0.0,0.0,2.8449,3.0908,0.0,0.0,0.0,0.0,3.1542,3.2271,3.4207,3.7734,3.831,3.9853,4.2649,4.3194,4.3493,4.3582,4.3604,4.3626,4.3671,4.4241,4.4521,4.4566,4.5069,4.5341,4.5403,4.4897,4.4708,4.4899,4.6728,4.5949,4.3589,4.3413,4.1756,3.9772,4.2434,4.3413,4.379,0.0,0.0,0.0,0.8791,0.8791,0.8791,0.8791,0.9125,0.9552,1.0032,1.1877,1.348,1.4389,1.6393,1.7916,1.8637,1.8771,1.841,1.7448,1.5561,1.433,1.3988,1.2879,1.3694,1.6754,1.9399,2.1617,2.342,2.4022,2.4329,2.4329,2.4329,2.4535,2.5013,2.5385,2.4938,2.385,2.3497,2.3608,2.3778,2.1287,1.9852,0.0,0.0,0.0,0.0,0.0,0.0,0.0,0.0,0.0,0.0,0.0,0.0,0.0,0.0,0.0,0.0,0.0,0.0,0.0,0.0,0.0,0.0,0.0,0.0,0.0,0.0,0.0,0.0,0.0,0.0,0.0,0.0,0.0,0.0,0.0,0.0,0.0,2.9704,3.1532,0.0,2.9734,3.2387,3.4111,3.374,3.6206,3.7963,3.8459,3.9149,4.0009,4.1006,4.1744,4.2075,4.2075,4.2075,4.2218,4.2467,4.2706,4.2932,4.318,4.3382,4.4006,4.4859,4.4672,4.5097,4.602,4.6816,4.5809,4.3757,4.3757,4.3923,4.4308,4.5281,4.6455,4.7682,0.0,0.0,0.0,0.8791,0.8791,0.8791,0.8791,0.9392,1.0154,1.1032,1.3213,1.5146,1.6351,1.837,1.9853,2.0347,2.0655,2.029,1.9158,1.7315,1.6099,1.5712,1.495,1.6473,2.0588,2.1737,2.306,2.4649,2.4836,2.4893,2.4893,2.4893,2.4783,2.4526,2.569,2.5414,2.4008,2.3113,2.3839,2.5407,2.3881,2.2757,2.1844,0.0,0.0,0.0,0.0,0.0,0.0,0.0,0.0,0.0,0.0,0.0,0.0,0.0,0.0,0.0,0.0,0.0,0.0,0.0,0.0,0.0,0.0,0.0,0.0,0.0,0.0,0.0,0.0,0.0,0.0,0.0,0.0,0.0,0.0,3.041,3.2168,3.0996,3.3027,3.3789,3.1894,3.5142,3.7091,3.6509,3.8834,4.0064,3.9488,4.0137,4.0605,4.0742,4.1445,4.1914,4.2031,4.2031,4.2168,4.2441,4.2441,4.2598,4.2851,4.2851,4.3359,4.429,4.429,4.4746,4.5515,4.5515,4.4587,4.3361,4.4329,4.5535,4.6727,4.6727,4.7984,4.9684,0.0,0.0,0.8791,0.8791,0.8791,0.8791,0.8804,0.9565,1.0859,1.2927,1.4754,1.6742,1.9147,2.0428,2.1256,2.1596,2.1877,2.151,2.033,1.8863,1.7555,1.6458,1.7072,1.9,2.2371,2.2827,2.383,2.5518,2.5518,2.5518,2.5518,2.5518,2.5358,2.509,2.509,2.493,2.4599,2.4356,2.3901,2.3527,2.5821,2.5576,2.3739,0.0,0.0,0.0,0.0,0.0,0.0,0.0,0.0,0.0,0.0,0.0,0.0,0.0,0.0,0.0,0.0,0.0,0.0,0.0,0.0,0.0,0.0,0.0,0.0,0.0,0.0,0.0,0.0,0.0,0.0,0.0,0.0,0.0,3.1172,3.248,3.3262,3.2472,3.5684,3.7168,3.5059,3.7168,3.906,3.9883,3.9961,4.0332,4.123,4.1621,4.2051,4.244,4.291,4.334,4.373,4.375,4.375,4.375,4.375,4.375,4.375,4.375,4.375,4.375,4.375,4.3516,4.3144,4.3144,4.2891,4.2762,4.5519,4.6596,4.6669,4.6669,4.7949,4.9736,0.8791,0.8791,0.8791,0.8791,0.8791,0.8871,0.9058,1.0032,1.1343,1.2999,1.5484,1.7675,1.9227,2.082,2.1984,2.2492,2.2378,2.2071,2.1537,1.9933,1.8945,1.8838,2.1042,2.2819,2.3959,2.4529,2.5024,2.5518,2.5518,2.5518,2.5518,2.5518,2.5464,2.5398,2.5398,2.5224,2.4957,2.4877,2.4623,2.4481,2.7034,2.7792,2.7304,0.0,0.0,0.0,0.0,0.0,0.0,0.0,0.0,0.0,0.0,0.0,0.0,0.0,0.0,0.0,0.0,0.0,0.0,0.0,0.0,0.0,0.0,0.0,0.0,0.0,0.0,0.0,0.0,0.0,0.0,0.0,3.2109,3.3945,3.3313,3.5215,3.6567,3.6367,3.8125,3.9121,3.8535,3.9668,4.0722,4.123,4.1269,4.166,4.254,4.2949,4.3379,4.3848,4.4277,4.4551,4.4626,4.4626,4.4626,4.4626,4.4626,4.4626,4.4626,4.4626,4.4626,4.4626,4.4626,4.459,4.4492,4.4492,4.4414,4.4243,4.3779,4.4466,4.5758,4.5758,4.7012,4.8702,0.8791,0.8791,0.8791,0.8791,0.8791,0.8885,0.915,1.0325,1.1877,1.3868,1.6259,1.8464,2.0298,2.1483,2.2405,2.3006,2.2672,2.2191,2.1657,2.0428,2.0187,2.1229,2.3033,2.4449,2.532,2.5705,2.5999,2.6253,2.6253,2.6253,2.6239,2.6119,2.5999,2.5879,2.5758,2.5531,2.5264,2.5264,2.509,2.5029,2.7357,2.8143,2.8009,2.8762,2.8455,2.7505,2.6615,2.6035,2.5547,2.4742,0.0,0.0,0.0,0.0,0.0,0.0,0.0,0.0,0.0,0.0,0.0,0.0,0.0,0.0,0.0,0.0,0.0,0.0,0.0,0.0,0.0,0.0,0.0,0.0,3.5078,3.6855,3.6777,3.791,3.8809,3.8947,4.0,4.0703,4.0703,4.1465,4.2148,4.2578,4.2773,4.3183,4.3848,4.4121,4.4473,4.4922,4.5176,4.5391,4.5566,4.5566,4.5566,4.5566,4.5566,4.5566,4.5566,4.5566,4.5566,4.5566,4.5566,4.5469,4.5293,4.5293,4.5195,0.0,0.0,0.0,0.0,0.0,4.7252,4.8218,0.8818,0.8791,0.8791,0.8791,0.8818,0.8938,0.9217,1.0496,1.242,1.5097,1.6969,1.9063,2.1697,2.2271,2.2712,2.3292,2.264,2.1845,2.1082,2.077,2.1451,2.3359,2.3861,2.4847,2.64,2.6466,2.6747,2.7309,2.7309,2.7309,2.7296,2.7001,2.6734,2.648,2.6225,2.5931,2.5611,2.5571,2.5398,2.5281,2.6946,2.7312,2.7039,2.8717,2.9358,2.9346,2.9258,2.9011,2.8555,2.7604,0.0,0.0,0.0,0.0,0.0,0.0,0.0,0.0,0.0,0.0,0.0,0.0,0.0,0.0,0.0,0.0,0.0,0.0,0.0,0.0,0.0,0.0,0.0,0.0,3.8125,4.0195,4.0605,4.0469,4.041,4.0644,4.1465,4.2012,4.2012,4.2793,4.3457,4.3828,4.4238,4.4648,4.5078,4.5098,0.0,0.0,0.0,4.5918,4.6289,4.6308,4.6308,4.6308,4.6308,4.6308,4.6308,4.6308,4.6308,4.6308,4.6308,4.6094,4.5785,4.5785,4.5527,4.5156,4.5058,4.4977,4.5232,4.7068,4.7755,4.7755,0.891,0.8791,0.8791,0.8791,0.8978,0.9231,0.9552,1.0851,1.2751,1.5368,1.7301,1.9319,2.1724,2.2492,2.3054,2.3669,2.1946,2.0786,2.0641,2.2199,2.3474,2.4306,2.5344,2.6146,2.672,2.6974,2.7188,2.7309,2.7309,2.7309,2.7309,2.7242,2.7188,2.7122,2.6787,2.6493,2.6199,2.6011,2.5743,2.5462,2.5829,2.6532,2.7542,2.9051,2.9629,2.9783,3.0909,3.1271,3.135,3.2308,3.1601,3.0293,2.9805,2.7969,0.0,0.0,0.0,0.0,0.0,0.0,0.0,0.0,0.0,0.0,0.0,0.0,0.0,0.0,0.0,0.0,0.0,0.0,0.0,3.7172,3.9394,4.1074,4.1484,4.2363,4.2617,4.166,4.2598,4.334,4.334,4.4121,4.4687,4.4766,4.4801,4.5098,4.5527,4.5547,4.5742,4.6172,4.6191,4.623,4.6308,4.6308,4.6308,4.6308,0.0,0.0,4.6308,4.6308,4.6308,4.6308,4.6308,4.625,4.6191,4.6191,4.6133,4.5996,4.525,4.4977,4.5062,4.5467,4.5574,4.5574,0.9432,0.9028,0.8791,0.8791,0.9018,0.9311,0.9647,1.0945,1.2684,1.4861,1.6593,1.833,2.0241,2.0873,2.1059,2.0829,2.0046,1.9836,2.0362,2.2528,2.4272,2.5251,2.6132,2.6747,2.7041,2.7335,2.7603,2.775,2.775,2.775,2.7737,2.759,2.7482,2.7468,2.7014,2.6747,2.6587,2.6293,2.6038,2.5732,2.5732,2.606,2.6689,2.8227,2.8734,2.881,3.0509,3.1098,3.1322,3.2795,3.274,3.2085,3.263,3.1328,2.916,0.0,0.0,0.0,0.0,0.0,0.0,0.0,0.0,0.0,0.0,0.0,0.0,0.0,0.0,3.2988,3.4726,0.0,3.8437,3.9904,4.1445,4.2598,4.3027,4.3828,4.3965,4.2871,4.3711,4.4355,4.4355,4.4961,4.5351,4.5351,4.5547,4.5762,4.5976,4.5996,4.6094,4.6289,4.6308,4.6308,4.6308,4.6308,4.6308,4.6308,4.6308,4.6308,4.6308,4.6308,4.6308,4.6308,4.6308,4.6308,4.6308,4.6308,4.6308,4.6269,4.584,4.5664,4.5664,4.5664,4.5664,4.5664,1.0102,0.9355,0.8791,0.8791,0.9085,0.9391,0.966,1.0945,1.2484,1.4114,1.5608,1.7061,1.8424,1.8891,1.8677,1.7571,1.8624,1.9613,2.0303,2.2714,2.4727,2.6024,2.6547,2.6961,2.7296,2.7549,2.7843,2.8179,2.8179,2.8179,2.8179,2.7938,2.7789,2.7762,2.7228,2.6961,2.6894,2.66,2.6306,2.6078,2.6078,2.5865,2.5725,2.7026,2.7356,2.7356,2.917,2.9819,3.0039,3.1583,3.234,3.2766,3.3602,3.3379,3.2213,2.8956,2.8386,0.0,0.0,0.0,0.0,0.0,0.0,0.0,0.0,2.9922,3.084,3.3215,3.4824,3.6309,3.7871,3.9453,4.0996,4.2401,4.334,4.4004,4.4453,4.4883,4.4883,4.418,4.4726,4.5156,4.5156,4.5547,4.5844,4.5844,4.6113,4.6308,4.6308,4.6308,4.6308,4.6308,4.6308,4.6308,4.6308,4.6308,4.6308,4.6308,4.6308,4.6308,4.6308,4.6308,4.6308,4.6308,4.6308,4.6308,4.6308,4.6308,4.6308,4.6308,4.6308,4.6308,4.6308,4.6308,4.6308,4.6308,1.0699,0.9666,0.8791,0.8791,0.9272,0.966,0.9701,1.0945,1.2336,1.3533,1.4972,1.6286,1.7274,1.7862,1.7653,1.6391,1.9556,2.1304,2.0543,2.3508,2.5625,2.6306,2.6653,2.6961,2.7296,2.7549,2.7843,2.8179,2.8179,2.8179,2.8179,2.8152,2.8138,2.8125,2.7749,2.7455,2.7242,2.6894,2.66,2.6346,2.6346,2.6198,2.5944,2.6136,2.6011,2.594,2.76,2.8181,2.8413,3.002,3.1668,3.2837,3.1267,3.2733,3.3981,2.8493,2.8655,2.9765,2.5844,2.675,2.9094,3.0586,3.0947,3.2001,0.0,3.5684,3.5488,3.8437,3.9473,4.0156,4.1113,4.207,4.291,4.3476,4.3984,4.4473,4.4902,4.5332,4.5609,4.5512,4.5547,4.5605,4.5605,4.5976,4.623,4.623,4.6269,4.6308,4.6308,4.6308,4.6308,4.6308,4.6308,4.6308,4.6308,4.6308,4.6308,4.6308,4.6308,4.6308,4.6308,4.6308,4.6308,4.6308,4.6308,4.6308,4.6308,4.6308,4.6308,4.6308,4.6308,4.6308,4.6308,4.6308,4.6308,4.6308,1.0218,0.9445,0.8791,0.8791,0.9138,0.9471,0.9674,1.0651,1.1681,1.2505,1.344,1.433,1.503,1.4948,1.4814,1.472,1.7681,1.9647,1.9858,2.3413,2.5705,2.6158,2.6573,2.6881,2.7001,2.7295,2.755,2.767,2.767,2.767,2.767,2.767,2.767,2.7657,2.7321,2.7121,2.6987,2.6694,2.6507,2.6386,2.6386,2.6319,2.6225,2.6065,2.5917,2.578,2.5765,2.5626,0.0,2.7733,2.8904,2.9759,3.0559,3.1318,3.1271,2.7995,2.8091,2.9372,2.9883,3.0113,3.0929,3.3811,3.4883,3.5689,3.7484,3.7969,3.8574,4.0586,4.1543,4.2187,4.2793,4.3418,4.4062,4.4746,4.5019,4.4783,4.3759,4.5009,4.4993,4.212,4.3026,4.4448,4.5905,4.6191,4.6308,4.6308,4.6308,4.6308,4.6308,4.6308,4.6308,4.6308,4.6308,4.6308,4.6308,4.6308,4.6308,4.6308,4.6308,4.6308,4.6308,4.6562,4.6797,4.7031,4.6777,4.6816,4.7031,4.6777,4.6816,4.7051,4.7051,4.7051,4.6992,4.6484,4.6308,4.6308,0.9808,0.9263,0.8791,0.8791,0.8965,0.9191,0.9512,1.0329,1.1039,1.1484,1.2127,1.2744,1.3193,1.2807,1.2894,1.3846,1.6275,1.8357,1.9789,2.3106,2.5277,2.585,2.6239,2.6533,2.6694,2.6921,2.7148,2.7309,2.7309,2.7309,2.7309,2.7309,2.7309,2.7296,2.7041,2.6854,2.6694,2.656,2.6413,2.6266,2.6266,2.6266,2.6279,2.5984,2.5623,2.5155,2.4262,2.3821,2.3841,2.489,2.5776,2.6627,2.7967,2.8696,2.8609,2.6463,2.6374,2.783,3.1799,3.2384,3.2559,3.5527,3.7653,3.8652,3.7371,3.8406,3.9755,4.0144,4.083,4.1466,4.1858,4.2382,4.2943,4.3584,4.3772,4.3324,4.1825,4.313,4.2952,3.9449,4.1124,4.3041,4.4188,4.487,4.5568,4.6245,4.6308,4.6348,4.6465,4.6484,4.6523,4.6641,4.666,4.666,4.666,4.666,4.666,4.666,4.666,4.666,4.666,4.6973,4.7285,4.7558,4.7246,4.7285,4.7558,4.7246,4.7285,4.7578,4.7578,4.7578,4.75,4.6875,4.666,4.666,0.9808,0.9263,0.8791,0.8791,0.8804,0.8911,0.9178,1.0007,1.0629,1.0642,1.139,1.2029,1.2305,1.2321,1.2882,1.4342,1.6397,1.8582,2.0913,2.2819,2.4329,2.5478,2.5545,2.5825,2.6386,2.6413,2.6694,2.7309,2.7309,2.7309,2.7309,2.7309,2.7309,2.7309,2.7296,2.6974,2.6426,2.6694,2.648,2.6011,2.6011,2.6011,2.5971,2.5638,2.4636,2.3372,2.3332,2.3319,2.3073,2.1459,2.2645,2.4468,2.2125,2.4481,2.736,2.3342,2.3095,2.5152,2.9798,3.2263,3.3792,3.4862,3.844,4.0515,3.5998,3.7083,3.853,3.6745,3.6593,3.6929,3.7423,3.8025,3.8505,3.8522,3.8927,3.9204,3.9113,3.9175,3.9175,3.9039,4.1124,4.1708,3.9449,4.1349,4.3727,4.6114,4.6308,4.6484,4.685,4.687,4.7109,4.7519,4.7539,4.7539,4.7539,4.7539,4.7539,4.7539,4.7539,4.7539,4.7539,4.7558,4.7578,4.7578,4.7558,4.7578,4.7578,4.7558,4.7578,4.7578,4.7578,4.7578,4.7623,4.7558,4.7539,4.7539,0.9133,0.8962,0.8791,0.8791,0.8791,0.8885,0.915,0.9659,1.0062,1.0234,1.0862,0.0,0.0,0.0,0.0,0.0,1.5925,1.7675,1.9265,2.1783,2.3434,2.4035,2.4997,2.5598,2.5798,2.5812,2.5905,2.6106,2.6106,2.6106,2.6106,2.6106,2.6106,2.6106,2.6106,2.5985,2.5812,2.5919,2.5838,2.5665,2.5665,2.5665,2.5611,2.5117,2.4128,2.2873,0.0,2.1117,2.0922,2.0521,2.0961,2.1738,2.169,2.2229,2.2548,2.1016,2.1697,2.3857,2.8082,3.0219,3.195,3.4685,3.6757,3.766,3.6116,3.6652,3.7352,3.6744,3.6352,3.6288,3.677,3.7175,3.7545,3.7865,3.8522,3.8445,3.6791,3.7987,3.8399,3.6745,3.7252,3.8062,3.8947,4.1169,4.2952,4.3771,4.4119,4.5076,4.6825,4.7207,4.7422,4.7623,4.7578,4.7578,4.7578,4.7578,4.7578,4.7578,4.7578,4.7734,4.7988,4.7988,4.8164,4.8464,4.8125,4.8164,4.8444,4.8125,4.8164,4.8464,4.8464,4.8464,4.8464,4.8464,4.8464,4.8385,0.8791,0.8791,0.8791,0.8791,0.8791,0.0,0.0,0.0,0.0,0.0,0.0,0.0,0.0,0.0,0.0,0.0,0.0,1.6513,1.7943,2.011,2.1649,2.2352,2.2715,2.3025,2.3232,2.3129,2.3284,2.37,2.4401,2.4853,2.5159,2.5411,2.5518,2.5518,2.5518,2.5451,2.5371,2.5464,2.5398,2.5133,2.4863,2.4559,2.4315,2.3527,2.2418,0.0,1.9863,1.9052,1.8571,1.8758,1.9076,1.953,2.0214,2.0334,2.0264,2.0641,2.1683,2.3693,2.8148,2.9916,3.1189,3.4155,3.5757,3.615,3.4523,3.4956,3.5474,3.4519,3.3769,3.3406,3.3789,3.4145,3.4393,3.4545,3.5416,3.5532,3.3946,3.5072,3.5577,3.4157,3.4779,3.5927,3.7528,4.0004,4.1822,4.255,4.3045,4.4456,4.7015,4.7578,4.7871,4.8073,4.8047,4.8047,4.8047,4.8047,4.8047,4.8047,4.8047,4.8229,4.8437,4.8437,4.8594,4.8894,4.8555,4.8594,4.8874,4.8555,4.8659,4.8913,4.8913,4.8913,4.8913,4.8913,4.8913,4.8815,0.8791,0.8791,0.8791,0.0,0.0,0.0,0.0,0.0,0.0,0.0,0.0,0.0,0.0,0.0,0.0,0.0,0.0,0.0,1.6924,1.7903,1.9067,2.0485,1.9152,1.8642,1.923,1.8923,1.9333,2.0472,2.2255,2.3572,2.4412,2.4997,2.5277,2.5291,2.5277,2.5117,2.489,2.5144,2.4893,2.4319,2.3479,2.2785,2.2191,2.1056,1.9762,1.8424,1.8103,1.7235,1.6284,1.6324,1.7154,1.8116,1.7903,1.9011,2.0637,2.2065,2.2945,2.4571,2.9655,3.1085,3.1568,3.3249,3.5295,3.5826,3.1384,3.2079,3.2922,3.0307,2.9125,2.8591,2.8735,2.9138,2.9312,2.8975,3.002,3.0835,3.0835,3.0835,3.1095,3.1786,3.3826,3.5152,3.5307,3.7799,4.0217,4.2129,4.2964,4.4604,4.7488,4.8008,4.8437,4.8894,4.8913,4.8913,4.8913,4.8913,4.8913,4.8913,4.8913,4.8913,4.8913,4.8913,4.8913,4.8913,4.8913,4.8913,4.8913,4.8913,4.8913,4.8913,4.8913,4.8913,4.8913,4.8913,4.8913,4.8913,0.0,0.0,0.0,0.0,0.0,0.0,0.0,0.0,0.0,0.0,0.0,0.0,0.0,0.0,0.0,0.0,0.0,0.0,1.4825,1.6313,1.7528,1.8358,1.9055,1.9585,1.9937,1.9841,1.9989,2.0289,2.076,2.1224,2.1697,2.1844,2.2031,2.2218,2.2004,2.1991,2.2098,2.1704,2.1617,2.1643,2.1171,2.0891,2.0704,2.0214,1.9252,1.8089,1.7809,1.6941,1.6021,1.6725,1.8331,2.0147,2.0935,2.1771,2.2665,2.3514,2.4783,2.6344,2.8414,2.9766,3.0756,3.14,3.2022,3.2089,3.0713,3.084,3.0701,2.8679,2.7909,2.7228,2.5947,2.7255,2.8433,2.8083,2.9953,3.145,3.145,3.145,3.2183,3.4172,3.3323,3.3408,3.5494,3.6415,3.7179,3.7774,4.1814,4.5371,4.7891,4.8457,4.8796,4.8894,4.8913,4.8913,4.8913,4.8913,4.8913,4.8913,4.8913,4.8913,4.8913,4.8913,4.8913,4.8913,4.8913,4.8913,4.8913,4.8913,4.8913,4.8913,4.8913,4.8913,4.8913,4.8913,4.8913,4.8913,0.0,0.0,0.0,0.0,0.0,0.0,0.0,0.0,0.0,0.0,0.0,0.0,0.0,0.0,0.0,0.0,0.0,0.0,0.0,1.4714,1.5595,1.6206,1.651,1.6775,1.7029,1.7029,1.7298,1.7823,1.8557,1.9239,1.9907,2.007,2.0217,2.0334,2.0204,2.0217,2.0321,1.9987,1.9867,0.0,0.0,1.8998,1.8811,1.8263,1.7622,1.6996,1.6849,1.7061,1.7555,1.8732,2.0164,2.1577,2.2365,2.3113,2.3892,2.5024,2.6146,2.7295,2.862,2.9664,3.044,3.0614,3.0702,3.0541,2.965,2.9423,2.8928,2.7108,2.6199,2.5503,2.4609,2.6159,2.751,2.7175,2.9459,3.1336,3.1336,3.1336,3.1933,3.3516,3.2612,3.2892,3.5534,3.6181,3.6898,3.8021,4.1046,4.3439,4.4779,4.6318,4.7214,4.7214,4.832,4.8913,4.8913,4.8913,4.8913,4.8913,4.8913,4.8913,4.8913,4.8913,4.8913,4.8913,4.8913,4.8913,4.8913,4.8913,4.8913,4.8913,4.8913,4.9031,4.916,4.916,4.9277,4.948,0.0,0.0,0.0,0.0,0.0,0.0,0.0,0.0,0.0,1.0774,1.0693,1.0602,1.0602,1.1049,0.0,0.0,0.0,0.0,0.0,0.0,1.3754,1.4301,1.329,1.2855,1.3138,1.315,1.3659,1.4714,1.6108,1.7314,1.8316,1.8679,1.8826,1.8866,1.8866,1.8893,1.892,1.8839,1.8679,1.8356,1.7569,1.7127,1.6884,0.0,1.5768,1.5808,1.5848,1.7382,1.9615,2.1087,2.2158,2.2899,2.3348,2.4071,2.5037,2.6653,2.7295,2.7869,2.9526,3.0167,3.0413,3.0453,3.0654,3.0327,2.8593,2.8152,2.7576,2.5571,2.4382,2.3714,2.3728,2.5304,2.6547,2.6413,2.8804,3.0728,3.0889,3.0915,3.1116,3.1711,3.1944,3.2969,3.5207,3.633,3.7626,3.942,3.9993,4.0327,4.0565,4.3402,4.5173,4.552,4.7744,4.8913,4.8913,4.8913,4.8913,4.8913,4.8913,4.8913,4.8913,4.8913,4.8913,4.8913,4.8913,4.8913,4.8913,4.8913,4.8933,4.8991,4.8991,4.9219,4.9562,4.9562,4.9844,5.0176,0.0,0.0,0.0,0.0,0.0,0.0,0.0,0.0,0.0,0.0,1.1172,1.0602,0.0,0.0,0.0,0.0,0.0,0.0,0.0,0.0,0.0,1.3407,1.3442,1.3587,1.3908,1.3908,1.4,1.423,1.4502,1.4843,1.5274,1.5615,1.5882,1.6086,1.6086,1.6219,1.6395,1.5949,1.5855,1.5979,1.5601,1.5548,1.5685,1.5524,1.5618,0.0,1.6112,1.7582,1.9615,2.1087,2.3108,2.5157,2.6225,2.6988,2.7657,2.8417,2.8655,2.8965,3.0007,3.036,3.0467,3.0662,3.0755,3.0327,2.8593,2.7991,2.6934,2.3977,2.3367,2.2966,2.155,2.3527,2.5598,2.6279,2.8457,3.0408,3.1383,3.1564,3.1637,3.1984,3.2078,3.2485,3.3396,3.5545,3.629,3.4772,3.6667,3.8835,4.0944,4.3559,4.599,4.8181,4.8663,4.8913,4.8913,4.8913,4.8913,4.8913,4.8913,4.8913,4.8913,4.8913,4.8913,4.8913,4.8913,0.0,4.8913,4.8913,4.9128,4.9414,4.9414,4.9687,5.0058,5.0058,5.0117,5.0176,0.0,0.0,0.0,0.0,0.0,0.0,0.0,1.1019,1.1633,1.282,1.2486,1.1948,1.1337,1.1239,1.1156,0.0,0.0,0.0,0.0,0.0,0.0,1.2732,1.3013,1.326,1.3427,1.3567,1.3707,1.3834,0.0,1.3774,1.4026,1.4055,1.4122,1.4255,1.4255,1.4394,1.4625,1.4367,1.4442,1.4696,1.4584,1.4798,1.52,0.0,0.0,0.0,1.6339,1.7836,1.9749,2.0575,2.2939,2.5718,2.6934,2.771,2.8272,2.8684,2.8881,2.9121,2.974,3.0172,3.04,3.0341,3.0341,2.9673,2.7162,2.6319,2.5224,2.2138,2.1737,2.1683,2.086,2.2846,2.481,2.5384,2.7843,2.994,3.0662,3.1276,3.1784,3.2064,3.2238,3.2554,3.2982,3.4267,3.4617,3.35,3.4571,3.5833,3.7085,4.0898,4.4211,4.6775,4.8181,4.8913,4.8913,4.8913,4.8913,4.8913,4.8913,4.8913,4.8913,4.8913,4.8913,4.8801,4.7446,4.7632,4.8801,4.7446,4.7899,4.9484,4.9484,4.9922,5.0508,5.0508,5.0644,5.082,0.0,0.0,0.0,0.0,0.0,0.0,0.0,1.1673,1.234,1.3866,1.3959,1.3474,1.2371,1.1864,1.1406,0.0,0.0,0.0,0.0,0.0,0.0,0.0,0.0,0.0,1.269,0.0,0.0,1.332,1.31,0.0,0.0,0.0,0.0,0.0,1.3167,1.3313,1.3507,1.3573,1.3754,0.0,0.0,1.4464,0.0,0.0,0.0,0.0,0.0,1.7742,1.9319,1.9903,2.2151,2.4877,2.6158,2.7175,2.7965,2.823,2.8564,2.8938,2.9366,2.9918,3.0239,2.99,2.982,2.8978,2.5732,2.4756,2.3665,2.0717,2.0374,2.0575,2.0575,2.2298,2.3928,2.4506,2.6934,2.9005,2.9806,3.0768,3.1631,3.2131,3.246,3.2728,3.304,3.328,3.3414,3.3414,3.3414,3.365,3.4186,3.8148,4.1524,4.4116,4.6195,4.726,4.726,4.726,4.726,4.726,4.726,4.726,4.726,4.726,4.7251,4.7206,4.5158,4.5448,4.7291,4.5823,4.6648,4.8964,4.955,4.9921,5.0127,5.0745,5.0746,5.0627,0.0,0.0,0.0,0.0,0.0,0.0,0.0,1.2518,1.3647,1.5381,1.5164,1.4517,1.3554,1.2713,1.1784,0.0,0.0,0.0,0.0,0.0,0.0,0.0,0.0,0.0,0.0,0.0,0.0,1.2425,1.2398,0.0,0.0,0.0,0.0,0.0,0.0,1.3207,1.3247,1.3493,0.0,0.0,0.0,0.0,0.0,0.0,0.0,0.0,0.0,1.6805,1.7675,1.9292,2.0762,2.2198,2.3669,2.5398,2.7001,2.7295,2.7831,2.8446,2.9303,2.9713,2.9887,2.9593,2.9526,2.8671,2.5373,2.4412,2.3407,2.0441,2.0037,2.0237,2.0237,2.1323,2.2726,2.4332,2.5558,2.7175,2.9579,3.0247,3.1029,3.2393,3.2581,3.2808,3.332,3.34,3.3414,3.3414,3.3414,3.4435,3.679,3.738,3.888,4.1476,4.1764,4.1907,4.1907,4.1907,4.1907,4.1907,4.1907,4.1907,4.1907,4.1907,4.2061,4.2251,4.2008,4.2191,0.0,4.505,4.6368,4.7217,4.9733,4.9468,4.8022,5.0472,4.9818,4.8145,0.0,0.0,0.0,0.0,0.0,0.0,1.2154,1.2564,1.3494,1.5792,1.5615,1.495,1.4234,1.3514,1.2406,1.0763,0.0,0.0,0.0,0.0,0.0,0.0,0.0,0.0,0.0,0.0,1.2305,1.2305,1.2497,0.0,0.0,0.0,0.0,0.0,0.0,1.3083,1.3782,1.3491,0.0,0.0,0.0,0.0,0.0,0.0,0.0,0.0,0.0,0.0,1.7541,1.8251,1.9642,2.11,2.1309,2.2659,2.4502,2.6239,2.7188,2.7857,2.8711,2.9165,2.9322,2.9245,2.8551,2.7268,2.4917,2.3594,2.2231,2.003,1.9907,2.0197,2.0197,2.1042,2.2104,2.3092,2.4502,2.5957,2.7335,2.9005,3.0434,3.1383,3.2166,3.2822,3.336,3.3414,3.3414,3.3414,3.3414,3.385,3.4919,3.646,3.7772,3.8831,4.0368,4.1187,4.1156,4.1187,4.1187,4.1187,4.1156,4.1156,4.1204,4.137,4.152,4.1522,4.0124,4.0497,0.0,4.1503,4.2509,4.4385,4.5491,4.5521,4.5033,4.6153,4.5853,4.5352,0.0,0.0,0.0,0.0,0.0,1.0329,1.2234,1.2551,1.34,1.5735,1.5498,1.4977,1.4541,1.366,1.2532,1.1109,1.0918,0.0,0.0,0.0,0.0,0.0,0.0,0.0,0.0,0.0,1.2345,1.2457,1.3118,1.3312,0.0,0.0,1.4033,1.4291,0.0,0.0,0.0,0.0,0.0,0.0,0.0,0.0,0.0,0.0,0.0,0.0,0.0,0.0,0.0,0.0,0.0,1.984,1.9519,2.0494,2.2225,2.4756,2.6146,2.7108,2.7963,2.8617,2.8975,2.8895,2.7814,2.632,2.4609,2.306,2.1537,1.9947,1.9947,2.0224,2.0317,2.0949,2.1676,2.2311,2.3541,2.4847,2.5971,2.7843,2.9486,3.0421,3.139,3.2246,3.2946,3.3253,3.3414,3.3414,3.3414,3.3414,3.3414,3.5153,3.6179,3.6179,3.7904,3.888,3.8831,3.888,3.888,3.888,3.8831,3.8831,3.888,3.9096,3.9265,3.9334,3.7755,3.815,0.0,3.8938,3.9769,4.1796,4.2587,4.2599,4.2201,4.3014,4.2811,4.2608,0.0,0.0,0.0,0.0,0.0,0.0,1.1667,1.2625,1.3714,1.5204,1.4874,1.4501,1.4501,1.2946,1.1913,1.1899,1.1095,0.0,0.0,0.0,0.0,0.0,0.0,0.0,0.0,0.0,1.247,1.2803,1.4272,1.4903,1.4806,1.5866,1.6161,1.5758,0.0,0.0,0.0,0.0,0.0,0.0,0.0,0.0,0.0,0.0,0.0,0.0,0.0,0.0,0.0,0.0,0.0,0.0,0.0,1.9305,2.0637,2.2718,2.4596,2.6198,2.7081,2.8136,2.8921,2.8684,2.7709,2.632,2.4609,2.306,2.1657,2.0437,2.0197,2.029,2.0615,2.0909,2.1403,2.2271,2.2686,2.3736,2.6052,2.6948,2.7991,2.9713,3.0194,3.0881,3.1998,3.2906,3.3414,3.3414,3.3414,3.3414,3.3414,3.3414,3.3464,3.3464,3.3464,3.3464,3.3464,3.3464,3.3464,3.3464,3.3464,3.3464,3.3464,3.3464,3.3798,3.436,3.4374,3.4695,0.0,3.8196,3.9322,3.9616,4.2251,4.169,3.9683,4.2302,4.1604,4.0132,0.0,0.0,0.0,0.0,0.0,0.0,0.0,1.136,1.2015,1.3681,1.3373,1.314,1.3574,1.2591,1.1899,1.1899,1.1095,0.0,0.0,0.0,0.0,0.0,0.0,0.0,0.0,0.0,1.4887,1.527,1.656,1.7053,1.6788,1.7047,1.7181,1.7181,1.6102,1.5816,0.0,0.0,0.0,0.0,0.0,0.0,0.0,0.0,0.0,0.0,0.0,0.0,0.0,0.0,0.0,0.0,0.0,0.0,0.0,2.0548,2.2458,2.4356,2.5224,2.5892,2.6266,2.5933,2.4997,2.3861,2.2913,2.1697,2.0575,1.98,1.98,1.996,2.0054,2.0481,2.1162,2.2245,2.302,2.3991,2.5304,2.7215,2.8764,2.9526,3.1289,3.2585,3.2959,3.3253,3.3414,3.3414,3.3414,3.3414,3.3414,3.3414,3.3414,3.3414,3.3414,3.3414,3.3414,3.3414,3.3414,3.3414,3.3414,3.3414,3.3427,3.3841,3.4135,3.4336,3.475,3.503,3.5243,3.6163,3.653,3.6569,3.7429,3.7235,3.6621,3.7444,3.7235,3.704,0.0,0.0,0.0,0.0,0.0,0.0,0.0,1.0559,1.1028,1.2211,1.1944,1.1975,1.2772,1.1877,1.1519,1.2283,1.156,0.0,0.0,0.0,0.0,0.0,0.0,0.0,1.3802,1.4791,1.5976,1.7312,1.847,1.9078,1.9131,1.9486,1.9292,1.8602,1.7586,1.7117,0.0,0.0,0.0,0.0,0.0,0.0,1.5524,0.0,0.0,0.0,0.0,0.0,0.0,0.0,0.0,0.0,0.0,0.0,0.0,0.0,2.0508,2.2151,2.3581,2.4422,2.4863,2.4653,2.3661,2.2592,2.2231,2.1069,1.997,1.9746,1.9746,1.9867,2.0094,2.0458,2.102,2.1937,2.2752,2.3728,2.505,2.6947,2.8604,2.9731,3.1557,3.2799,3.2906,3.3213,3.3414,3.3414,3.3414,3.3414,3.3414,3.3414,3.3414,3.3414,3.3414,3.3414,3.3414,3.3414,3.3414,3.3414,3.3414,3.3467,3.3601,3.3988,3.4282,3.4509,3.487,3.5097,0.0,3.5191,3.5191,3.5191,3.5191,3.5191,3.5191,3.5191,3.5191,3.5612,0.0,0.0,0.0,0.0,0.0,0.0,0.0,1.0144,1.06,1.0862,1.0693,1.0964,1.2114,1.101,1.0965,1.2912,0.0,0.0,0.0,0.0,0.0,0.0,0.0,0.0,1.4748,1.4813,1.6174,1.8939,2.0117,2.1056,2.1742,2.2821,2.2169,2.0059,1.9629,1.8926,0.0,0.0,0.0,0.0,0.0,0.0,0.0,0.0,0.0,0.0,0.0,0.0,0.0,0.0,0.0,0.0,0.0,0.0,0.0,0.0,0.0,0.0,0.0,2.3434,2.4279,2.4266,2.3238,2.2225,2.2231,2.0975,0.0,2.009,1.996,1.9947,2.0535,2.0672,2.0886,2.1542,2.2138,2.326,2.5291,2.648,2.7963,3.0266,3.131,3.1891,3.2144,3.2919,3.3414,3.3414,3.3414,3.3414,3.3414,3.3414,3.3414,3.3414,3.3414,3.3414,3.3414,3.3414,3.3427,3.344,3.344,3.3614,3.3921,3.3935,3.4255,3.4815,3.4842,3.495,3.5191,3.5191,3.5191,3.5191,3.5191,3.5191,3.5191,3.5191,3.5191,3.5559,0.0,0.0,0.0,0.0,0.0,0.0,0.0,0.0,0.0,0.0,0.9941,1.033,1.1421,1.1222,1.1556,0.0,0.0,0.0,0.0,0.0,0.0,0.0,0.0,0.0,1.5282,1.7193,1.8825,2.0187,2.2378,2.3544,2.3733,2.4361,2.3675,2.1854,2.1093,2.0098,0.0,0.0,0.0,0.0,0.0,0.0,0.0,0.0,0.0,0.0,1.5808,1.6019,0.0,0.0,0.0,0.0,0.0,0.0,0.0,0.0,1.805,1.8557,1.9573,0.0,2.1184,2.0989,2.0811,2.065,0.0,2.0094,1.976,1.9629,1.9548,1.9639,2.0227,2.0304,2.0717,2.2004,2.31,2.4342,2.5959,2.8497,3.0568,3.157,3.2465,3.2933,3.2786,3.316,3.3414,3.3414,3.3414,3.3414,3.3414,3.3414,3.3414,3.3414,3.3414,3.3414,3.3414,3.3414,3.3534,3.3774,3.3774,3.3935,3.4229,3.4456,3.4681,3.4829,3.5004,3.5137,3.5191,3.5191,3.5191,3.5191,3.5191,3.5191,3.5191,3.5191,3.5191,3.5296,0.0,0.0,0.0,0.0,0.0,0.0,0.0,0.0,0.0,0.0,0.0,1.0787,1.1493,1.1768,0.0,0.0,0.0,0.0,0.0,0.0,0.0,0.0,0.0,1.5263,1.636,1.79,1.9707,2.1738,2.334,2.4531,2.5312,2.5352,2.4355,2.2441,2.0996,1.9754,0.0,0.0,0.0,0.0,1.5315,0.0,0.0,0.0,0.0,0.0,1.5808,1.6075,0.0,1.7114,1.7515,1.7796,0.0,0.0,0.0,0.0,1.7288,1.7515,1.7983,1.9145,2.017,2.001,2.009,2.0157,2.004,1.9786,1.9589,1.9428,1.9401,1.9575,2.009,2.0895,2.1657,2.2311,2.4209,2.6119,2.7602,2.9553,3.1142,3.1998,3.2519,3.2906,3.316,3.332,3.3414,3.3414,3.3414,3.3414,3.3414,3.3414,3.3414,3.3414,3.3414,3.3414,3.3414,3.3414,3.3494,3.3668,3.3814,3.4042,3.4336,3.4629,3.4882,3.4963,3.5124,3.5191,3.5191,3.5191,3.5191,3.5191,3.5191,3.5191,3.5191,3.5191,3.5191,3.5191,0.0,0.0,0.0,0.0,0.0,0.0,0.0,0.0,0.0,0.0,0.0,0.0,0.0,0.0,0.0,0.0,0.0,0.0,0.0,0.0,0.0,0.0,1.5508,1.6133,1.7458,1.8027,1.9805,2.2927,2.3789,2.4941,2.6387,2.6245,2.4843,2.236,2.0275,1.8882,0.0,0.0,0.0,0.0,1.4882,0.0,0.0,0.0,0.0,0.0,0.0,0.0,0.0,1.7502,1.7983,1.8304,1.8183,0.0,0.0,0.0,0.0,0.0,1.7193,1.8731,2.0144,1.993,1.9997,2.0117,2.0024,1.972,1.9468,1.9468,1.9495,1.976,2.0584,2.1884,2.2867,2.2939,2.5451,2.7965,2.9406,3.0279,3.1095,3.1984,3.2225,3.2572,3.328,3.3387,3.3414,3.3414,3.3414,3.3414,3.3414,3.3414,3.3414,3.3414,3.3414,3.3414,3.3414,3.3414,3.344,3.3494,3.3801,3.4108,3.4402,3.4696,3.4963,3.5191,3.5191,0.0,3.5191,3.5191,3.5191,3.5191,3.5191,3.5191,3.5191,3.5191,3.5191,3.5191,0.0,0.0,0.0,0.0,0.0,0.0,0.0,0.0,0.0,0.0,0.0,0.0,0.0,0.0,0.0,0.0,0.0,0.0,0.0,0.0,0.0,1.5968,1.5987,1.6598,1.7891,1.9025,2.043,2.207,2.4707,2.6133,2.6426,2.7793,2.6199,2.2156,2.0356,1.8583,1.6871,1.5739,0.0,0.0,1.5116,0.0,0.0,0.0,0.0,0.0,0.0,0.0,0.0,1.6524,1.6926,1.7326,1.6792,0.0,0.0,0.0,0.0,0.0,1.7596,1.9023,1.9903,1.8663,1.9103,1.9733,1.921,1.9439,1.9733,1.9733,1.9933,2.0735,2.288,2.2819,2.3126,2.5128,2.6921,2.8567,3.0065,3.1417,3.2233,3.2104,3.2759,3.3173,3.3053,3.3267,3.3414,3.3414,3.3414,3.3414,3.3414,3.3414,3.3414,3.3414,3.3414,3.3414,3.3414,3.3414,3.3547,3.3814,3.4108,3.4416,3.471,3.5004,3.5151,3.5191,0.0,3.5191,3.5191,3.5191,3.5191,3.5191,3.5191,3.5191,3.5191,3.5191,3.5191,3.5164,0.0,0.0,0.0,0.0,0.0,0.0,0.0,0.0,0.0,0.0,0.0,0.0,0.0,0.0,0.0,0.0,0.0,0.0,0.0,0.0,1.6187,1.7086,1.7575,1.8103,1.8691,2.041,2.207,2.3636,2.6197,2.7539,2.7708,2.6544,2.4491,2.1717,1.9386,1.7526,1.6126,1.5635,1.5206,1.4846,0.0,0.0,0.0,0.0,0.0,0.0,0.0,0.0,0.0,0.0,1.7167,1.7528,1.6966,0.0,0.0,0.0,0.0,0.0,1.7062,1.8263,1.9279,1.921,2.0601,2.1951,2.1971,2.2065,2.2044,2.155,2.1697,2.2251,2.3576,2.4342,2.5732,2.862,2.8981,2.9423,3.0908,3.1417,3.1831,3.2326,3.2692,3.3013,3.32,3.3334,3.3414,3.3414,3.3414,3.3414,3.3414,3.3414,3.3414,3.3414,3.3414,3.3414,3.3414,3.3587,3.3654,3.3641,3.4095,3.4389,3.4536,3.499,3.5191,3.5191,0.0,3.5191,3.5191,3.5191,3.5191,3.5191,3.5191,3.5191,3.5177,3.5017,3.4963,3.4923,0.0,0.0,0.0,0.0,0.0,0.0,0.0,0.0,0.0,0.0,0.0,0.0,0.0,0.0,0.0,0.0,0.0,0.0,0.0,0.0,1.6656,1.7932,1.9041,1.9843,2.0332,2.2051,2.3848,2.5708,2.7539,2.8431,2.8356,2.4882,2.2351,2.0594,1.8265,1.6485,1.5215,1.5288,1.4852,1.4156,0.0,0.0,0.0,0.0,0.0,0.0,0.0,0.0,0.0,0.0,0.0,0.0,0.0,0.0,0.0,1.6275,1.5968,1.6075,1.682,1.7889,1.9092,2.0334,2.1857,2.3322,2.4222,2.4172,2.3901,2.3589,2.3781,2.4182,2.4646,2.6199,2.8283,3.0849,3.0488,3.0327,3.1597,3.1503,3.1637,3.2594,3.2755,3.2969,3.3374,3.3414,3.3414,3.3414,3.3414,3.3414,3.3414,3.3414,3.3414,3.3414,3.3414,3.3454,3.3521,3.3761,3.3721,3.3414,3.4095,3.4389,3.4336,3.4923,3.5191,3.5191,3.5191,3.5191,3.5191,3.5191,3.5191,3.5191,3.5191,3.5151,3.507,3.4895,3.4775,3.4616,0.0,0.0,0.0,0.0,0.0,0.0,0.0,0.0,0.0,0.0,0.0,0.0,0.0,0.0,0.0,0.0,0.0,0.0,0.0,0.0,1.6656,1.7932,1.9608,2.1426,2.3418,2.4004,2.5332,2.7506,2.8418,2.8238,2.6985,2.399,2.1048,1.8311,1.7411,1.5802,1.3776,1.4066,1.4166,1.4156,1.4745,0.0,0.0,0.0,0.0,0.0,0.0,0.0,0.0,0.0,0.0,0.0,0.0,0.0,1.6754,1.6673,1.6446,1.6486,1.7609,1.8783,2.0054,2.1496,2.1376,2.1448,2.3415,2.3607,2.3754,2.505,2.5772,2.6426,2.7268,2.8444,2.9459,2.9967,3.0635,3.133,3.1984,3.2505,3.2853,3.2933,3.3187,3.336,3.3414,3.3414,3.3414,3.3414,3.3414,3.3414,3.3414,3.3414,3.3414,3.3414,3.3414,3.3547,3.3855,3.3881,3.3721,3.3427,3.4309,3.4589,3.4336,3.4923,3.5191,3.5191,3.5191,3.5191,3.5191,3.5191,3.5191,3.5191,3.5191,3.503,3.4842,3.4829,3.4589,3.4309,0.0,0.0,0.0,0.0,0.0,0.0,0.0,0.0,0.0,0.0,0.0,0.0,0.0,0.0,0.0,0.0,0.0,0.0,0.0,1.6059,1.7168,1.873,2.0195,2.2109,2.4554,2.5825,2.7363,2.9238,2.8718,2.733,2.502,2.1907,1.9451,1.7591,1.5929,1.4801,1.4167,1.4122,1.4188,1.4389,1.4825,1.5008,0.0,0.0,0.0,0.0,0.0,0.0,0.0,0.0,1.6246,1.65,1.6222,1.654,1.6939,1.6565,1.6391,1.6471,1.7275,1.8758,2.0334,2.1475,2.2198,2.3268,2.5665,2.6266,2.6519,2.7068,2.7776,2.8364,2.8511,2.9793,3.0822,3.0742,3.1316,3.1971,3.2559,3.2839,3.3053,3.3227,3.3347,3.3414,3.3414,3.3414,3.3414,3.3414,3.3414,3.3414,3.3414,3.3414,3.3414,3.3414,3.3414,3.3561,3.3881,3.4068,3.4095,3.3988,3.4509,3.4603,3.4336,3.4923,3.5191,3.5191,3.5191,3.5191,3.5191,3.5191,3.5191,3.5177,3.5004,3.475,3.4469,3.4282,3.4148,3.4002,0.0,0.0,0.0,0.0,0.0,0.0,0.0,0.0,0.0,0.0,0.0,0.0,0.0,0.0,0.0,0.0,0.0,0.0,1.5396,1.6215,1.7366,1.8828,2.0371,2.2284,2.4633,2.6529,2.8327,3.0,2.83,2.5933,2.2975,2.005,1.815,1.7098,1.5306,1.4656,1.4874,1.4429,1.4389,1.4683,1.4905,1.5039,0.0,0.0,0.0,0.0,0.0,0.0,0.0,0.0,1.6155,1.6406,1.6286,1.6593,1.6966,1.6672,1.6913,1.7381,1.7876,1.9225,2.0815,2.2104,2.3188,2.4623,2.7362,2.7965,2.8152,2.8981,2.9503,2.9726,2.9575,3.0581,3.1356,3.1203,3.1877,3.2519,3.2919,3.3053,3.3187,3.3387,3.3414,3.3414,3.3414,3.3414,3.3414,3.3414,3.3414,3.3414,3.3414,3.3414,3.3414,3.3414,3.3414,3.3561,3.3881,3.4175,3.4322,3.4322,3.471,3.475,3.4469,3.4977,3.5191,3.5191,3.5097,3.5057,3.5057,3.5057,3.5057,3.5044,3.4895,3.4523,3.4162,3.3961,3.3828,3.3708,0.0,0.0,0.0,0.0,0.0,0.0,0.0,0.0,0.0,0.0,0.0,0.0,0.0,0.0,0.0,0.0,0.0,0.0,1.5396,1.6215,1.7077,1.7952,2.0059,2.1991,2.3753,2.5854,2.7806,2.9551,2.7017,2.4068,2.0813,1.8635,1.7261,1.666,1.5792,1.5541,1.5741,1.4874,1.4696,1.4986,1.5022,1.5173,1.5431,0.0,0.0,0.0,0.0,0.0,0.0,0.0,1.6072,1.5968,1.6886,1.6966,1.678,1.7112,1.8251,1.9441,1.9706,2.0441,2.1617,2.3674,2.4222,2.501,2.7949,2.7923,2.8072,3.0688,3.0768,3.0493,3.0742,3.0795,3.0902,3.1183,3.2211,3.2973,3.2986,3.3227,3.3414,3.3414,3.3414,3.3414,3.3414,3.3414,3.3414,3.3414,3.3414,3.3414,3.3414,3.3414,3.3414,3.3414,3.3414,3.3561,3.3881,3.4175,3.4322,3.4336,3.491,3.5044,3.4829,3.5057,3.5191,3.5177,3.4949,3.4815,3.4815,3.4815,3.4802,3.4802,3.4802,3.4402,3.3881,3.3881,3.3681,3.3414,0.0,0.0,0.0,0.0,0.0,0.0,0.0,0.0,0.0,0.0,0.0,0.0,0.0,0.0,0.0,0.0,0.0,0.0,1.5396,1.6215,1.6976,1.7539,1.9336,2.082,2.1952,2.3331,2.4564,2.5667,2.3967,2.1567,1.8554,1.771,1.6886,1.6061,1.6032,1.5832,1.5498,1.503,1.5026,1.5307,1.5484,1.5498,1.5458,0.0,0.0,0.0,0.0,0.0,0.0,0.0,0.0,0.0,1.6471,1.7048,1.7516,1.6994,1.7595,1.8383,1.8277,2.0271,2.2519,2.3148,2.5304,2.7642,2.8925,2.9018,2.9339,3.1156,3.1076,3.0755,3.1049,3.1436,3.1744,3.1824,3.2478,3.3053,3.3253,3.336,3.3414,3.3414,3.3414,3.3414,3.3414,3.3414,3.3414,3.3414,3.3414,3.3414,3.3414,3.3414,3.3414,3.3414,3.3414,3.3561,3.3881,3.4175,3.4429,3.4643,3.5017,3.5044,3.4829,3.5057,3.5191,3.5177,3.4949,3.4815,3.4802,3.4536,3.4336,3.4148,3.4148,3.3908,3.3547,3.3547,3.3494,3.3414,0.0,0.0,0.0,0.0,0.0,0.0,0.0,0.0,1.3437,1.3281,1.4154,1.474,0.0,0.0,0.0,1.5396,1.5396,1.5396,1.5396,1.6215,1.6976,1.7598,1.9102,2.0352,2.1288,2.1527,2.164,2.1664,2.1348,1.9842,1.7235,1.7568,1.7462,1.7035,1.7248,1.7061,1.658,1.5963,1.5775,1.5925,1.5979,1.5965,1.5939,0.0,0.0,0.0,0.0,0.0,0.0,0.0,0.0,0.0,1.6257,1.6767,1.7369,1.7675,1.8477,1.945,2.0468,2.2412,2.4379,2.5436,2.7241,2.9058,3.0114,3.0354,3.0654,3.1537,3.1476,3.137,3.1543,3.2051,3.2452,3.2452,3.2839,3.3213,3.3387,3.3414,3.3414,3.3414,3.3414,3.3414,3.3414,3.3414,3.3414,3.3414,3.3414,3.3414,3.3414,3.3414,3.3414,3.3414,3.3414,3.3561,3.3881,3.4175,3.4469,3.4815,3.5057,3.511,3.4937,3.5124,3.5191,3.5177,3.4763,3.4523,3.4454,3.4215,3.4042,3.3881,3.3881,3.3694,3.3414,3.3414,3.3414,3.3414,0.0,0.0,0.0,0.0,0.0,0.0,0.0,1.3262,1.3379,1.3001,1.3958,1.4531,0.0,0.0,0.0,1.541,1.5396,1.5396,1.5396,1.6215,1.7077,1.7952,1.9337,2.0478,2.1331,2.0297,1.9147,1.7903,1.9098,1.8637,1.6687,1.7916,1.8611,1.881,1.885,1.8691,1.829,1.7114,1.662,1.6607,1.6391,1.6444,1.6593,1.6364,0.0,0.0,0.0,0.0,0.0,0.0,0.0,0.0,1.6179,1.6337,1.6752,1.8639,2.0094,2.1697,2.4409,2.5598,2.672,2.9179,2.9495,2.97,3.1303,3.1738,3.1751,3.1751,3.1917,3.2118,3.2171,3.2612,3.2986,3.3013,3.324,3.3414,3.3414,3.3414,3.3414,3.3414,3.3414,3.3414,3.3414,3.3414,3.3414,3.3414,3.3414,3.3414,3.3414,3.3414,3.3414,3.3414,3.3414,3.3547,3.3841,3.4162,3.4456,3.4775,3.5044,3.5191,3.5191,3.5191,3.5164,3.5084,3.4523,3.4108,3.3841,3.3841,3.3841,3.3841,3.3841,3.3668,3.3414,3.3414,3.3414,3.3414,0.0,0.0,0.0,0.0,0.0,0.0,1.3379,1.3444,1.3477,1.3379,1.3613,1.3854,1.4075,1.4609,0.0,1.5376,1.5396,1.5396,1.5396,1.6215,1.7077,1.7952,2.0234,2.1107,2.0342,1.917,1.79,1.6525,1.6904,1.6843,1.6417,1.7849,1.8397,1.8223,1.8477,1.8156,1.7408,1.642,1.5995,1.6008,1.623,1.6166,1.5981,1.5928,1.5565,0.0,0.0,0.0,0.0,0.0,0.0,0.0,1.6179,1.6643,1.7099,1.7541,1.9308,2.1296,2.2198,2.4686,2.7336,2.8577,3.0007,3.1196,3.1631,3.1851,3.2011,3.2011,3.2064,3.2238,3.2706,3.2893,3.3053,3.328,3.3374,3.3414,3.3414,3.3414,3.3414,3.3414,3.3414,3.3414,3.3414,3.3414,3.3414,3.3414,3.3414,3.3414,3.3414,3.3414,3.3414,3.3414,3.3414,3.344,3.3507,3.4055,3.4349,3.4429,3.495,3.5191,3.5191,3.5191,3.495,3.4482,3.4135,3.3801,3.3507,3.3507,3.3507,3.3507,3.3507,3.3467,3.3414,3.3414,3.3414,3.3414,0.0,0.0,0.0,0.0,0.0,0.0,0.0,0.0,1.3965,1.3542,1.3867,1.4121,1.41,1.4531,0.0,0.0,1.5278,1.5396,1.5396,1.6215,1.735,1.8849,1.9812,1.9823,1.8832,1.7569,1.6263,1.4908,1.5132,1.5534,1.6086,1.7569,1.833,1.8464,1.8771,1.8438,1.7528,1.678,1.638,1.6235,1.642,1.6299,1.6019,1.5861,1.5378,1.475,1.475,0.0,0.0,0.0,0.0,0.0,0.0,0.0,1.6765,1.7903,1.9227,2.0828,2.338,2.5677,2.7764,2.9606,3.0875,3.1751,3.1851,3.1998,3.2185,3.2465,3.2519,3.2612,3.2919,3.3093,3.324,3.3387,3.3414,3.3414,3.3414,3.3414,3.3414,3.3414,3.3414,3.3414,3.3414,3.3414,3.3414,3.3414,3.3414,3.3414,3.3414,3.3414,3.3414,3.3414,3.3414,3.348,3.3641,3.4095,3.4389,3.4536,3.499,3.5124,3.499,3.499,3.467,3.4108,3.3948,3.3708,3.3414,3.3414,3.3414,3.3414,3.3414,3.3414,3.3414,3.3414,3.3414,3.3414,0.0,0.0,0.0,0.0,0.0,0.0,0.0,0.0,0.0,1.3698,1.4238,1.4531,1.4139,1.4453,1.4682,0.0,0.0,0.0,1.5312,1.6332,1.7689,1.9368,1.8958,1.8238,1.7249,1.6026,1.4876,1.3746,1.3988,1.4763,1.6061,1.7355,1.8209,1.8743,1.9,1.8597,1.7742,1.7153,1.6698,1.6406,1.6406,1.6259,1.6029,1.5658,1.5088,1.4487,1.4381,1.4407,1.4581,1.5137,0.0,0.0,0.0,0.0,1.6208,1.8331,1.9227,2.0485,2.4743,2.6694,2.8205,3.1015,3.1711,3.1778,3.1971,3.2104,3.2318,3.2848,3.2995,3.2986,3.304,3.3253,3.3414,3.3414,3.3414,3.3414,3.3414,3.3414,3.3414,3.3414,3.3414,3.3414,3.3414,3.3414,3.3414,3.3414,3.3414,3.3414,3.3414,3.3414,3.3414,3.3414,3.3414,3.3561,3.3881,3.4122,3.4416,3.4815,3.5004,3.4937,3.4668,3.4668,3.4349,3.3881,3.3828,3.3654,3.3414,3.3414,3.3414,3.3414,3.3414,3.3414,3.3414,3.3414,3.3414,3.3414,0.0,0.0,0.0,0.0,0.0,0.0,0.0,0.0,0.0,0.0,1.4114,1.4172,1.4114,1.4153,1.4192,1.4192,1.4609,1.4877,1.4877,0.0,0.0,1.7569,1.8565,1.8184,1.617,1.5435,1.4836,1.4381,1.4188,1.5106,1.7006,1.7461,1.7822,1.8103,1.7916,1.7475,1.6834,1.5992,1.5481,1.5213,1.5213,1.5223,1.5106,1.4544,1.4402,1.4434,1.3906,1.4074,1.4554,1.4932,1.5213,0.0,0.0,0.0,1.5968,1.682,1.8517,2.0428,2.1903,2.5315,2.8951,3.1176,3.1711,3.1724,3.1764,3.2166,3.2554,3.2634,3.2848,3.3053,3.3307,3.3387,3.3414,3.3414,3.3414,3.3414,3.3414,3.3414,3.3414,3.3414,3.3414,3.3414,3.3414,3.3414,3.3414,3.3414,3.3414,3.3414,3.3414,3.3414,3.3414,3.3414,3.3414,3.3561,3.3881,3.3921,3.4215,3.4815,3.4855,3.4588,3.4002,3.4002,3.3961,3.3868,3.3587,3.3454,3.3414,3.3414,3.3414,3.3414,3.3414,3.3414,3.3414,3.3414,3.3414,3.3454,0.0,0.0,0.0,0.0,0.0,0.0,0.0,0.0,0.0,0.0,0.0,1.44,1.4133,1.41,1.4016,1.3782,1.4166,1.4629,1.5098,1.5917,1.652,1.6846,1.6494,1.5905,1.5069,1.4219,1.3836,1.4007,1.3874,1.4977,1.7206,1.7326,1.7876,1.8744,1.8116,1.7595,1.7114,1.5912,1.5324,1.5213,1.5053,1.5504,1.6107,1.4803,1.4923,1.5578,1.4335,1.4055,1.4349,1.4839,1.5079,1.5253,1.5661,0.0,0.0,0.0,1.7461,1.9267,2.2653,2.6012,2.9098,3.1203,3.1711,3.1805,3.2139,3.2407,3.2688,3.3009,3.3133,3.3253,3.3387,3.3414,3.3414,3.3414,3.3414,3.3414,3.3414,3.3414,3.3414,3.3414,3.3414,3.3414,3.3414,3.3414,3.3414,3.3414,3.3414,3.3414,3.3414,3.3414,3.3414,3.3414,3.3414,3.3561,3.3881,3.4055,3.4429,3.5004,3.4895,3.4536,3.4122,3.3961,3.3788,3.3614,3.3467,3.3414,3.3414,3.3414,3.3414,3.3414,3.3414,3.3414,3.3414,3.3414,3.3521,3.3668,0.0,0.0,0.0,0.0,0.0,0.0,0.0,0.0,0.0,0.0,0.0,1.4785,1.4342,0.0,0.0,0.0,1.3763,1.4227,1.4907,1.501,1.5221,1.5601,1.4464,1.3852,1.387,1.3078,1.2992,1.36,1.37,1.5003,1.7408,1.7474,1.8304,1.9682,1.8624,1.7822,1.7193,1.6005,1.5471,1.5404,1.5508,1.6228,1.7112,1.6192,1.6555,1.7355,1.5444,1.4865,1.4999,1.4986,1.5062,1.5186,1.5648,1.5808,0.0,0.0,0.0,1.8117,2.292,2.5571,2.7655,3.0247,3.1055,3.139,3.2273,3.2541,3.2741,3.32,3.336,3.3414,3.3414,3.3414,3.3414,3.3414,3.3414,3.3414,3.3414,3.3414,3.3414,3.3414,3.3414,3.3414,3.3414,3.3414,3.3414,3.3414,3.3414,3.3414,3.3414,3.3414,3.3414,3.3414,3.3414,3.3561,3.3881,3.4255,3.4536,3.4736,3.4683,3.4456,3.4082,3.3868,3.3641,3.3414,3.3414,3.3414,3.3414,3.3414,3.3414,3.3414,3.3414,3.3414,3.3427,3.3507,3.3627,3.3761,0.0,0.0,0.0,0.0,0.0,0.0,0.0,0.0,0.0,0.0,0.0,1.5215,1.4819,1.4361,1.3938,1.3535,1.3522,1.359,1.3685,1.4454,1.4312,1.2963,1.3174,0.0,1.2429,1.2336,1.274,1.36,1.3921,1.5418,1.7982,1.829,1.9227,2.0579,1.9105,1.7702,1.6337,1.5965,1.5621,1.5498,1.6618,1.7125,1.738,1.8918,1.9746,1.9717,1.7408,1.6927,1.718,1.5558,1.5173,1.5431,1.5701,1.5808,1.5808,0.0,0.0,0.0,2.086,2.2231,2.3679,2.7749,2.9179,3.0047,3.1744,3.2393,3.2688,3.2933,3.3213,3.3414,3.3414,3.3414,3.3414,3.3414,3.3414,3.3414,3.3414,3.3414,3.3414,3.3414,3.3414,3.3414,3.3414,3.3414,3.3414,3.3414,3.3414,3.3414,3.3414,3.3414,3.3414,3.3414,3.3414,3.3561,3.3881,3.4507,3.4322,3.3507,3.4068,3.4028,3.3454,3.344,3.3427,3.3414,3.3414,3.3414,3.3414,3.3414,3.3414,3.3414,3.3414,3.3414,3.3454,3.3748,3.3681,3.3521,0.0,0.0,0.0,0.0,0.0,0.0,0.0,0.0,0.0,0.0,0.0,0.0,0.0,1.4648,1.4171,1.3196,1.2922,1.3021,1.3575,1.3647,1.3628,1.347,1.3106,1.2711,1.231,1.2305,1.2726,1.36,1.3727,1.5057,1.7501,1.7608,1.8251,1.9252,1.8759,1.8196,1.7635,1.6166,1.5605,1.5755,1.6979,1.8143,1.9158,1.9455,2.0552,2.1649,1.9281,1.8077,1.7541,1.7088,1.6259,1.5444,1.5715,1.5808,1.5808,1.5808,1.638,1.7515,1.9829,2.1269,2.2819,2.5638,2.7642,2.9232,3.0421,3.1664,3.2728,3.316,3.3334,3.3414,3.3414,3.3414,3.3414,3.3414,3.3414,3.3414,3.3414,3.3414,3.3414,3.3414,3.3414,3.3414,3.3414,3.3414,3.3414,3.3414,3.3414,3.3414,3.3414,3.3414,3.3414,3.3414,3.3414,3.3654,3.4162,3.4376,3.4416,3.4282,3.4122,3.3935,3.3708,3.3507,3.3414,3.3414,3.3414,3.3414,3.3414,3.3414,3.3414,3.3414,3.3414,3.3534,3.3708,3.3614,3.3761,3.3975,0.0,0.0,0.0,1.4322,0.0,1.3698,1.3698,1.4055,1.4367,1.4523,0.0,0.0,0.0,0.0,1.3813,1.2727,1.2562,1.2596,1.2755,1.2659,1.2727,1.3039,1.2562,1.228,1.231,1.2305,1.2639,1.3327,1.3507,1.4674,1.6739,1.6926,1.7555,1.8477,1.8197,1.8156,1.825,1.6754,1.6192,1.6433,1.8224,1.9332,2.0054,2.1056,2.2131,2.2792,2.1029,1.9977,1.9374,1.9252,1.8504,1.7515,1.6995,1.6368,1.5808,1.5808,1.6313,1.7153,1.841,1.9693,2.1256,2.375,2.5518,2.7268,2.9553,3.0889,3.1971,3.304,3.3347,3.3414,3.3414,3.3414,3.3414,3.3414,3.3414,3.3414,3.3414,3.3414,3.3414,3.3414,3.3414,3.3414,3.3414,3.3414,3.3414,3.3414,3.3414,3.3414,3.3414,3.3414,3.3414,3.3414,3.3414,3.3601,3.4015,3.4122,3.4215,3.4309,3.4028,3.3828,3.3721,3.3507,3.3414,3.3414,3.3414,3.3414,3.3414,3.3414,3.3414,3.3427,3.3534,3.3641,3.3721,3.3721,3.3841,3.3988,0.0,1.412,1.4289,1.476,1.4439,1.4139,1.4153,1.4523,1.4952,1.5332,0.0,0.0,0.0,0.0,0.0,1.221,1.2543,1.2318,1.1226,1.1553,1.1694,1.1461,1.1436,1.1686,1.2291,1.2305,1.247,1.2803,1.3347,1.4332,1.5781,1.6393,1.7301,1.8384,1.7555,1.7462,1.7929,1.7662,1.7408,1.7474,2.0395,2.0726,1.995,2.3968,2.4649,2.3359,2.2745,2.2712,2.2813,2.1984,2.181,2.155,1.9506,1.7436,1.5808,1.5808,1.6046,1.6364,0.0,0.0,0.0,2.197,2.28,2.4138,2.9075,2.998,3.0408,3.2478,3.3133,3.336,3.34,3.3414,3.3414,3.3414,3.3414,3.3414,3.3414,3.3414,3.3414,3.3414,3.3414,3.3414,3.3414,3.3414,3.3414,3.3414,3.3414,3.3414,3.3414,3.3414,3.3414,3.3414,3.3414,3.3414,3.3427,3.3721,3.3721,3.3427,3.3734,3.3708,3.3414,3.3414,3.3414,3.3414,3.3414,3.3414,3.3414,3.3414,3.3414,3.344,3.3748,3.3694,3.3494,3.4082,3.3935,3.3521,1.4094,1.4601,1.5195,1.5654,1.5352,1.5142,1.5503,1.5091,1.4842,0.0,0.0,0.0,0.0,0.0,0.0,1.3147,1.2703,1.2378,1.2276,1.1793,1.1851,1.259,1.2077,1.1917,1.2291,1.2305,1.247,1.2803,1.3347,1.4026,1.4874,1.5484,1.6166,1.6913,1.6872,1.6927,1.7022,1.6502,1.6754,1.7648,1.9548,2.1056,2.2432,2.4436,2.5904,2.6774,2.6172,2.5157,2.4168,2.4356,2.2485,1.9803,1.7903,1.6608,1.5808,1.5808,1.6168,1.6553,1.6458,0.0,0.0,0.0,0.0,0.0,2.4703,2.652,2.8323,3.0654,3.1476,3.2158,3.3213,3.3414,3.3414,3.3414,3.3414,3.3414,3.3414,3.3414,3.3414,3.3414,3.3414,3.3414,3.3414,3.3414,3.3414,3.3414,3.3414,3.3414,3.3414,3.3414,3.3414,3.3414,3.3414,3.3521,3.3748,3.3614,3.3614,3.3761,3.3614,3.3494,3.3414,3.3414,3.3414,3.3414,3.3414,3.3414,3.3414,3.3414,3.3414,3.3414,3.3507,3.3627,3.3748,3.3681,3.3841,3.4068,1.44,1.5098,1.5894,1.6535,1.6132,1.5947,1.6578,1.5674,1.5087,0.0,0.0,0.0,0.0,0.0,0.0,1.3586,1.2909,1.253,1.253,1.1816,1.1764,1.2558,1.2253,1.2203,1.2497,1.2612,1.2759,1.2985,1.3393,1.384,1.4349,1.4816,1.5284,1.5762,1.5922,1.6046,1.6139,1.5768,1.6393,1.7822,2.0281,2.179,2.2853,2.5155,2.6399,2.6934,2.7215,2.6453,2.5531,2.6613,2.4329,2.0788,1.9492,1.7929,1.6486,1.6126,1.6513,1.7007,1.6739,1.7127,1.7769,1.8424,0.0,0.0,2.3901,2.5571,2.7348,3.0448,3.145,3.2078,3.3053,3.3227,3.3267,3.3387,3.3414,3.3414,3.3414,3.3414,3.3414,3.3414,3.3414,3.3414,3.3414,3.3414,3.3414,3.3414,3.3414,3.3414,3.3414,3.3414,3.3414,3.3414,3.3414,3.3494,3.3681,3.3507,3.3507,3.3681,3.3494,3.3414,3.3414,3.3414,3.3414,3.3414,3.3414,3.3414,3.3414,3.3414,3.3414,3.344,3.3694,3.3748,3.3694,3.3761,3.3935,3.4148,0.0,1.5561,1.6457,1.7108,1.6764,1.6651,1.7421,1.6254,1.5545,0.0,1.5393,0.0,0.0,0.0,0.0,0.0,1.3327,1.2824,1.2425,1.1859,1.169,1.1993,1.227,1.2551,1.2837,1.3106,1.3227,1.316,1.344,1.374,1.4022,1.4301,1.4616,1.4892,1.4919,1.5093,1.5351,1.5484,1.6446,1.817,2.1577,2.2539,2.2372,2.5944,2.664,2.5838,2.7215,2.7322,2.6987,2.8334,2.6547,2.3594,2.2632,2.0428,1.801,1.6792,1.718,1.7903,1.7448,1.7541,0.0,1.908,1.8973,0.0,2.4489,2.5529,2.6533,3.0287,3.1417,3.1805,3.2211,3.2318,3.2425,3.2692,3.2946,3.3187,3.3387,3.3414,3.3414,3.3414,3.3414,3.3414,3.3414,3.3414,3.3414,3.3414,3.3414,3.3414,3.3414,3.3414,3.3414,3.3414,3.3414,3.3414,3.3414,3.3414,3.3414,3.3414,3.3414,3.3414,3.3414,3.3414,3.3414,3.3414,3.3414,3.3414,3.3414,3.3454,3.344,3.3467,3.4002,3.3908,3.3534,3.4068,3.4148,3.4055,1.4863,1.6034,1.6933,1.6245,1.6927,1.7605,1.772,1.6619,1.6087,1.6989,1.6608,0.0,0.0,0.0,0.0,0.0,1.4621,1.3854,1.306,1.2711,1.2556,1.2628,1.2885,1.3066,1.312,1.3393,1.33,1.2878,1.3353,1.3507,1.34,1.3921,1.4202,1.429,1.4509,1.4776,1.5133,1.6046,1.7716,1.973,2.0281,2.2058,2.4633,2.6573,2.8165,2.9436,2.9913,2.9726,2.9058,2.7976,2.7162,2.5984,2.276,2.1951,2.1563,1.829,1.8798,2.0107,1.8624,1.8437,1.8689,1.8945,1.9105,0.0,2.0201,2.1243,2.2552,2.4338,2.5329,2.6279,2.7749,2.8217,2.8446,2.85,3.006,3.1797,3.3213,3.3414,3.3414,3.3414,3.3414,3.3414,3.3414,3.3414,3.3414,3.3414,3.3414,3.3414,3.3414,3.3414,3.3414,3.3414,3.3414,3.3414,3.3414,3.3414,3.3414,3.3414,3.3414,3.3414,3.3414,3.3414,3.3414,3.3414,3.3414,3.3414,3.3427,3.3694,3.3641,3.3427,3.3547,3.3668,3.3814,3.3921,3.4229,3.4668,1.5289,1.5958,1.666,1.6862,1.73,1.783,1.8503,1.743,1.6817,1.7535,1.7748,0.0,0.0,0.0,0.0,0.0,0.0,0.0,1.3887,1.3327,1.2992,1.2992,1.3133,1.3347,1.3641,1.3788,1.3788,1.3648,1.362,1.3533,1.342,1.37,1.4496,1.5601,1.4843,1.5337,1.6725,1.6393,1.7288,1.9105,2.1323,2.3888,2.6573,2.835,2.9673,3.0641,3.0742,3.0608,3.0167,2.8991,2.7602,0.0,2.486,2.383,2.2605,2.008,2.0388,2.1162,1.9428,1.9067,1.9172,1.9332,1.9359,0.0,0.0,2.0909,2.1903,2.3794,2.4302,2.4823,2.6146,2.6546,2.6707,2.6841,2.8818,3.0354,3.0341,3.2118,3.3414,3.3414,3.3414,3.3414,3.3414,3.3414,3.3414,3.3414,3.3414,3.3414,3.3414,3.3414,3.3414,3.3414,3.3414,3.3414,3.3414,3.3414,3.3414,3.3414,3.3414,3.3414,3.3414,3.3414,3.3414,3.3414,3.3414,3.3414,3.3427,3.3587,3.3547,3.344,3.3748,3.3868,3.3921,3.4215,3.4509,3.4842,1.5394,1.5707,1.6281,1.7235,1.7417,1.7755,1.8822,1.796,1.7408,1.8022,1.881,1.9092,0.0,0.0,0.0,0.0,0.0,0.0,1.515,1.4335,1.386,1.386,1.354,1.3761,1.4576,1.4255,1.4148,1.4247,1.3746,1.3514,1.346,1.3547,1.4661,1.6563,1.5605,1.6275,1.8076,1.7075,1.7515,1.9199,2.3105,2.5478,2.6854,2.9219,3.0181,3.0341,3.0795,3.0955,3.0835,3.002,2.8121,2.6226,2.644,2.5382,2.3603,2.1537,2.1844,2.2378,2.0298,1.9856,1.999,1.996,1.995,2.0164,0.0,0.0,0.0,2.3834,2.3879,2.3861,2.4673,2.4807,2.4874,2.5048,2.7121,2.8177,2.66,2.9686,3.2185,3.2291,3.2866,3.316,3.2933,3.2853,3.2986,3.3387,3.3053,3.3,3.3387,3.3414,3.3414,3.3414,3.3414,3.3414,3.3414,3.3414,3.3414,3.3414,3.3414,3.3414,3.3414,3.3414,3.3414,3.3414,3.3414,3.3414,3.3414,3.3414,3.3414,3.3454,3.3948,3.4068,3.4028,3.4444,3.475,3.4936,1.4368,1.5567,1.6328,1.5483,1.6718,1.7741,1.7497,1.7296,1.7488,1.833,1.9853,2.0922,2.1114,2.1368,2.1443,2.1349,0.0,0.0,1.7381,1.6647,1.6313,1.6313,1.4816,1.475,1.6366,1.4883,1.3854,1.334,1.3273,1.312,1.2904,1.3367,1.39,1.4544,1.6662,1.7342,1.7034,1.8903,2.1144,2.3541,2.4596,2.4062,2.3041,2.6426,2.8031,2.8754,3.0868,3.1617,3.1316,0.0,2.8868,2.8028,2.4759,2.5705,2.6947,2.1798,2.2966,2.5157,2.1817,2.1483,2.183,2.0828,2.1167,2.1269,1.9639,0.0,2.0224,1.9743,0.0,2.011,2.0428,0.0,0.0,2.0231,2.2626,2.4115,2.3113,2.5625,2.7762,2.8283,3.0935,3.2286,3.1196,3.0908,3.1463,3.328,3.173,3.1503,3.3307,3.3414,3.3414,3.3414,3.3414,3.3414,3.3414,3.3414,3.3414,3.3414,3.3414,3.3414,3.3414,3.3414,3.3414,3.3414,3.3414,3.3414,3.3414,3.3414,3.3414,3.3414,3.3494,3.3828,3.4282,3.4349,3.4696,3.5151,1.4265,1.4962,1.5383,1.5242,1.6344,1.7263,1.7418,1.8277,1.9078,1.9452,2.0441,2.1096,2.1074,2.0886,2.0922,2.143,2.0989,2.0013,1.8464,1.7796,1.7062,1.6208,1.4981,1.4843,1.5925,1.4723,1.3982,1.3721,1.322,1.2918,1.2816,1.334,1.4501,1.6217,1.8009,1.9466,2.0557,2.1197,2.1811,2.2498,2.3621,2.3233,2.2552,2.7857,3.0025,3.036,3.1363,3.1711,3.1604,0.0,2.9205,0.0,2.803,2.7081,2.5504,2.3995,2.4062,2.4102,2.175,2.1971,2.2585,2.1269,2.171,0.0,1.9693,0.0,1.9383,0.0,0.0,0.0,0.0,0.0,0.0,0.0,2.1149,2.2191,2.0584,2.322,2.5772,2.7041,2.839,2.9499,3.0221,3.0327,3.1189,3.3026,3.157,3.1436,3.3307,3.3414,3.3414,3.3414,3.3414,3.3414,3.3414,3.3414,3.3414,3.3414,3.3414,3.3414,3.3414,3.3414,3.3414,3.3414,3.3414,3.3414,3.3414,3.3414,3.3414,3.3414,3.3414,3.3681,3.4095,3.4255,3.4482,3.4683,1.4205,1.4358,1.4474,1.5164,1.5939,1.674,1.7569,1.8903,1.993,2.017,2.0851,2.1363,2.1403,2.1456,2.1804,2.2605,2.2699,2.2158,2.0708,1.9666,1.8811,1.8129,1.5941,1.5418,1.6807,1.503,1.4103,1.4103,1.3286,1.2958,1.3019,1.35,1.4848,1.6979,1.8906,2.0842,2.2705,2.3078,2.322,2.3247,2.4249,2.469,2.5197,2.9285,3.1183,3.1711,3.1711,3.1711,3.1644,3.1116,2.9245,0.0,2.9566,2.7923,2.5331,2.5944,2.5571,2.4583,2.2571,2.2945,2.3439,2.1577,0.0,0.0,0.0,0.0,0.0,0.0,0.0,0.0,0.0,0.0,0.0,0.0,0.0,2.0508,1.8691,2.0869,2.3193,2.4716,2.5545,2.6734,0.0,2.8738,2.965,3.1851,3.0728,3.0929,3.3173,3.3374,3.3414,3.3414,3.3414,3.3414,3.3414,3.3414,3.3414,3.3414,3.3414,3.3414,3.3414,3.3414,3.3414,3.3414,3.3414,3.3414,3.3414,3.3414,3.3414,3.3414,3.3414,3.3547,3.3788,3.4095,3.4255,3.4322,1.399,1.3854,1.3927,1.4852,1.5471,1.6315,1.7782,1.8516,1.9236,2.009,2.1243,2.2285,2.3118,2.4743,2.6038,2.6587,2.7456,2.7081,2.5048,2.2979,2.2485,2.3875,1.8437,1.6981,2.0458,1.631,1.4103,1.4103,1.3494,1.3327,1.3586,1.3935,1.4451,1.5263,1.8986,2.0842,2.1363,2.4209,2.656,2.835,2.8125,2.9557,3.1557,2.9486,2.994,3.1711,3.1711,0.0,0.0,2.97,2.9001,0.0,0.0,0.0,0.0,2.6867,2.7762,2.8591,0.0,0.0,0.0,2.183,0.0,0.0,0.0,0.0,2.0498,0.0,0.0,0.0,0.0,0.0,0.0,0.0,0.0,0.0,0.0,1.8077,1.9011,1.992,2.2331,2.4486,0.0,2.5064,2.5852,0.0,2.8484,2.9325,3.2812,3.3253,3.3414,3.3414,3.3414,3.3414,3.3414,3.3414,3.3414,3.3414,3.3414,3.3414,3.3414,3.3414,3.3414,3.3414,3.3414,3.3414,3.3414,3.3414,3.3414,3.3414,3.3414,3.3414,3.3467,3.3788,3.4082,3.4322,1.4611,1.4611,1.4638,1.4932,1.5444,1.6302,1.7782,1.901,2.0321,2.1777,2.2706,2.3696,2.4967,2.5636,2.6386,2.7321,2.7669,2.7349,2.6026,2.4209,2.3429,2.3901,1.976,1.8277,2.0054,1.7127,1.5267,1.4691,1.4082,1.3935,1.4207,1.4544,1.5106,1.6003,1.9426,2.1884,2.3545,2.5758,2.7349,2.8353,2.8417,2.9566,3.1209,0.0,3.1476,3.2273,3.2024,3.1957,0.0,3.1049,3.0007,2.9095,2.97,2.8684,2.7402,2.7976,2.7802,2.7241,0.0,0.0,2.7054,2.3941,0.0,0.0,0.0,0.0,0.0,0.0,0.0,0.0,0.0,0.0,0.0,0.0,0.0,0.0,0.0,1.7114,1.7488,1.801,2.0766,2.2746,0.0,0.0,0.0,0.0,2.8821,0.0,3.2826,3.3066,3.3213,3.34,3.3414,3.3414,3.3414,3.3414,3.3414,3.3414,3.3414,3.3414,3.3414,3.3414,3.3414,3.3414,3.3414,3.3414,3.3414,3.3414,3.3414,3.3414,3.3414,3.3414,3.3427,3.3534,3.3627,3.3721,1.5231,1.5271,1.5271,1.5271,1.5925,1.6862,1.8143,1.9663,2.1296,2.3,2.383,2.4834,2.6305,2.6747,2.7322,2.8243,2.8617,2.8243,2.6934,2.5798,2.5155,2.5061,2.2064,2.0922,2.2124,1.9212,1.7327,1.6551,1.5534,1.5057,1.515,1.536,1.5869,1.6725,1.9348,2.2031,2.4719,2.652,2.8192,2.9624,2.9887,3.0635,3.1637,0.0,3.2211,3.2005,0.0,3.2265,3.2238,3.2099,3.1223,3.0461,3.1503,3.0261,2.8631,2.9673,2.9165,2.819,2.7856,2.847,0.0,2.5692,2.5411,0.0,2.1884,0.0,2.1764,0.0,0.0,0.0,0.0,0.0,0.0,0.0,0.0,0.0,0.0,1.6647,1.678,1.6993,1.9053,0.0,0.0,0.0,0.0,0.0,0.0,0.0,0.0,3.2969,3.3106,3.34,3.3414,3.3414,3.3414,3.3414,3.3414,3.3414,3.3414,3.3414,3.3414,3.3414,3.3414,3.3414,3.3414,3.3414,3.3414,3.3414,3.3414,3.3414,3.3414,3.3414,3.3414,3.3414,3.3414,3.3427,1.5848,1.5888,1.5915,1.5928,1.6887,1.7929,1.8823,2.0481,2.2198,2.3736,2.4727,2.5812,2.7322,2.8203,2.8938,2.9499,3.0314,2.9953,2.7976,2.7789,2.7655,2.7483,2.5208,2.474,2.6413,2.2432,2.004,1.9508,1.7622,1.6607,1.6391,1.6277,1.6559,1.7196,1.8549,2.108,2.4449,2.6348,2.9007,3.1965,3.2147,3.2349,3.2511,3.2577,3.1802,3.0843,3.2144,3.2621,3.2607,3.2594,3.2594,3.2541,3.2211,3.2118,3.2064,3.1845,3.1764,3.1457,3.0007,2.9619,2.9125,2.7068,2.6533,0.0,0.0,0.0,2.4168,0.0,0.0,0.0,0.0,0.0,0.0,0.0,0.0,0.0,0.0,0.0,0.0,0.0,0.0,0.0,0.0,0.0,0.0,0.0,0.0,2.7978,0.0,3.2755,3.2986,3.3374,3.34,3.3414,3.3414,3.3414,3.3414,3.3414,3.3414,3.3414,3.3414,3.3414,3.3414,3.3414,3.3414,3.3414,3.3414,3.3414,3.3414,3.3414,3.3414,3.3414,3.3414,3.3414,3.3414,3.3454,1.6526,1.6995,1.7516,1.7769,1.8063,1.8624,1.9703,2.139,2.3335,2.5438,2.6881,2.8257,2.9726,3.01,3.0287,3.0448,3.0662,3.0568,3.0034,2.8978,2.8831,2.9847,2.7215,2.6239,2.7335,2.3541,2.1349,2.1052,1.8358,1.7247,1.7529,1.5929,1.5521,1.6064,1.5805,1.7445,2.0631,2.3692,2.68,2.9526,2.7581,2.6408,2.5972,0.0,2.773,2.8798,3.1822,3.2915,3.2888,3.2661,3.2594,3.2581,3.25,3.2474,3.246,3.2393,3.2367,3.2286,3.1912,3.1597,3.1036,2.9419,2.8524,2.7589,0.0,0.0,0.0,0.0,0.0,0.0,0.0,0.0,0.0,0.0,0.0,0.0,0.0,0.0,0.0,1.7006,0.0,0.0,0.0,0.0,0.0,0.0,0.0,0.0,3.2038,0.0,3.1209,3.3026,3.3293,3.3414,3.3414,3.3414,3.3414,3.3414,3.3414,3.3414,3.3414,3.3414,3.3414,3.3414,3.3414,3.3414,3.3414,3.3414,3.3414,3.3414,3.3414,3.3414,3.3414,3.3414,3.3414,3.3427,1.7302,1.8289,1.9252,1.9412,2.0201,2.0935,2.1323,2.2251,2.379,2.6253,2.7642,2.8871,3.0087,3.0795,3.1169,3.1169,3.1169,3.0849,3.0074,2.998,2.9967,3.002,2.9045,2.8738,2.9232,2.6373,0.0,2.2899,2.0365,1.8746,1.7955,1.5917,1.5263,1.5736,1.4953,1.6052,1.8755,2.2314,2.498,2.6704,2.5476,2.4699,0.0,2.5052,2.5869,2.7014,2.9007,3.1227,3.3146,3.2973,3.2969,3.2955,3.2822,3.2781,3.2755,3.2634,3.2594,3.2594,3.2594,3.2474,3.2104,3.1276,3.0595,2.9713,2.811,2.7762,2.7696,0.0,2.7122,2.6894,0.0,0.0,0.0,0.0,0.0,0.0,0.0,0.0,0.0,0.0,0.0,0.0,0.0,0.0,0.0,0.0,0.0,0.0,0.0,2.9659,3.0434,3.2532,3.2759,3.3026,3.3414,3.316,3.316,3.3414,3.3414,3.3414,3.3414,3.3414,3.3414,3.3414,3.3414,3.3414,3.3414,3.3414,3.3414,3.3414,3.3414,3.3414,3.3414,3.3414,3.3414,3.3414,1.8196,1.9573,2.0766,2.0766,2.2479,2.3763,2.3455,2.3549,2.4476,2.6854,2.8045,2.8941,2.9731,3.0902,3.1711,3.1711,3.1711,3.1022,2.9442,3.0849,3.1022,2.9402,3.0635,3.1283,3.1289,2.9158,2.6871,0.0,2.1976,1.9654,1.7427,1.5552,1.4878,1.5269,1.4518,1.5554,1.8097,2.1088,2.2902,2.3734,2.405,2.4248,2.4369,2.4369,2.4652,2.5071,2.5071,2.8464,3.2902,3.2902,3.3126,3.3374,3.312,3.304,3.2986,3.2781,3.2701,3.2701,3.2701,3.2688,3.2648,3.2648,3.2433,3.1757,3.0234,2.9659,2.9402,2.9402,2.8177,2.7936,0.0,0.0,0.0,0.0,0.0,0.0,0.0,0.0,0.0,0.0,0.0,0.0,0.0,0.0,0.0,0.0,0.0,0.0,0.0,0.0,2.99,3.2091,3.2198,3.2559,3.3293,3.2929,3.2929,3.3293,3.3374,3.3414,3.3414,3.3414,3.3414,3.3414,3.3414,3.3414,3.3414,3.3414,3.3414,3.3414,3.3414,3.3414,3.3414,3.3414,3.3414,3.3414,1.9132,2.016,2.1029,2.1029,2.2752,2.4583,2.5919,2.6961,2.7936,2.8898,3.0253,3.1162,3.131,3.1564,3.1711,3.1711,3.1711,3.1591,3.1223,3.1717,3.1784,3.1236,3.169,3.1837,3.1644,2.7519,2.4776,0.0,1.874,1.5782,1.4575,1.2694,1.1909,1.2069,1.1237,1.3514,1.7931,1.7153,1.8733,2.1604,1.9444,1.8659,1.8806,1.8806,2.0196,2.2229,2.2229,2.5637,3.0187,3.0187,3.1592,3.34,3.3347,3.3334,3.332,3.328,3.3253,3.3253,3.3253,3.3093,3.2955,3.2955,3.2728,3.2433,3.2126,3.1784,3.157,3.157,3.1129,3.0467,2.9339,0.0,0.0,0.0,0.0,0.0,0.0,0.0,0.0,0.0,0.0,0.0,0.0,0.0,0.0,0.0,0.0,0.0,0.0,0.0,2.7924,0.0,3.2755,3.2835,0.0,0.0,3.3066,3.2755,3.3187,3.3414,3.3414,3.3414,3.3414,3.3414,3.3414,3.3414,3.3414,3.3414,3.3414,3.3414,3.3414,3.3414,3.3414,3.3414,3.3414,3.3414,2.1154,2.1662,2.2258,2.3033,2.4743,2.6507,2.7976,2.9593,3.0421,2.9793,3.0507,3.1042,3.1042,3.1724,3.2166,3.2166,3.2166,3.2166,3.2166,3.23,3.2313,3.2179,3.2313,3.2198,3.1904,2.8352,2.5456,2.3356,0.0,1.5779,1.3854,1.1917,1.1069,1.1193,1.0995,1.2546,1.5278,1.5558,1.68,1.8532,1.7643,1.7405,1.7487,1.7487,1.839,1.9636,1.9636,2.2135,2.5914,2.8777,3.0488,3.1617,3.3187,3.3547,3.3414,3.3414,3.3414,3.3414,3.3414,3.3307,3.32,3.32,3.2986,3.2822,3.2822,3.2594,3.2291,3.2131,3.1984,3.1223,2.9018,2.68,0.0,0.0,0.0,0.0,0.0,0.0,0.0,0.0,0.0,0.0,0.0,0.0,0.0,0.0,0.0,0.0,0.0,2.5932,2.7321,0.0,0.0,0.0,3.2808,0.0,3.2973,3.3,3.328,3.3414,3.3414,3.3414,3.3414,3.3414,3.3414,3.3414,3.3414,3.3414,3.3414,3.3414,3.3414,3.3414,3.3414,3.3414,3.3414,3.3414,2.1725,2.1951,2.2416,2.3704,2.5834,2.7521,2.7877,3.014,3.1478,3.057,3.0675,3.0868,3.0868,3.1898,3.2594,3.2594,3.2594,3.2594,3.2594,3.2648,3.2661,3.2594,3.2648,3.2248,3.135,2.8726,2.5764,0.0,0.0,1.5724,1.3175,1.145,1.0847,1.1256,1.1698,1.2415,1.3416,0.0,1.6119,1.6476,1.7182,1.7507,1.7649,1.7649,1.7758,1.7915,1.7915,1.9192,2.1703,2.67,2.8503,2.9198,3.2136,3.2913,3.2805,3.332,3.3507,3.3494,3.3427,3.3414,3.3414,3.3414,3.324,3.3066,3.3066,3.2888,3.2621,3.2332,3.2185,3.1383,2.9045,2.7629,0.0,0.0,0.0,0.0,0.0,0.0,0.0,0.0,0.0,0.0,0.0,0.0,0.0,0.0,0.0,0.0,2.5665,2.5504,2.7028,3.0742,3.1142,3.1597,3.2225,0.0,3.2942,3.3227,3.336,3.3414,3.3414,3.3414,3.3414,3.3414,3.3414,3.3414,3.3414,3.3414,3.3414,3.3414,3.3414,3.3414,3.3414,3.3414,3.3414,3.3414,1.828,1.8796,1.9344,1.9906,2.3534,2.5548,2.318,2.645,2.9996,3.2054,3.2367,3.2393,3.2393,3.2514,3.2594,3.2594,3.2594,3.2594,3.2594,3.2835,3.2875,3.2607,3.2848,3.1627,2.8792,2.6199,2.2854,0.0,0.0,1.2625,1.0967,1.0114,1.0453,1.1758,1.2115,1.341,0.0,1.5765,1.649,1.7453,1.7541,1.7717,1.7846,1.7846,1.7902,1.7915,1.7915,1.8074,1.8755,2.1904,2.4271,2.6462,2.9463,3.0335,3.0793,3.3183,3.3841,3.3788,3.3494,3.3414,3.3414,3.3414,3.3387,3.3374,3.3374,3.3146,3.2933,3.2906,3.2478,3.1383,2.9045,2.9967,3.0127,0.0,0.0,0.0,0.0,0.0,0.0,0.0,0.0,0.0,0.0,0.0,0.0,0.0,2.0726,0.0,0.0,0.0,2.6187,2.9539,2.9927,2.9993,2.9806,3.2144,3.3093,3.2688,3.316,3.3414,3.3414,3.3414,3.3414,3.3414,3.3414,3.3414,3.3414,3.3414,3.3414,3.3414,3.3414,3.3414,3.3414,3.3414,3.3414,3.3414,1.9615,1.9531,1.9861,2.1135,2.2662,2.3759,2.3838,2.5537,2.7184,2.8263,2.8342,2.8979,3.0832,2.946,2.9103,3.0908,2.9369,2.8302,2.8302,2.8307,2.825,2.8148,2.8239,2.7655,2.6297,2.368,2.1165,0.0,0.0,0.0,1.1347,1.1049,1.1658,1.3031,1.3876,1.4848,1.5818,1.6598,1.7156,1.7595,1.7738,1.7812,1.7915,1.7915,1.7915,1.7915,1.7915,1.7915,1.8088,1.9232,2.2412,2.6435,2.9349,3.1307,3.2814,3.3803,3.4028,3.3855,3.3734,3.3561,3.3414,3.3414,3.3414,3.3414,3.3414,3.332,3.3187,3.3013,3.2505,3.181,3.0875,3.0221,2.9806,2.974,0.0,0.0,0.0,0.0,0.0,0.0,0.0,0.0,0.0,0.0,0.0,0.0,0.0,0.0,0.0,0.0,2.5825,2.7816,3.0234,3.1102,3.0274,3.2358,3.3293,3.3066,3.3293,3.3414,3.3414,3.3414,3.3414,3.3414,3.3414,3.3414,3.3414,3.3414,3.3414,3.3414,3.3414,3.3414,3.3414,3.3414,3.3414,3.3414,1.943,1.9144,1.93,2.0823,2.153,2.2113,2.2657,2.36,2.4031,2.3346,2.3193,2.4552,2.8327,2.686,2.644,2.8547,2.6713,2.5473,2.5473,2.5384,2.5303,2.5303,2.5303,0.0,2.383,2.2035,2.0241,1.856,1.5557,0.0,1.2841,1.2617,1.3186,1.4468,1.5371,1.5995,1.6442,1.7331,1.7663,1.7717,1.7826,1.7915,1.7915,1.7915,1.7915,1.7915,1.7915,1.7915,1.7915,1.7915,2.1052,2.5439,2.8325,3.0499,3.2316,3.3939,3.4309,3.4108,3.3935,3.3721,3.3534,3.3427,3.3414,3.3414,3.3414,3.3414,3.3334,3.304,3.2652,3.2305,3.2131,3.0755,2.9967,3.0982,0.0,0.0,0.0,3.1156,0.0,0.0,2.9566,2.8484,2.7924,2.513,0.0,0.0,0.0,0.0,0.0,0.0,0.0,0.0,0.0,0.0,3.0675,3.2492,3.3414,3.3414,3.3414,3.3414,3.3414,3.3414,3.3414,3.3414,3.3507,3.3494,3.3427,3.3601,3.3627,3.3547,3.3547,3.3547,3.3534,3.344,3.3414,3.3414,1.6216,1.6337,1.6568,1.7323,1.9723,2.0623,1.789,1.98,2.0604,1.8051,1.7691,1.9722,2.5048,2.5598,2.5598,2.5651,2.5598,2.5598,2.5598,2.5598,2.5598,0.0,2.5598,2.4332,2.1591,2.1537,2.0072,1.7221,0.0,0.0,1.535,1.4462,1.4731,1.5888,1.6051,1.6653,1.7575,1.7792,1.7915,1.7915,1.7915,1.7915,1.7915,1.7915,1.7915,1.7915,1.7915,1.7915,1.7915,1.7915,1.9823,2.2739,2.5654,2.6573,2.7662,3.3169,3.4802,3.4681,3.4042,3.3881,3.3801,3.3494,3.3414,3.3414,3.3414,3.3414,3.3334,3.304,3.2973,3.2786,3.2211,3.2078,3.1597,3.0167,0.0,0.0,0.0,0.0,0.0,0.0,2.5812,2.5021,2.7898,2.4676,0.0,0.0,0.0,0.0,0.0,0.0,0.0,2.9379,3.0105,0.0,3.0413,3.2385,3.3414,3.3414,3.3414,3.3414,3.3414,3.3414,3.3414,3.3427,3.3748,3.3708,3.3454,3.4055,3.4135,3.3881,3.3881,3.3881,3.3841,3.3534,3.3414,3.3414,1.7012,1.7066,1.7141,1.7378,1.8112,1.8463,1.767,1.8274,1.8596,1.7889,1.7792,1.8472,2.0155,2.0357,2.1119,2.3107,2.1383,2.0139,2.0139,2.0084,2.0014,2.0014,2.0014,1.9593,1.8742,1.8689,1.8245,1.7351,0.0,0.0,1.6015,1.573,1.6178,1.7276,1.733,1.748,1.7792,1.7846,1.7915,1.7915,1.7915,1.7915,1.7915,1.7915,1.7915,1.7915,1.7915,1.7915,1.7915,1.7915,1.8508,1.9768,2.2647,2.6313,2.9861,3.1614,3.3403,3.4775,3.4588,3.4189,3.3855,3.3761,3.3574,3.3414,3.3414,3.3414,3.3387,3.3293,3.312,3.2919,3.2732,3.2372,3.1944,3.1476,3.1557,0.0,3.1169,0.0,3.1009,3.0728,2.9824,2.957,0.0,2.8177,0.0,0.0,0.0,0.0,0.0,0.0,0.0,0.0,3.0734,0.0,3.0955,3.2585,3.3414,3.3414,3.3414,3.3414,3.3414,3.3414,3.3414,3.3414,3.3521,3.3507,3.3427,3.3627,3.3641,3.3561,3.3561,3.3561,3.3547,3.3454,3.3414,3.3414,1.7575,1.7589,1.7602,1.767,1.767,1.7704,1.7751,1.7805,1.7914,1.7948,1.8002,1.8036,1.8036,1.8036,1.8753,2.0427,1.8815,1.7683,1.7683,1.7629,1.7589,1.7589,1.7589,1.7589,1.7589,1.7589,0.0,1.7589,1.708,1.6917,1.7066,1.7066,1.7412,1.8036,1.8036,1.8036,1.8036,1.8036,1.8036,1.8078,1.8024,1.7989,1.8023,1.7968,1.7989,1.8023,1.7968,1.8004,1.799,1.7936,1.7915,1.8412,2.1281,2.5447,2.9487,3.0567,3.2844,3.4949,3.4842,3.4496,3.4162,3.3948,3.3734,3.3561,3.344,3.3414,3.3414,3.3414,3.3267,3.3106,3.3,3.2679,3.2358,3.2144,3.1944,3.1845,3.1724,0.0,3.143,0.0,0.0,0.0,0.0,2.9352,2.8617,0.0,0.0,0.0,0.0,0.0,2.8698,2.9436,3.1837,3.2786,3.2051,3.2946,3.3414,3.3414,3.3414,3.3414,3.3414,3.3414,3.3414,3.3414,3.3534,3.3521,3.3427,3.3654,3.3694,3.3587,3.3587,3.3587,3.3574,3.3454,3.3414,3.3414,1.7846,1.7915,1.797,1.8077,1.8111,1.8111,1.8111,1.8233,1.8267,1.8124,1.8233,1.8321,1.8321,1.8321,1.8199,1.797,1.7936,1.7936,1.7915,1.7936,1.7936,1.7936,1.7936,1.7936,1.7956,1.7936,1.7936,1.7956,1.8036,1.8179,1.8321,1.8321,1.8321,1.8321,1.8321,1.8321,1.8321,1.8321,1.8321,1.8301,1.8158,1.8199,1.8301,1.8158,1.8199,1.8301,1.8158,1.8111,1.8091,1.7935,1.7936,1.8378,2.1077,2.4046,2.7068,3.0033,3.2957,3.5137,3.4922,3.4829,3.4681,3.4082,3.3921,3.3801,3.348,3.3414,3.3414,3.3414,3.3414,3.3334,3.3053,3.2986,3.2799,3.2251,3.2131,3.2011,3.1744,3.1724,3.0969,0.0,0.0,0.0,0.0,2.8885,2.9619,0.0,0.0,3.1944,0.0,0.0,2.9209,3.2866,3.3253,3.3414,3.3414,3.3414,3.3414,3.3414,3.3414,3.3414,3.3414,3.3414,3.3414,3.3427,3.3721,3.3681,3.3454,3.4028,3.4108,3.3881,3.3855,3.3868,3.3841,3.3534,3.3414,3.3414,1.786,1.8004,1.8057,1.8091,1.8199,1.8267,1.8267,1.8301,1.8301,1.8267,1.8301,1.8321,1.8321,1.8321,1.8287,1.8213,1.8111,1.7989,1.7915,1.8024,1.8036,1.8036,1.8036,1.8091,1.8213,1.8091,1.8091,1.8213,1.8247,1.8287,1.8321,1.8321,1.8321,1.8321,1.8321,1.8321,1.8321,1.8321,1.8321,1.8321,1.8287,1.8287,1.8321,1.8287,1.8287,1.8321,1.8287,1.8267,1.8247,1.8091,1.8036,1.8176,1.8716,2.242,2.7068,3.0033,3.2957,3.5177,3.511,3.4989,3.4788,3.4641,3.4215,3.3801,3.348,3.3414,3.3414,3.3414,3.3414,3.3387,3.332,3.3133,3.2933,3.2786,3.2398,3.2078,3.2011,3.181,3.157,0.0,3.1276,3.137,3.1644,3.1657,3.1216,0.0,0.0,3.0434,3.0434,2.9927,3.0707,3.2906,3.3253,3.3414,3.3414,3.3414,3.3414,3.3414,3.3414,3.3414,3.3414,3.3414,3.3414,3.3414,3.3494,3.348,3.3427,3.3561,3.3734,3.3855,3.3614,3.3668,3.3841,3.3534,3.3414,3.3414,1.8077,1.8145,1.8213,1.8287,1.8355,1.8409,1.8409,1.8477,1.8498,1.8423,1.8477,1.8518,1.8518,1.8518,1.8498,1.8423,1.8287,1.8158,1.8077,1.8145,1.8199,1.8199,1.8199,1.8233,1.8321,1.8233,1.8267,1.8409,1.8409,1.8464,1.8518,1.8518,1.8518,1.8518,1.8518,1.8518,1.8518,1.8518,1.8518,1.8511,1.8443,1.8464,1.8511,1.8443,1.8464,1.8511,1.8443,1.8409,1.8332,1.8165,1.8091,1.8287,1.9497,2.1983,2.5393,2.9658,3.2957,3.5191,3.5191,3.5084,3.4923,3.4842,3.4374,3.3841,3.3668,3.3521,3.3414,3.3414,3.3414,3.3414,3.3414,3.328,3.3133,3.3,3.2478,3.2144,3.2291,3.1992,3.1872,3.23,3.2353,3.242,3.2581,3.2594,3.2126,3.1015,3.1156,0.0,3.1316,3.1597,3.2198,3.3146,3.3334,3.3414,3.3414,3.3414,3.3414,3.3414,3.3414,3.3414,3.3414,3.3414,3.3414,3.3414,3.3414,3.3414,3.3427,3.3574,3.3641,3.3668,3.3641,3.3641,3.3654,3.3467,3.3414,3.3414,1.8321,1.8335,1.8389,1.8454,1.8552,1.8565,1.8565,1.8674,1.8766,1.8586,1.8674,1.882,1.882,1.882,1.8708,1.8586,1.8464,1.8375,1.8321,1.8335,1.8355,1.8355,1.8355,1.8355,1.8389,1.8389,1.8443,1.8565,1.8565,1.864,1.882,1.882,1.882,1.882,1.882,1.882,1.882,1.882,1.882,1.88,1.862,1.864,1.88,1.862,1.8654,1.88,1.862,1.8565,1.8531,1.8247,1.8145,1.8538,2.0835,2.1861,2.3184,2.8145,3.1935,3.465,3.5085,3.5191,3.5124,3.4882,3.4389,3.4002,3.3961,3.3708,3.348,3.348,3.344,3.3414,3.3414,3.3414,3.3227,3.2679,3.2385,3.2211,3.2206,3.1992,3.2045,3.2594,3.2661,3.2674,3.2728,3.2728,3.2728,3.2728,3.2906,3.304,3.304,3.328,3.3414,3.3414,3.3414,3.3414,3.3414,3.3414,3.3414,3.3414,3.3414,3.3414,3.3414,3.3414,3.3414,3.3414,3.3414,3.3414,3.3427,3.3708,3.3681,3.3507,3.3734,3.3681,3.348,3.3427,3.3414,3.3414,1.8321,1.8409,1.8454,1.8474,1.864,1.8728,1.8728,1.88,1.8762,1.8786,1.88,1.882,1.882,1.882,1.88,1.8786,1.8708,1.8586,1.8335,1.8423,1.8498,1.8498,1.8498,1.8565,1.8694,1.8694,1.8708,1.8728,1.8728,1.8742,1.882,1.882,1.882,1.882,1.882,1.882,1.882,1.882,1.882,1.882,1.8742,1.8742,1.882,1.8786,1.8742,1.882,1.8786,1.8728,1.8694,1.8511,1.8332,1.831,1.865,2.0323,2.2383,2.3293,2.7338,3.2095,3.4544,3.5191,3.5124,3.4882,3.4748,3.4614,3.4309,3.4028,3.3814,3.3814,3.3601,3.3414,3.3414,3.3414,3.2826,3.1095,3.1979,3.2251,3.0568,3.1577,3.2581,3.2915,3.2955,3.3013,3.3253,3.328,3.328,3.328,3.332,3.3347,3.3347,3.3387,3.3414,3.3414,3.3414,3.3414,3.3414,3.3414,3.3414,3.3414,3.3414,3.3414,3.3414,3.3414,3.3414,3.3414,3.3414,3.3414,3.3414,3.3467,3.3614,3.3788,3.3574,3.3614,3.3788,3.3507,3.3414,3.3414,1.8552,1.8606,1.8654,1.8654,1.8766,1.882,1.882,1.882,1.882,1.882,1.882,1.882,1.882,1.882,1.882,1.882,1.882,1.8708,1.8565,1.862,1.8654,1.8654,1.8654,1.8694,1.882,1.882,1.882,1.882,1.882,1.882,1.882,1.882,1.882,1.882,1.882,1.882,1.882,1.882,1.882,1.882,1.882,1.882,1.882,1.882,1.882,1.882,1.882,1.882,1.8742,1.8586,1.844,1.8389,1.8165,1.8977,2.0267,2.176,2.6313,3.1551,3.4425,3.5191,3.5164,3.503,3.487,3.4723,3.4589,3.4336,3.4122,3.4122,3.3881,3.3668,3.3668,3.3534,3.3106,3.2158,3.2474,3.2567,3.1891,3.2273,3.2755,3.316,3.3213,3.3334,3.3641,3.3507,3.3547,3.3881,3.3761,3.3734,3.3895,3.3895,3.3895,3.3895,3.3587,3.3414,3.3414,3.3414,3.3414,3.3414,3.3414,3.3414,3.3414,3.3414,3.3414,3.3414,3.3414,3.3414,3.3427,3.3601,3.3654,3.3627,3.3654,3.3654,3.3614,3.3467,3.3414,3.3414,1.882,1.882,1.882,1.882,1.882,1.882,1.882,1.882,1.882,1.882,1.882,1.882,1.882,1.882,1.882,1.882,1.882,1.882,1.882,1.882,1.882,1.882,1.882,1.882,1.882,1.882,1.882,1.882,1.882,1.882,1.882,1.882,1.882,1.882,1.882,1.882,1.882,1.882,1.882,1.882,1.882,1.882,1.882,1.882,1.882,1.882,1.882,1.882,1.88,1.862,1.8565,1.8477,1.8233,1.8124,1.8496,2.0584,2.4851,2.9658,3.3235,3.4702,3.5191,3.5191,3.503,3.4804,3.4857,3.4643,3.4429,3.4429,3.4189,3.3988,3.3988,3.3788,3.3467,3.2986,3.2933,3.2946,3.2906,3.2933,3.3169,3.3574,3.3627,3.3721,3.3961,3.3761,3.3814,3.4282,3.4108,3.4082,3.4309,3.4322,3.4322,3.4322,3.3801,3.348,3.3414,3.3414,3.3414,3.3414,3.3414,3.3414,3.3414,3.3414,3.3414,3.3414,3.3414,3.3454,3.3534,3.3788,3.3748,3.3547,3.3868,3.3748,3.3414,3.3494,3.3467,3.3414,1.882,1.882,1.882,1.882,1.882,1.882,1.882,1.882,1.882,1.882,1.882,1.882,1.882,1.882,1.882,1.882,1.882,1.882,1.882,1.882,1.882,1.882,1.882,1.882,1.882,1.882,1.882,1.882,1.882,1.882,1.882,1.882,1.882,1.882,1.882,1.882,1.882,1.882,1.882,1.882,1.882,1.882,1.882,1.882,1.882,1.882,1.882,1.882,1.882,1.88,1.8654,1.8498,1.8355,1.8213,1.8113,1.8184,2.0427,2.4046,2.9712,3.3182,3.5191,3.5191,3.5177,3.5164,3.5164,3.4937,3.4788,3.4788,3.4496,3.4282,3.4282,3.4269,3.3627,3.1704,3.2959,3.3534,3.165,3.3,3.4202,3.4242,3.4255,3.4255,3.4282,3.4269,3.4269,3.4322,3.4295,3.4295,3.4322,3.4322,3.4322,3.4322,3.4015,3.3708,3.3414,3.3414,3.3414,3.3414,3.3414,3.3414,3.3414,3.3414,3.3414,3.3414,3.3414,3.3574,3.3855,3.3881,3.3868,3.3881,3.4175,3.3921,3.3454,3.3748,3.3668,3.3414,1.882,1.882,1.882,1.882,1.882,1.882,1.882,1.882,1.882,1.882,1.882,1.882,1.882,1.882,1.882,1.882,1.882,1.882,1.882,1.882,1.882,1.882,1.882,1.882,1.882,1.882,1.882,1.882,1.882,1.882,1.882,1.882,1.882,1.882,1.882,1.882,1.882,1.882,1.882,1.882,1.882,1.882,1.882,1.882,1.882,1.882,1.882,1.882,1.882,1.882,1.8728,1.864,1.8389,1.8287,1.8179,1.7935,1.9933,2.2711,2.4915,2.8962,3.252,3.252,3.3883,3.5191,3.5191,3.511,3.503,3.503,3.4803,3.4589,3.4589,3.4442,3.4055,3.3267,3.375,3.4042,3.3204,3.3814,3.3627,3.1871,3.3201,3.364,3.2055,3.3356,3.4469,3.483,3.4696,3.467,3.4857,3.487,3.4776,3.4603,3.4482,3.4202,3.3708,3.3708,3.3601,3.3414,3.3414,3.3414,3.3414,3.3414,3.3414,3.3414,3.3414,3.348,3.3614,3.3801,3.3881,3.3895,3.4015,3.3908,3.3694,3.3614,3.3641,3.3681,1.882,1.882,1.882,1.882,1.882,1.882,1.882,1.882,1.882,1.882,1.882,1.882,1.882,1.882,1.882,1.882,1.882,1.882,1.882,1.882,1.882,1.882,1.882,1.882,1.882,1.882,1.882,1.882,1.882,1.882,1.882,1.882,1.882,1.882,1.882,1.882,1.882,1.882,1.882,1.882,1.882,1.882,1.882,1.882,1.882,1.882,1.882,1.882,1.882,1.882,1.882,1.8766,1.8409,1.8247,1.8124,1.7935,1.9328,2.085,2.085,2.4426,2.8629,3.046,3.171,3.2692,3.3619,3.3129,3.2479,3.2479,3.2331,3.2208,3.2208,3.1995,3.1871,3.1871,3.1871,3.1871,3.1871,3.1871,3.1127,2.915,3.0644,3.1514,3.067,3.1328,3.2399,3.3752,3.2847,3.2664,3.3765,3.383,3.4175,3.491,3.4949,3.467,3.4175,3.3975,3.3774,3.3561,3.3454,3.3414,3.3414,3.3414,3.3414,3.3414,3.3414,3.3467,3.3574,3.3801,3.3935,3.4028,3.4122,3.4055,3.3868,3.3748,3.3708,3.3708,1.882,1.882,1.882,1.882,1.882,1.882,1.882,1.882,1.882,1.882,1.882,1.882,1.882,1.882,1.882,1.882,1.882,1.882,1.882,1.882,1.882,1.882,1.882,1.882,1.882,1.882,1.882,1.882,1.882,1.882,1.882,1.882,1.882,1.882,1.882,1.882,1.882,1.882,1.882,1.882,1.882,1.882,1.882,1.882,1.882,1.882,1.882,1.882,1.882,1.882,1.882,1.8766,1.8409,1.8111,1.7915,1.7915,1.7915,1.7915,1.7915,1.9995,2.3565,2.9391,2.8629,2.7284,3.0193,2.8575,2.6529,2.6529,2.6529,2.6529,2.6529,2.6529,2.6529,2.6529,2.6529,2.6529,2.6529,2.6529,2.6475,2.6475,2.6475,2.7661,3.0567,2.8199,2.7715,3.0621,2.8145,2.7769,3.0727,3.0899,3.2201,3.5032,3.5138,3.5004,3.4711,3.4189,3.3895,3.3881,3.3574,3.3414,3.3414,3.3414,3.3414,3.3414,3.3414,3.3587,3.3881,3.3881,3.4055,3.4349,3.4643,3.4454,3.3921,3.4215,3.3935,3.3414,1.882,1.882,1.882,1.882,1.882,1.882,1.882,1.882,1.882,1.882,1.882,1.882,1.882,1.882,1.882,1.882,1.882,1.882,1.882,1.882,1.882,1.882,1.882,1.882,1.882,1.882,1.882,1.882,1.882,1.882,1.882,1.882,1.882,1.882,1.882,1.882,1.882,1.882,1.882,1.882,1.882,1.882,1.882,1.882,1.882,1.882,1.882,1.882,1.882,1.882,1.882,1.8766,1.8409,1.8179,1.8002,1.7956,1.7915,1.7915,1.7915,1.8508,2.009,2.3883,2.5664,2.6745,2.7607,2.7122,2.6529,2.6529,2.6529,2.6529,2.6529,2.6529,2.6529,2.6529,2.6529,2.6529,2.6529,2.6529,2.5772,2.372,2.5285,2.6043,2.4915,2.5826,2.6853,2.7769,2.7015,2.6907,2.7769,2.7823,2.8199,2.9069,2.9123,2.9089,2.8958,3.265,3.4295,3.3881,3.4002,3.3828,3.3414,3.3641,3.3627,3.3414,3.3414,3.3467,3.3574,3.3801,3.3935,3.4042,3.4336,3.4215,3.3895,3.3988,3.4028,3.3988,1.882,1.882,1.882,1.882,1.882,1.882,1.882,1.882,1.882,1.882,1.882,1.882,1.882,1.882,1.882,1.882,1.882,1.882,1.882,1.882,1.882,1.882,1.882,1.882,1.882,1.882,1.882,1.882,1.882,1.882,1.882,1.882,1.882,1.882,1.882,1.882,1.882,1.882,1.882,1.882,1.882,1.882,1.882,1.882,1.882,1.882,1.882,1.882,1.882,1.882,1.8694,1.8552,1.8375,1.8213,1.8057,1.7914,1.7956,1.799,1.7936,1.7915,1.8302,2.009,2.1836,2.3393,2.4535,2.3937,2.3121,2.3121,2.3121,2.3121,2.3121,2.3121,2.3121,2.3121,2.3121,2.3121,2.3121,2.3121,2.2475,2.0694,2.2038,2.2857,2.2273,2.2739,2.3121,2.3121,2.3121,2.3611,2.4752,2.4797,2.5339,2.6475,2.6529,2.6529,2.6529,2.9831,3.1853,3.2531,3.3703,3.4122,3.3774,3.3975,3.3948,3.3774,3.3774,3.3774,3.3774,3.3855,3.4028,3.4229,3.4175,3.4108,3.4042,3.3935,3.3921,3.3908,1.882,1.882,1.882,1.882,1.882,1.882,1.882,1.882,1.882,1.882,1.882,1.882,1.882,1.882,1.882,1.882,1.882,1.882,1.882,1.882,1.882,1.882,1.882,1.882,1.882,1.882,1.882,1.882,1.882,1.882,1.882,1.882,1.882,1.882,1.882,1.882,1.882,1.882,1.882,1.882,1.882,1.882,1.882,1.882,1.882,1.882,1.882,1.882,1.882,1.882,1.8586,1.8355,1.8321,1.8233,1.8077,1.7914,1.7968,1.8036,1.7956,1.7915,1.7915,1.7915,1.7915,1.8571,2.125,1.9768,1.7915,1.7915,1.7915,1.7915,1.7915,1.7915,1.7915,1.7915,1.7915,1.7915,1.7915,1.7915,1.7915,1.7915,1.7915,1.8949,2.1571,1.9445,1.7915,1.7915,1.7915,1.906,2.1664,2.1836,2.302,2.5664,2.5718,2.5718,2.5718,2.5988,2.7438,3.0025,3.2434,3.3576,3.3523,3.355,3.355,3.3523,3.3523,3.3523,3.3497,3.3556,3.3869,3.4344,3.4033,3.4068,3.4242,3.3988,3.3708,3.3454,1.882,1.882,1.882,1.882,1.882,1.882,1.882,1.882,1.882,1.882,1.882,1.882,1.882,1.882,1.882,1.882,1.882,1.882,1.882,1.882,1.882,1.882,1.882,1.882,1.882,1.882,1.882,1.882,1.882,1.882,1.882,1.882,1.882,1.882,1.882,1.882,1.882,1.882,1.882,1.882,1.882,1.882,1.882,1.882,1.882,1.882,1.882,1.882,1.882,1.882,1.8728,1.8677,1.8389,1.8301,1.8213,1.7948,1.7936,1.7956,1.7936,1.7915,1.7915,1.7915,1.7915,1.8033,1.8681,1.8357,1.7915,1.7915,1.7915,1.7915,1.7915,1.7915,1.7915,1.7915,1.7915,1.7915,1.7915,1.7915,1.7915,1.7915,1.7915,1.8129,1.8791,1.8247,1.7915,1.7915,1.7915,1.8184,1.8798,1.8853,1.9122,1.976,1.9768,1.9768,1.9768,2.1983,2.4432,2.7047,2.7824,2.7961,2.75,2.7747,2.7725,2.75,2.75,2.75,2.7658,2.9908,3.0902,3.1258,3.3368,3.4122,3.3975,3.3908,3.3841,3.3814,1.882,1.882,1.882,1.882,1.882,1.882,1.882,1.882,1.882,1.882,1.882,1.882,1.882,1.882,1.882,1.882,1.882,1.882,1.882,1.882,1.882,1.882,1.882,1.882,1.882,1.882,1.882,1.882,1.882,1.882,1.882,1.882,1.882,1.882,1.882,1.882,1.882,1.882,1.882,1.882,1.882,1.882,1.882,1.882,1.882,1.882,1.882,1.882,1.882,1.882,1.8766,1.862,1.8464,1.8375,1.8267,1.8036,1.8024,1.8004,1.7936,1.7915,1.7915,1.7915,1.7915,1.7915,1.7915,1.7915,1.7915,1.7915,1.7915,1.7915,1.7915,1.7915,1.7915,1.7915,1.7915,1.7915,1.7915,1.7915,1.7915,1.7915,1.7915,1.7915,1.7915,1.7915,1.7915,1.7915,1.7915,1.7915,1.7915,1.7915,1.7915,1.7915,1.7915,1.7915,1.7915,1.9383,2.0803,2.2221,2.5119,2.6354,2.6025,2.6189,2.6179,2.6015,2.6015,2.6015,2.6122,2.7557,2.9056,3.0581,3.1763,3.3085,3.4269,3.3988,3.3881,3.3935,1.882,1.882,1.882,1.882,1.882,1.882,1.882,1.882,1.882,1.882,1.882,1.882,1.882,1.882,1.882,1.882,1.882,1.882,1.882,1.882,1.882,1.882,1.882,1.882,1.882,1.882,1.882,1.882,1.882,1.882,1.882,1.882,1.882,1.882,1.882,1.882,1.882,1.882,1.882,1.882,1.882,1.882,1.882,1.882,1.882,1.882,1.882,1.882,1.882,1.882,1.8654,1.8474,1.8474,1.8409,1.8247,1.8124,1.8077,1.8023,1.7956,1.7915,1.7915,1.7915,1.7915,1.7915,1.7915,1.7915,1.7915,1.7915,1.7915,1.7915,1.7915,1.7915,1.7915,1.7915,1.7915,1.7915,1.7915,1.7915,1.7915,1.7915,1.7915,1.7915,1.7915,1.7915,1.7915,1.7915,1.7915,1.7915,1.7915,1.7915,1.7915,1.7915,1.7915,1.7915,1.7915,1.7915,1.7915,1.7977,2.2739,2.5014,2.5014,2.5014,2.5014,2.5014,2.5014,2.5014,2.5049,2.5317,2.7011,2.9399,2.9372,3.0962,3.3237,3.2673,3.2787,3.3247,1.882,1.882,1.882,1.882,1.882,1.882,1.882,1.882,1.882,1.882,1.882,1.882,1.882,1.882,1.882,1.882,1.882,1.882,1.882,1.882,1.882,1.882,1.882,1.882,1.882,1.882,1.882,1.882,1.882,1.882,1.882,1.882,1.882,1.882,1.882,1.882,1.882,1.882,1.882,1.882,1.882,1.882,1.882,1.882,1.882,1.882,1.882,1.882,1.882,1.882,1.8654,1.8474,1.8474,1.8335,1.8124,1.8091,1.8002,1.7901,1.7915,1.7915,1.7915,1.7915,1.7915,1.7915,1.7915,1.7915,1.7915,1.7915,1.7915,1.7915,1.7915,1.7915,1.7915,1.7915,1.7915,1.7915,1.7915,1.7915,1.7915,1.7915,1.7915,1.7915,1.7915,1.7915,1.7915,1.7915,1.7915,1.7915,1.7915,1.7915,1.7915,1.7915,1.7915,1.7915,1.7915,1.7915,1.7915,1.7915,1.8681,1.906,1.906,1.906,1.906,1.906,1.906,1.906,1.9272,2.1702,2.3003,2.3593,2.5775,2.6867,2.7207,2.6745,2.8139,3.037,1.882,1.882,1.882,1.882,1.882,1.882,1.882,1.882,1.882,1.882,1.882,1.882,1.882,1.882,1.882,1.882,1.882,1.882,1.882,1.882,1.882,1.882,1.882,1.882,1.882,1.882,1.882,1.882,1.882,1.882,1.882,1.882,1.882,1.882,1.882,1.882,1.882,1.882,1.882,1.882,1.882,1.882,1.882,1.882,1.882,1.882,1.882,1.882,1.882,1.882,1.8654,1.8474,1.8474,1.8321,1.8091,1.8091,1.7989,1.7915,1.7915,1.7915,1.7915,1.7915,1.7915,1.7915,1.7915,1.7915,1.7915,1.7915,1.7915,1.7915,1.7915,1.7915,1.7915,1.7915,1.7915,1.7915,1.7915,1.7915,1.7915,1.7915,1.7915,1.7915,1.7915,1.7915,1.7915,1.7915,1.7915,1.7915,1.7915,1.7915,1.7915,1.7915,1.7915,1.7915,1.7915,1.7915,1.7915,1.7915,1.7915,1.7915,1.7915,1.7915,1.7915,1.7915,1.7915,1.7915,1.7977,1.9272,2.0756,2.2303,2.3467,2.4791,2.6003,2.5922,2.6588,2.75]},{"header":{"parameterUnit":"m.s-1","parameterCategory":1,"la1":30.6,"la2":28.766,"lo1":-90.7593,"lo2":-88.6598,"dx":0.0162,"dy":0.0183,"nx":116,"ny":114,"refTime":"2022-12-17T18:00:00:Z","depth":0,"parameterNumber":3,"parameterNumberName":"V-component_of_WINDS"},"data":[0.0,0.0,0.0,0.0,0.0,0.0,0.0,0.0,0.0,0.0,0.0,0.0,0.0,0.0,0.0,0.0,0.0,0.0,0.0,0.0,0.0,0.0,0.0,0.0,0.0,0.0,0.0,0.0,0.0,0.0,0.0,0.0,0.0,0.0,0.0,0.0,0.0,0.0,0.0,0.0,0.0,0.0,0.0,0.0,0.0,0.0,0.0,0.0,0.0,0.0,0.0,0.0,0.0,0.0,0.0,0.0,0.0,0.0,0.0,0.0,0.0,0.0,0.0,0.0,0.0,0.0,0.0,0.0,0.0,0.0,0.0,0.0,0.0,0.0,0.0,0.0,0.0,0.0,0.0,0.0,0.0,0.0,0.0,0.0,0.0,0.0,0.0,0.0,0.0,0.0,0.0,0.0,0.0,0.0,0.0,0.0,0.0,0.0,0.0,0.0,0.0,0.0,0.0,0.0,0.0,0.0,0.0,0.0,0.0,0.0,0.0,0.0,0.0,0.0,0.0,0.0,0.0,0.0,0.0,0.0,0.0,0.0,0.0,0.0,0.0,0.0,0.0,0.0,0.0,0.0,0.0,0.0,0.0,0.0,0.0,0.0,0.0,0.0,0.0,0.0,0.0,0.0,0.0,0.0,0.0,0.0,0.0,0.0,0.0,0.0,0.0,0.0,0.0,0.0,0.0,0.0,0.0,0.0,0.0,0.0,0.0,0.0,0.0,0.0,0.0,0.0,0.0,0.0,0.0,0.0,0.0,0.0,0.0,0.0,0.0,0.0,0.0,0.0,0.0,0.0,0.0,0.0,0.0,0.0,0.0,0.0,0.0,0.0,0.0,0.0,0.0,0.0,0.0,0.0,0.0,0.0,0.0,0.0,0.0,0.0,0.0,0.0,0.0,0.0,0.0,0.0,0.0,0.0,0.0,0.0,0.0,0.0,0.0,0.0,0.0,0.0,0.0,0.0,0.0,0.0,0.0,0.0,0.0,0.0,0.0,0.0,0.0,0.0,0.0,0.0,0.0,0.0,0.0,0.0,0.0,0.0,0.0,0.0,0.0,0.0,0.0,0.0,0.0,0.0,0.0,0.0,0.0,0.0,0.0,0.0,0.0,0.0,0.0,0.0,0.0,0.0,0.0,0.0,0.0,0.0,0.0,0.0,0.0,0.0,0.0,0.0,0.0,0.0,0.0,0.0,0.0,0.0,0.0,0.0,0.0,0.0,0.0,0.0,0.0,0.0,0.0,0.0,0.0,0.0,0.0,0.0,0.0,0.0,0.0,0.0,0.0,0.0,0.0,0.0,0.0,0.0,0.0,0.0,0.0,0.0,0.0,0.0,0.0,0.0,0.0,0.0,0.0,0.0,0.0,0.0,0.0,0.0,0.0,0.0,0.0,0.0,0.0,0.0,0.0,0.0,0.0,0.0,0.0,0.0,0.0,0.0,0.0,0.0,0.0,0.0,0.0,0.0,0.0,0.0,0.0,0.0,0.0,0.0,0.0,0.0,0.0,0.0,0.0,0.0,0.0,0.0,0.0,0.0,0.0,0.0,0.0,0.0,0.0,0.0,0.0,0.0,0.0,0.0,0.0,0.0,0.0,0.0,0.0,0.0,0.0,0.0,0.0,0.0,0.0,0.0,0.0,0.0,0.0,0.0,0.0,0.0,0.0,0.0,0.0,0.0,0.0,0.0,0.0,0.0,0.0,0.0,0.0,0.0,0.0,0.0,0.0,0.0,0.0,0.0,0.0,0.0,0.0,0.0,0.0,0.0,0.0,0.0,0.0,0.0,0.0,0.0,0.0,0.0,0.0,0.0,0.0,0.0,0.0,0.0,0.0,0.0,0.0,0.0,0.0,0.0,0.0,0.0,0.0,0.0,0.0,0.0,0.0,0.0,0.0,0.0,0.0,0.0,0.0,0.0,0.0,0.0,0.0,0.0,0.0,0.0,0.0,0.0,0.0,0.0,0.0,0.0,0.0,0.0,0.0,0.0,0.0,0.0,0.0,0.0,0.0,0.0,0.0,0.0,0.0,0.0,0.0,0.0,0.0,0.0,0.0,0.0,0.0,0.0,0.0,0.0,0.0,0.0,0.0,0.0,0.0,0.0,0.0,0.0,0.0,0.0,0.0,0.0,0.0,0.0,0.0,0.0,0.0,0.0,0.0,0.0,0.0,0.0,0.0,0.0,0.0,0.0,0.0,0.0,0.0,0.0,0.0,0.0,0.0,0.0,0.0,0.0,0.0,0.0,0.0,0.0,0.0,0.0,0.0,0.0,0.0,0.0,0.0,0.0,0.0,0.0,0.0,0.0,0.0,0.0,0.0,0.0,0.0,0.0,0.0,0.0,0.0,0.0,0.0,0.0,0.0,0.0,0.0,0.0,0.0,0.0,0.0,0.0,0.0,0.0,0.0,0.0,0.0,0.0,0.0,0.0,0.0,0.0,0.0,0.0,0.0,0.0,0.0,0.0,0.0,0.0,0.0,0.0,0.0,0.0,0.0,0.0,0.0,0.0,0.0,0.0,0.0,0.0,0.0,0.0,0.0,0.0,0.0,0.0,0.0,0.0,0.0,0.0,0.0,0.0,0.0,0.0,0.0,0.0,0.0,0.0,0.0,0.0,0.0,0.0,0.0,0.0,0.0,0.0,0.0,0.0,0.0,0.0,0.0,0.0,0.0,0.0,0.0,0.0,0.0,0.0,0.0,0.0,0.0,0.0,0.0,0.0,0.0,0.0,0.0,0.0,0.0,0.0,0.0,0.0,0.0,0.0,0.0,0.0,0.0,0.0,0.0,0.0,0.0,0.0,0.0,0.0,0.0,0.0,0.0,0.0,0.0,0.0,0.0,0.0,0.0,0.0,0.0,0.0,0.0,0.0,0.0,0.0,0.0,0.0,0.0,0.0,0.0,0.0,0.0,0.0,0.0,0.0,0.0,0.0,0.0,0.0,0.0,0.0,0.0,0.0,0.0,0.0,0.0,0.0,0.0,0.0,0.0,0.0,0.0,0.0,0.0,0.0,0.0,0.0,0.0,0.0,0.0,0.0,0.0,0.0,0.0,0.0,0.0,0.0,0.0,0.0,0.0,0.0,0.0,0.0,0.0,0.0,0.0,0.0,0.0,0.0,0.0,0.0,0.0,0.0,0.0,0.0,0.0,0.0,0.0,0.0,0.0,0.0,0.0,0.0,0.0,0.0,0.0,0.0,0.0,0.0,0.0,0.0,0.0,0.0,0.0,0.0,0.0,0.0,0.0,0.0,0.0,0.0,0.0,0.0,0.0,0.0,0.0,0.0,0.0,0.0,0.0,0.0,0.0,0.0,0.0,0.0,0.0,0.0,0.0,0.0,0.0,0.0,0.0,0.0,0.0,0.0,0.0,0.0,0.0,0.0,0.0,0.0,0.0,0.0,0.0,0.0,0.0,0.0,0.0,0.0,0.0,0.0,0.0,0.0,0.0,0.0,0.0,0.0,0.0,0.0,0.0,0.0,0.0,0.0,0.0,0.0,0.0,0.0,0.0,0.0,0.0,0.0,0.0,0.0,0.0,0.0,0.0,0.0,0.0,0.0,0.0,0.0,0.0,0.0,0.0,0.0,0.0,0.0,0.0,0.0,0.0,0.0,0.0,0.0,0.0,0.0,0.0,0.0,0.0,0.0,0.0,0.0,0.0,0.0,0.0,0.0,0.0,0.0,0.0,0.0,0.0,0.0,0.0,0.0,0.0,0.0,0.0,0.0,0.0,0.0,0.0,0.0,0.0,0.0,0.0,0.0,0.0,0.0,0.0,0.0,0.0,0.0,0.0,0.0,0.0,0.0,0.0,0.0,0.0,0.0,0.0,0.0,0.0,0.0,0.0,0.0,0.0,0.0,0.0,0.0,0.0,0.0,0.0,0.0,0.0,0.0,0.0,0.0,0.0,0.0,0.0,0.0,0.0,0.0,0.0,0.0,0.0,0.0,0.0,0.0,0.0,0.0,0.0,0.0,0.0,0.0,0.0,0.0,0.0,0.0,0.0,0.0,0.0,0.0,0.0,0.0,0.0,0.0,0.0,0.0,0.0,0.0,0.0,0.0,0.0,0.0,0.0,0.0,0.0,0.0,0.0,0.0,0.0,0.0,0.0,0.0,0.0,0.0,0.0,0.0,0.0,0.0,0.0,0.0,0.0,0.0,0.0,0.0,0.0,0.0,0.0,0.0,0.0,0.0,0.0,0.0,0.0,0.0,0.0,0.0,0.0,0.0,0.0,0.0,0.0,0.0,0.0,0.0,0.0,0.0,0.0,0.0,0.0,0.0,0.0,0.0,0.0,0.0,0.0,0.0,0.0,0.0,0.0,0.0,0.0,0.0,0.0,0.0,0.0,0.0,0.0,0.0,0.0,0.0,0.0,0.0,0.0,0.0,0.0,0.0,0.0,0.0,0.0,0.0,0.0,0.0,0.0,0.0,0.0,0.0,0.0,0.0,0.0,0.0,0.0,0.0,0.0,0.0,0.0,0.0,0.0,0.0,0.0,0.0,0.0,0.0,0.0,0.0,0.0,0.0,0.0,0.0,0.0,0.0,0.0,0.0,0.0,0.0,0.0,0.0,0.0,0.0,0.0,0.0,0.0,0.0,0.0,0.0,0.0,0.0,0.0,0.0,0.0,0.0,0.0,0.0,0.0,0.0,0.0,0.0,0.0,0.0,0.0,0.0,0.0,0.0,0.0,0.0,0.0,0.0,0.0,0.0,0.0,0.0,0.0,0.0,0.0,0.0,0.0,0.0,0.0,0.0,0.0,0.0,0.0,0.0,0.0,0.0,0.0,0.0,0.0,0.0,0.0,0.0,0.0,0.0,0.0,0.0,0.0,0.0,0.0,0.0,0.0,0.0,0.0,0.0,0.0,0.0,0.0,0.0,0.0,0.0,0.0,0.0,0.0,0.0,0.0,0.0,0.0,0.0,0.0,0.0,0.0,0.0,0.0,0.0,0.0,0.0,0.0,0.0,0.0,0.0,0.0,0.0,0.0,0.0,0.0,0.0,0.0,0.0,0.0,0.0,0.0,0.0,0.0,0.0,0.0,0.0,0.0,0.0,0.0,0.0,0.0,0.0,0.0,0.0,0.0,0.0,0.0,0.0,0.0,0.0,0.0,0.0,0.0,0.0,0.0,0.0,0.0,0.0,0.0,0.0,0.0,0.0,0.0,0.0,0.0,0.0,0.0,0.0,0.0,0.0,0.0,0.0,0.0,0.0,0.0,0.0,0.0,0.0,0.0,0.0,0.0,0.0,0.0,0.0,0.0,0.0,0.0,0.0,0.0,0.0,0.0,0.0,0.0,0.0,0.0,0.0,0.0,0.0,0.0,0.0,0.0,0.0,0.0,0.0,0.0,0.0,0.0,0.0,0.0,0.0,0.0,0.0,0.0,0.0,0.0,0.0,0.0,0.0,0.0,0.0,0.0,0.0,0.0,0.0,0.0,0.0,0.0,0.0,0.0,0.0,0.0,0.0,0.0,0.0,0.0,0.0,0.0,0.0,0.0,0.0,0.0,0.0,0.0,0.0,0.0,0.0,0.0,0.0,0.0,0.0,0.0,0.0,0.0,0.0,0.0,0.0,0.0,0.0,0.0,0.0,0.0,0.0,0.0,0.0,0.0,0.0,0.0,0.0,0.0,0.0,0.0,0.0,0.0,0.0,0.0,0.0,0.0,0.0,0.0,0.0,0.0,0.0,0.0,0.0,0.0,0.0,0.0,0.0,0.0,0.0,0.0,0.0,0.0,0.0,0.0,0.0,0.0,0.0,0.0,0.0,0.0,0.0,0.0,0.0,0.0,0.0,0.0,0.0,0.0,0.0,0.0,0.0,0.0,0.0,0.0,0.0,0.0,0.0,0.0,0.0,0.0,0.0,0.0,0.0,0.0,0.0,0.0,0.0,0.0,0.0,0.0,0.0,0.0,0.0,0.0,0.0,0.0,0.0,0.0,0.0,0.0,0.0,0.0,0.0,0.0,0.0,0.0,0.0,0.0,0.0,0.0,0.0,0.0,0.0,0.0,0.0,0.0,0.0,0.0,0.0,0.0,0.0,0.0,0.0,0.0,0.0,0.0,0.0,0.0,0.0,0.0,0.0,3.1869,2.738,0.0,0.0,0.0,0.0,0.0,0.0,0.0,0.0,0.0,0.0,0.0,0.0,0.0,0.0,0.0,0.0,0.0,0.0,0.0,0.0,0.0,0.0,0.0,2.0266,2.049,2.049,2.049,0.0,0.0,0.0,0.0,0.0,0.0,0.0,0.0,0.0,2.1478,2.3446,2.5034,2.8397,3.322,3.0321,2.7307,2.4271,0.0,0.0,0.0,0.0,0.0,0.0,0.0,0.0,0.0,0.0,0.0,0.0,0.0,0.0,0.0,0.0,0.0,0.0,0.0,0.0,0.0,0.0,0.0,0.0,0.0,0.0,0.0,0.0,0.0,0.0,0.0,0.0,0.0,0.0,0.0,0.0,0.0,0.0,0.0,0.0,0.0,0.0,0.0,0.0,0.0,0.0,0.0,0.0,0.0,0.0,0.0,0.0,0.0,0.0,0.0,0.0,0.0,0.0,0.0,0.0,0.0,0.0,0.0,0.0,0.0,0.0,0.0,0.0,0.0,0.0,3.6596,3.3455,0.0,0.0,0.0,0.0,0.0,0.0,0.0,0.0,0.0,0.0,0.0,0.0,0.0,0.0,0.0,0.0,0.0,0.0,0.0,0.0,0.0,2.0841,2.1098,2.1808,2.24,2.2804,2.2588,2.2441,2.2441,2.2143,0.0,0.0,0.0,0.0,0.0,2.2437,2.4341,2.7855,3.1722,3.6299,4.1388,4.1334,3.8206,3.2554,2.891,0.0,0.0,0.0,0.0,0.0,0.0,0.0,0.0,0.0,0.0,0.0,0.0,0.0,0.0,0.0,0.0,0.0,0.0,0.0,0.0,0.0,0.0,0.0,0.0,0.0,0.0,0.0,0.0,0.0,0.0,0.0,0.0,0.0,0.0,0.0,0.0,0.0,0.0,0.0,0.0,0.0,0.0,0.0,0.0,0.0,0.0,0.0,0.0,0.0,0.0,0.0,0.0,0.0,0.0,0.0,0.0,0.0,0.0,0.0,0.0,0.0,0.0,0.0,4.2491,4.309,4.3648,4.3768,4.5274,4.7527,4.1983,4.0924,4.2541,3.5848,0.0,0.0,0.0,0.0,0.0,0.0,0.0,0.0,0.0,0.0,0.0,0.0,0.0,0.0,0.0,0.0,0.0,0.0,0.0,2.2175,2.3566,2.3823,2.4745,2.6838,2.5742,2.4939,2.4939,2.3602,0.0,0.0,0.0,0.0,2.2827,2.4882,2.8227,3.2852,4.244,4.7912,4.9406,5.0061,4.9301,4.7072,3.9146,3.5714,3.566,0.0,0.0,0.0,0.0,0.0,0.0,0.0,0.0,0.0,0.0,0.0,0.0,0.0,0.0,0.0,0.0,0.0,0.0,0.0,0.0,0.0,0.0,0.0,0.0,0.0,0.0,0.0,0.0,0.0,0.0,0.0,0.0,0.0,0.0,0.0,0.0,0.0,0.0,0.0,0.0,0.0,3.6109,3.8064,0.0,0.0,0.0,0.0,0.0,0.0,0.0,0.0,0.0,0.0,0.0,0.0,0.0,4.0157,4.1871,4.4706,4.6501,4.7279,5.075,5.2426,5.2546,5.3114,5.3623,5.3952,5.2516,0.0,4.5642,4.4018,0.0,0.0,0.0,0.0,0.0,0.0,0.0,0.0,0.0,0.0,0.0,0.0,0.0,0.0,0.0,0.0,0.0,0.0,0.0,0.0,0.0,2.8919,3.0901,3.2449,3.2749,3.1904,2.9586,2.8374,0.0,0.0,0.0,2.442,2.5658,2.939,3.5708,4.47,5.1641,5.5918,5.7595,5.7527,5.6966,5.5755,5.0627,4.5368,4.0165,3.7782,0.0,0.0,0.0,0.0,0.0,0.0,0.0,0.0,0.0,0.0,0.0,0.0,0.0,0.0,0.0,0.0,0.0,0.0,0.0,0.0,0.0,0.0,0.0,0.0,0.0,0.0,0.0,0.0,0.0,0.0,0.0,0.0,0.0,0.0,0.0,0.0,0.0,0.0,0.0,3.6302,3.8604,4.0241,3.8195,3.5856,0.0,0.0,0.0,0.0,0.0,0.0,0.0,0.0,0.0,4.739,4.8596,5.0221,5.227,5.4094,5.5363,5.6073,5.7792,5.8854,5.9253,5.9565,5.9061,5.7981,5.7675,5.5584,5.2067,4.8057,4.4736,4.1863,0.0,0.0,0.0,0.0,3.8571,3.9038,0.0,0.0,0.0,0.0,0.0,0.0,0.0,0.0,0.0,0.0,0.0,0.0,3.0938,3.4564,3.7389,3.8652,3.9643,3.8755,3.5305,3.3366,3.0693,2.71,2.6549,2.7058,2.8674,3.5488,4.4287,5.5049,5.8866,6.1692,6.3441,6.2864,6.2177,6.1329,5.9583,5.4159,4.6195,4.3768,4.0672,3.697,0.0,0.0,0.0,0.0,0.0,0.0,0.0,0.0,0.0,0.0,0.0,0.0,0.0,0.0,0.0,0.0,0.0,0.0,0.0,0.0,0.0,0.0,0.0,0.0,0.0,0.0,0.0,0.0,0.0,0.0,0.0,0.0,0.0,0.0,0.0,0.0,0.0,4.0709,4.2297,4.3159,4.2822,4.1226,0.0,0.0,0.0,0.0,0.0,0.0,4.8441,4.9758,5.195,5.5216,5.7012,5.8848,6.078,6.1302,6.1848,6.2362,6.2554,6.2907,6.3469,6.3605,6.2913,6.1477,6.1289,6.0346,5.842,5.2339,4.9314,4.8267,4.5304,4.3648,4.314,4.4975,4.5355,4.5505,0.0,0.0,0.0,0.0,0.0,0.0,0.0,0.0,0.0,0.0,0.0,3.2682,3.6648,3.9974,4.2873,4.5223,4.4773,4.3672,4.1919,3.7426,3.3727,3.1213,2.9616,2.958,3.117,4.3571,5.3298,6.0052,6.338,6.5068,6.5178,6.5152,6.4648,6.3805,6.3759,6.1347,5.6861,4.995,4.7508,4.7451,3.7672,0.0,0.0,0.0,0.0,0.0,0.0,0.0,0.0,0.0,0.0,0.0,0.0,0.0,0.0,0.0,0.0,0.0,0.0,0.0,0.0,0.0,0.0,0.0,0.0,0.0,0.0,0.0,0.0,0.0,0.0,0.0,0.0,0.0,0.0,0.0,0.0,0.0,0.0,4.8661,5.0192,0.0,0.0,0.0,0.0,4.7655,4.8297,5.0714,5.5354,5.6332,5.8259,6.155,6.2409,6.2914,6.3043,6.3075,6.3107,6.3171,6.3774,6.4103,6.4167,6.4816,6.5055,6.4917,6.4269,6.3925,6.3456,5.8614,5.476,5.1947,5.1738,4.9763,4.7399,5.0571,5.1738,5.2187,0.0,0.0,0.0,2.4194,2.4194,2.4194,2.4194,2.5071,2.6245,2.7609,3.2632,3.7037,3.9533,4.5039,4.9307,5.1206,5.1573,5.0582,4.7939,4.2681,3.9305,3.8432,3.5385,3.7624,4.603,5.3298,5.9391,6.4347,6.5999,6.6843,6.6843,6.6843,6.6393,6.5588,6.5067,6.4025,6.2436,5.7704,5.4054,5.0848,4.5199,3.9817,0.0,0.0,0.0,0.0,0.0,0.0,0.0,0.0,0.0,0.0,0.0,0.0,0.0,0.0,0.0,0.0,0.0,0.0,0.0,0.0,0.0,0.0,0.0,0.0,0.0,0.0,0.0,0.0,0.0,0.0,0.0,0.0,0.0,0.0,0.0,0.0,0.0,5.132,5.3464,0.0,5.0353,5.2401,5.4456,5.574,5.7522,5.9878,6.2836,6.42,6.5369,6.659,6.7787,6.8409,6.8409,6.8409,6.8642,6.9131,6.935,6.9716,7.0205,7.0448,6.9829,6.8585,6.8381,6.7492,6.6106,6.4437,6.1978,5.9269,5.9269,5.8024,5.6394,5.7568,5.7431,5.6825,0.0,0.0,0.0,2.4194,2.4194,2.4194,2.4194,2.5805,2.7897,3.0362,3.6303,4.1544,4.4847,5.0472,5.4546,5.5904,5.6748,5.5842,5.2637,4.7572,4.4232,4.3167,4.1075,4.5259,5.6565,5.9722,6.3356,6.7724,6.8238,6.8508,6.8508,6.8508,6.8091,6.727,6.6708,6.6313,6.5962,6.3503,6.0134,5.6075,5.136,4.653,4.1518,0.0,0.0,0.0,0.0,0.0,0.0,0.0,0.0,0.0,0.0,0.0,0.0,0.0,0.0,0.0,0.0,0.0,0.0,0.0,0.0,0.0,0.0,0.0,0.0,0.0,0.0,0.0,0.0,0.0,0.0,0.0,0.0,0.0,0.0,5.2672,5.5716,5.3687,5.7205,5.8524,5.5243,5.827,6.12,6.2998,6.471,6.6432,6.8224,6.9519,7.0331,7.0567,7.1785,7.2507,7.28,7.28,7.3037,7.351,7.351,7.3781,7.4221,7.4221,7.3518,7.2274,7.2274,7.1348,6.9837,6.9837,6.8576,6.6531,6.5183,6.4059,6.3292,6.3292,6.2393,6.1149,0.0,0.0,2.4194,2.4194,2.4194,2.4194,2.4231,2.6324,2.9885,3.5576,4.0606,4.6076,5.2517,5.6124,5.84,5.9233,6.0003,5.9098,5.5952,5.1914,4.8233,4.514,4.6746,5.2113,6.1569,6.2609,6.5362,7.011,7.011,7.011,7.011,7.011,6.9669,6.8935,6.8935,6.8495,6.77,6.6916,6.5668,6.3559,5.5929,5.2804,5.1641,0.0,0.0,0.0,0.0,0.0,0.0,0.0,0.0,0.0,0.0,0.0,0.0,0.0,0.0,0.0,0.0,0.0,0.0,0.0,0.0,0.0,0.0,0.0,0.0,0.0,0.0,0.0,0.0,0.0,0.0,0.0,0.0,0.0,5.3991,5.6258,5.7611,5.6172,6.1806,6.4377,6.0723,6.4377,6.7569,6.9079,6.9214,6.9857,7.1323,7.209,7.2834,7.3601,7.4322,7.5067,7.5743,7.5777,7.5777,7.5777,7.5777,7.5777,7.5777,7.5777,7.5777,7.5777,7.5777,7.5371,7.4728,7.4728,7.4289,7.3234,6.918,6.756,6.7509,6.7509,6.6606,6.5332,2.4194,2.4194,2.4194,2.4194,2.4194,2.4415,2.497,2.7609,3.1164,3.5716,4.2543,4.8563,5.2737,5.7104,6.0297,6.1692,6.1484,6.0639,5.9171,5.4766,5.205,5.1756,5.7813,6.2695,6.5938,6.7393,6.8752,7.011,7.011,7.011,7.011,7.011,6.9963,6.9779,6.9779,6.9302,6.8568,6.8348,6.765,6.6246,6.1167,5.7459,5.4391,0.0,0.0,0.0,0.0,0.0,0.0,0.0,0.0,0.0,0.0,0.0,0.0,0.0,0.0,0.0,0.0,0.0,0.0,0.0,0.0,0.0,0.0,0.0,0.0,0.0,0.0,0.0,0.0,0.0,0.0,0.0,5.5615,5.8795,5.7627,6.0994,6.3416,6.299,6.6034,6.776,6.6745,6.8707,7.0444,7.1413,7.1481,7.2157,7.3589,7.439,7.5134,7.5946,7.669,7.7164,7.7391,7.7391,7.7391,7.7391,7.7391,7.7391,7.7391,7.7391,7.7391,7.7391,7.7391,7.7232,7.7063,7.7063,7.6927,7.6439,7.3132,7.1247,7.0377,7.0377,6.9452,6.8277,2.4194,2.4194,2.4194,2.4194,2.4194,2.4451,2.5269,2.8417,3.2632,3.8102,4.4672,5.0729,5.5673,5.9024,6.1557,6.3209,6.2291,6.097,5.9501,5.6124,5.5464,5.8327,6.3282,6.7173,6.9683,7.0624,7.1431,7.2129,7.2129,7.2129,7.2092,7.1762,7.1431,7.1101,7.077,7.0146,6.9412,6.9412,6.8935,6.7959,6.5238,6.2383,5.9304,5.474,5.1934,5.0005,4.6743,4.5094,4.4248,4.2909,0.0,0.0,0.0,0.0,0.0,0.0,0.0,0.0,0.0,0.0,0.0,0.0,0.0,0.0,0.0,0.0,0.0,0.0,0.0,0.0,0.0,0.0,0.0,0.0,6.0757,6.3835,6.37,6.5662,6.7218,6.7544,6.9282,7.05,7.05,7.1819,7.3003,7.3747,7.4086,7.4796,7.5946,7.642,7.7029,7.7807,7.8247,7.8619,7.8923,7.8923,7.8923,7.8923,7.8923,7.8923,7.8923,7.8923,7.8923,7.8923,7.8923,7.8754,7.845,7.845,7.828,0.0,0.0,0.0,0.0,0.0,7.2761,7.2078,2.4185,2.4194,2.4194,2.4194,2.4268,2.4598,2.5411,2.8936,3.4181,4.1479,4.67,5.2464,5.9612,6.119,6.2401,6.4103,6.2843,6.1053,5.892,5.7455,5.9036,6.4286,6.5558,6.8151,7.2532,7.2716,7.3487,7.4903,7.4903,7.4903,7.4867,7.4184,7.345,7.2753,7.1931,7.1123,7.0367,7.0257,6.9779,6.899,6.8189,6.6863,6.4778,5.9702,5.7773,5.7209,5.2919,5.0952,5.0088,4.7932,0.0,0.0,0.0,0.0,0.0,0.0,0.0,0.0,0.0,0.0,0.0,0.0,0.0,0.0,0.0,0.0,0.0,0.0,0.0,0.0,0.0,0.0,0.0,0.0,6.6034,6.962,7.0331,7.0094,6.9992,7.0398,7.1819,7.2766,7.2766,7.4119,7.527,7.5912,7.6623,7.7333,7.8077,7.8111,0.0,0.0,0.0,7.9532,8.0175,8.0209,8.0209,8.0209,8.0209,8.0209,8.0209,8.0209,8.0209,8.0209,8.0209,7.9837,7.9203,7.9203,7.8855,7.8213,7.8044,7.8,7.7853,7.6527,7.6055,7.6055,2.4151,2.4194,2.4194,2.4194,2.475,2.5448,2.6245,2.9763,3.4974,4.2294,4.7535,5.3078,5.9685,6.1692,6.3233,6.4921,6.4534,6.3973,6.3527,6.3456,6.4494,6.6893,6.9633,7.1835,7.3413,7.4111,7.4573,7.4903,7.4903,7.4903,7.4903,7.472,7.4573,7.439,7.3597,7.2789,7.1982,7.1344,7.061,6.9839,6.9662,6.8226,6.5881,6.3472,6.2557,6.2267,6.0095,5.9201,5.8806,5.7031,5.4735,5.2469,5.1623,4.8443,0.0,0.0,0.0,0.0,0.0,0.0,0.0,0.0,0.0,0.0,0.0,0.0,0.0,0.0,0.0,0.0,0.0,0.0,0.0,6.4465,6.8233,7.1142,7.1853,7.3375,7.3815,7.2157,7.3781,7.5067,7.5067,7.642,7.7401,7.7536,7.7696,7.8111,7.8855,7.8889,7.9228,7.9972,8.0006,8.0073,8.0209,8.0209,8.0209,8.0209,0.0,0.0,8.0209,8.0209,8.0209,8.0209,8.0209,8.0107,8.0006,8.0006,7.9904,7.9667,7.8474,7.8,7.7951,7.7671,7.7563,7.7563,2.3868,2.4066,2.4194,2.4194,2.486,2.5668,2.646,3.002,3.4791,4.0899,4.559,5.0362,5.5611,5.7251,5.8555,5.9962,6.0681,6.1735,6.3372,6.4623,6.6573,6.9376,7.1798,7.3487,7.4294,7.5102,7.5711,7.6114,7.6114,7.6114,7.6078,7.5674,7.5506,7.5469,7.4221,7.3487,7.3046,7.2239,7.1417,7.0697,7.0697,6.9701,6.808,6.6397,6.5497,6.4994,6.3695,6.3235,6.2994,6.1355,5.9831,5.8408,5.7163,5.4262,5.0507,0.0,0.0,0.0,0.0,0.0,0.0,0.0,0.0,0.0,0.0,0.0,0.0,0.0,0.0,5.7137,6.0148,0.0,6.6576,6.9202,7.1785,7.3781,7.4525,7.5912,7.6149,7.4255,7.5709,7.6826,7.6826,7.7874,7.8551,7.8551,7.8889,7.9261,7.9634,7.9667,7.9837,8.0175,8.0209,8.0209,8.0209,8.0209,8.0209,8.0209,8.0209,8.0209,8.0209,8.0209,8.0209,8.0209,8.0209,8.0209,8.0209,8.0209,8.0209,8.0141,7.9397,7.9092,7.9092,7.9092,7.9092,7.9092,2.3549,2.394,2.4194,2.4194,2.5002,2.5847,2.6497,3.002,3.4241,3.8843,4.2955,4.6874,5.0618,5.1903,5.3017,5.438,5.6584,5.9261,6.2487,6.493,6.782,7.138,7.2936,7.4074,7.4867,7.5689,7.6497,7.7289,7.7289,7.7289,7.7289,7.6628,7.635,7.6276,7.4808,7.4074,7.3891,7.3083,7.2275,7.1527,7.1527,7.1064,7.0201,6.8829,6.7815,6.6972,6.5903,6.5526,6.5254,6.3606,6.2961,6.2608,6.1407,5.9073,5.6006,5.197,5.0364,0.0,0.0,0.0,0.0,0.0,0.0,0.0,0.0,5.1826,5.3416,5.7457,6.0317,6.2888,6.5595,6.8335,7.1007,7.3534,7.5067,7.6217,7.6995,7.7739,7.7739,7.6521,7.7468,7.8213,7.8213,7.8889,7.9304,7.9304,7.987,8.0209,8.0209,8.0209,8.0209,8.0209,8.0209,8.0209,8.0209,8.0209,8.0209,8.0209,8.0209,8.0209,8.0209,8.0209,8.0209,8.0209,8.0209,8.0209,8.0209,8.0209,8.0209,8.0209,8.0209,8.0209,8.0209,8.0209,8.0209,8.0209,2.3241,2.3774,2.4194,2.4194,2.5474,2.6497,2.6607,3.002,3.3837,3.7309,4.1275,4.4745,4.7379,4.8994,5.0727,5.2787,5.7302,6.1327,6.4298,6.7674,7.0403,7.2275,7.323,7.4074,7.4867,7.5689,7.6497,7.7289,7.7289,7.7289,7.7289,7.7215,7.7179,7.7142,7.624,7.5432,7.472,7.3891,7.3083,7.2386,7.2386,7.1857,7.116,7.0965,7.0387,6.9496,6.7885,6.7307,6.704,6.5305,6.4217,6.3672,6.4284,6.2713,6.0214,5.7857,5.5192,5.2276,4.8992,4.8949,5.0455,5.2976,5.367,5.5497,0.0,6.1806,6.1467,6.6576,6.8368,6.9553,7.121,7.2868,7.4322,7.5303,7.6183,7.7029,7.7773,7.8517,7.8898,7.8729,7.8889,7.8991,7.8991,7.9634,8.0073,8.0073,8.0141,8.0209,8.0209,8.0209,8.0209,8.0209,8.0209,8.0209,8.0209,8.0209,8.0209,8.0209,8.0209,8.0209,8.0209,8.0209,8.0209,8.0209,8.0209,8.0209,8.0209,8.0209,8.0209,8.0209,8.0209,8.0209,8.0209,8.0209,8.0209,8.0209,2.35,2.3863,2.4194,2.4194,2.5149,2.6067,2.6534,2.9213,3.2039,3.4357,3.6927,3.9305,4.1295,4.3107,4.5172,4.7498,5.3522,5.8508,6.1687,6.7045,7.0624,7.1747,7.301,7.3854,7.4184,7.4992,7.5564,7.5894,7.5894,7.5894,7.5894,7.5894,7.5894,7.5858,7.5065,7.4515,7.4147,7.334,7.2826,7.2496,7.2496,7.2312,7.1931,7.149,7.1087,7.0471,6.7893,6.6649,0.0,6.5334,6.4824,6.4738,6.6003,6.4389,6.1621,5.9527,5.7836,5.68,5.7327,5.6411,5.6013,5.9007,6.0419,6.1893,6.5006,6.5764,6.6812,7.0297,7.1954,7.3071,7.4119,7.5202,7.6318,7.7502,7.7976,7.8652,8.0073,7.996,8.0238,8.1563,8.1133,8.0497,7.981,8.0006,8.0209,8.0209,8.0209,8.0209,8.0209,8.0209,8.0209,8.0209,8.0209,8.0209,8.0209,8.0209,8.0209,8.0209,8.0209,8.0209,8.0209,8.0648,8.1054,8.146,8.1021,8.1088,8.146,8.1021,8.1088,8.1494,8.1494,8.1494,8.1393,8.0513,8.0209,8.0209,2.3716,2.3976,2.4194,2.4194,2.4672,2.5338,2.6135,2.8332,3.0277,3.1445,3.3206,3.4894,3.631,3.7729,3.9758,4.2694,4.9174,5.4862,5.9037,6.5248,6.9449,7.0903,7.2092,7.2899,7.334,7.3964,7.4463,7.4903,7.4903,7.4903,7.4903,7.4903,7.4903,7.4867,7.4294,7.378,7.334,7.2973,7.2569,7.2165,7.2165,7.2165,7.2078,7.127,7.0279,6.8995,6.6659,6.5448,6.4733,6.3289,6.3103,6.3596,6.4511,6.3333,6.1353,6.0053,5.9238,5.9259,6.1658,6.1308,6.0994,6.4093,6.6214,6.7713,6.8295,6.9643,7.1352,7.3457,7.4907,7.6073,7.6794,7.7754,7.8783,7.9857,8.02,8.0841,8.2197,8.1652,8.1746,8.3407,8.2594,8.1699,8.1174,8.0844,8.0542,8.02,8.0209,8.0276,8.0479,8.0513,8.0581,8.0784,8.0818,8.0818,8.0818,8.0818,8.0818,8.0818,8.0818,8.0818,8.0818,8.1359,8.19,8.2374,8.1832,8.19,8.2374,8.1832,8.19,8.2408,8.2408,8.2408,8.2272,8.119,8.0818,8.0818,2.3716,2.3976,2.4194,2.4194,2.4231,2.4525,2.5301,2.7493,2.9054,2.9091,3.1188,3.2993,3.3807,3.3967,3.5634,3.9675,4.5204,5.1226,5.7652,6.2695,6.6843,7.0,7.0183,7.0954,7.2496,7.2569,7.334,7.4903,7.4903,7.4903,7.4903,7.4903,7.4903,7.4903,7.4867,7.3986,7.2606,7.334,7.2753,7.1344,7.1344,7.1344,7.1233,7.044,6.7687,6.4323,6.4213,6.4176,6.3392,5.8659,5.8044,5.9163,5.8494,5.865,5.9263,6.012,5.9294,5.828,5.9039,6.124,6.4143,6.7418,7.0248,7.2717,7.4839,7.5093,7.5415,7.7253,7.8361,7.9196,7.9913,8.1314,8.234,8.2375,8.3005,8.3479,8.3522,8.3536,8.3536,8.36,8.2594,8.23,8.3407,8.2481,8.1379,8.0276,8.0209,8.0513,8.1249,8.1283,8.1596,8.2306,8.234,8.234,8.234,8.234,8.234,8.234,8.234,8.234,8.234,8.2374,8.2408,8.2408,8.2374,8.2408,8.2408,8.2374,8.2408,8.2408,8.2408,8.2408,8.2382,8.2374,8.234,8.234,2.4026,2.4132,2.4194,2.4194,2.4194,2.4451,2.5269,2.6539,2.7598,2.8117,2.9843,0.0,0.0,0.0,0.0,0.0,4.3754,4.8563,5.2931,5.9747,6.4383,6.6035,6.8678,7.033,7.0881,7.0917,7.1174,7.1725,7.1725,7.1725,7.1725,7.1725,7.1725,7.1725,7.1725,7.1394,7.0917,7.1211,7.0991,7.0513,7.0513,7.0513,7.0367,6.9009,6.6292,6.2842,0.0,5.8118,5.7483,5.6381,5.6344,5.7095,5.899,5.8288,5.6696,5.6491,5.8321,6.1051,6.3821,6.6889,7.0007,7.3129,7.4948,7.6158,7.6902,7.7384,7.7872,7.8463,7.7956,7.7598,7.8407,7.9383,8.0288,8.0742,8.2375,8.3874,8.4613,8.4083,8.3895,8.4633,8.4411,8.4006,8.3642,8.2571,8.1746,8.1355,8.1789,8.1845,8.1308,8.1765,8.2137,8.2382,8.2408,8.2408,8.2408,8.2408,8.2408,8.2408,8.2408,8.2678,8.3118,8.3118,8.3422,8.3836,8.3355,8.3422,8.3802,8.3355,8.3422,8.3836,8.3836,8.3836,8.3836,8.3836,8.3836,8.37,2.4194,2.4194,2.4194,2.4194,2.4194,0.0,0.0,0.0,0.0,0.0,0.0,0.0,0.0,0.0,0.0,0.0,0.0,4.5369,4.9214,5.5159,5.938,6.141,6.3812,6.536,6.5949,6.5654,6.6097,6.7276,6.7731,6.8398,6.9242,6.9816,7.011,7.011,7.011,6.9926,6.9706,6.9963,6.9779,6.9169,6.8311,6.759,6.6806,6.464,6.1594,0.0,5.4667,5.2344,5.1022,5.1536,5.2501,5.3749,5.5537,5.5868,5.5768,5.6712,5.9575,6.358,6.8589,7.1451,7.3924,7.7623,7.8575,7.8867,7.9635,7.9916,8.0029,8.0105,7.86,7.7522,7.8293,7.9118,7.9692,7.9924,8.2186,8.4217,8.4953,8.441,8.4453,8.5752,8.5544,8.5026,8.4289,8.3402,8.2637,8.1956,8.2579,8.2628,8.174,8.2408,8.2915,8.3159,8.3219,8.3219,8.3219,8.3219,8.3219,8.3219,8.3219,8.343,8.3896,8.3896,8.4167,8.458,8.4099,8.4167,8.4546,8.4099,8.4174,8.4614,8.4614,8.4614,8.4614,8.4614,8.4614,8.4444,2.4194,2.4194,2.4194,0.0,0.0,0.0,0.0,0.0,0.0,0.0,0.0,0.0,0.0,0.0,0.0,0.0,0.0,0.0,4.6342,4.9104,5.2297,5.6187,5.6119,5.6742,5.8317,5.7596,5.8736,6.1856,6.3063,6.4874,6.7187,6.8678,6.9449,6.9486,6.9449,6.9009,6.8385,6.9082,6.8508,6.693,6.4617,6.2707,6.097,5.785,5.4205,5.0618,4.9738,4.7352,4.4663,4.4773,4.7131,4.9858,4.9187,5.2234,5.6796,6.0725,6.3148,6.6046,7.2826,7.4815,7.6094,8.0768,8.1174,8.0941,8.2974,8.2624,8.1871,8.1875,8.0021,7.8552,7.9082,8.0057,8.0534,7.9743,8.248,8.4719,8.4719,8.4719,8.5289,8.6742,8.6009,8.5391,8.537,8.5023,8.408,8.2349,8.2754,8.2903,8.2459,8.3152,8.3896,8.458,8.4614,8.4614,8.4614,8.4614,8.4614,8.4614,8.4614,8.4614,8.4614,8.4614,8.4614,8.4614,8.4614,8.4614,8.4614,8.4614,8.4614,8.4614,8.4614,8.4614,8.4614,8.4614,8.4614,8.4614,0.0,0.0,0.0,0.0,0.0,0.0,0.0,0.0,0.0,0.0,0.0,0.0,0.0,0.0,0.0,0.0,0.0,0.0,4.0663,4.4819,4.8159,5.0352,5.3256,5.5306,5.6301,5.6127,5.6448,5.7295,5.7624,5.8412,5.9612,6.0015,6.0529,6.1043,6.0456,6.0419,6.0713,5.9734,5.9391,5.9465,5.8265,5.7494,5.698,5.5537,5.2894,4.9784,4.893,4.6544,4.4093,4.5874,5.0278,5.5354,5.7519,5.9917,6.2377,6.4604,6.8091,7.2012,7.5619,7.8825,8.1582,8.3427,8.3692,8.3458,8.3391,8.3177,8.1978,7.8395,7.668,7.4808,7.1409,7.4882,7.7986,7.7157,8.2296,8.6407,8.6407,8.6407,8.622,8.5788,8.6247,8.6466,8.6222,8.6049,8.602,8.623,8.5259,8.422,8.3264,8.393,8.4411,8.458,8.4614,8.4614,8.4614,8.4614,8.4614,8.4614,8.4614,8.4614,8.4614,8.4614,8.4614,8.4614,8.4614,8.4614,8.4614,8.4614,8.4614,8.4614,8.4614,8.4614,8.4614,8.4614,8.4614,8.4614,0.0,0.0,0.0,0.0,0.0,0.0,0.0,0.0,0.0,0.0,0.0,0.0,0.0,0.0,0.0,0.0,0.0,0.0,0.0,4.0495,4.2919,4.4525,4.6947,4.8633,4.9455,4.9455,5.0147,5.1578,5.1775,5.2858,5.4693,5.5049,5.5453,5.5868,5.5416,5.5453,5.5831,5.4913,5.4583,0.0,0.0,5.2197,5.1683,5.0178,4.8499,4.6856,4.637,4.6874,4.8233,5.1379,5.5306,5.9281,6.1447,6.3503,6.5755,6.8752,7.1835,7.4992,7.85,8.1362,8.3491,8.3968,8.4352,8.3911,8.1326,8.0702,7.9344,7.4478,7.1982,6.9949,6.7614,7.1872,7.5454,7.4661,8.0938,8.595,8.595,8.595,8.598,8.6047,8.6936,8.7248,8.6586,8.7079,8.7457,8.7443,8.654,8.5715,8.5111,8.5307,8.5395,8.5395,8.4864,8.4614,8.4614,8.4614,8.4614,8.4614,8.4614,8.4614,8.4614,8.4614,8.4614,8.4614,8.4614,8.4614,8.4614,8.4614,8.4614,8.4614,8.4614,8.4817,8.5148,8.5148,8.5351,8.5594,0.0,0.0,0.0,0.0,0.0,0.0,0.0,0.0,0.0,2.95,2.928,2.8981,2.8981,3.0356,0.0,0.0,0.0,0.0,0.0,0.0,3.7852,3.9357,3.9792,4.0386,4.1198,4.1235,4.259,4.5369,4.5805,4.7489,5.0408,5.1232,5.1636,5.1746,5.1746,5.182,5.1893,5.1673,5.1232,5.0518,4.8269,4.6975,4.6232,0.0,4.3396,4.3506,4.3616,4.7755,5.3801,5.7838,6.0774,6.2915,6.404,6.6022,6.8788,7.323,7.4992,7.657,8.1122,8.2884,8.3418,8.3528,8.4078,8.3324,7.8427,7.7215,7.5637,7.0257,6.699,6.5154,6.5191,6.9522,7.2936,7.2569,7.914,8.4425,8.4866,8.4939,8.549,8.6978,8.7766,8.7887,8.7141,8.8117,8.8506,8.7764,8.7504,8.7351,8.7241,8.6696,8.6316,8.6177,8.5144,8.4614,8.4614,8.4614,8.4614,8.4614,8.4614,8.4614,8.4614,8.4614,8.4614,8.4614,8.4614,8.4614,8.4614,8.4614,8.4647,8.4749,8.4749,8.5249,8.5953,8.5953,8.6332,8.6907,0.0,0.0,0.0,0.0,0.0,0.0,0.0,0.0,0.0,0.0,3.0644,2.8981,0.0,0.0,0.0,0.0,0.0,0.0,0.0,0.0,0.0,3.6898,3.7632,3.8368,3.9208,3.9208,3.9465,4.0047,4.0115,4.0781,4.2037,4.2828,4.3562,4.4195,4.4195,4.4562,4.5121,4.3746,4.3489,4.3901,4.2791,4.2645,4.3094,4.2653,4.291,0.0,4.4268,4.8223,5.3801,5.7838,6.338,6.9119,7.1931,7.4023,7.5858,7.8075,7.8862,7.958,8.2443,8.3271,8.3564,8.4242,8.4499,8.3324,7.8427,7.6775,7.4001,6.5765,6.42,6.3099,5.9208,6.464,7.033,7.2202,7.8185,8.3544,8.6224,8.6574,8.6921,8.7876,8.8133,8.8649,8.977,8.9236,8.9399,9.088,9.0047,8.9048,8.8055,8.701,8.5928,8.4943,8.4713,8.4614,8.4614,8.4614,8.4614,8.4614,8.4614,8.4614,8.4614,8.4614,8.4614,8.4614,8.4614,0.0,8.4614,8.4614,8.4986,8.5587,8.5587,8.6061,8.6704,8.6704,8.6805,8.6907,0.0,0.0,0.0,0.0,0.0,0.0,0.0,3.0326,3.2015,3.5282,3.4364,3.2773,3.1041,3.0827,3.065,0.0,0.0,0.0,0.0,0.0,0.0,3.4981,3.5752,3.6369,3.6765,3.7213,3.7661,3.8072,0.0,3.7845,3.8667,3.8615,3.8799,3.9166,3.9166,3.9614,4.032,3.9541,3.968,4.0377,4.0002,4.0589,4.169,0.0,0.0,0.0,4.4892,4.9003,5.4168,5.6528,6.3025,7.066,7.3876,7.6004,7.7546,7.8809,7.9486,8.0147,8.1709,8.2757,8.3381,8.3361,8.3361,8.1525,7.45,7.2312,6.9302,6.0823,5.9722,5.9575,5.7214,6.2768,6.8164,6.9743,7.6497,8.226,8.4242,8.593,8.7325,8.8096,8.8573,8.929,9.0464,9.0445,9.0771,9.173,9.1249,9.0676,9.0087,8.8335,8.6769,8.5592,8.4943,8.4614,8.4614,8.4614,8.4614,8.4614,8.4614,8.4614,8.4614,8.4614,8.4614,8.4633,8.5266,8.5162,8.4633,8.5266,8.564,8.5817,8.5817,8.6467,8.7482,8.7482,8.7719,8.8023,0.0,0.0,0.0,0.0,0.0,0.0,0.0,3.2125,3.396,3.8227,3.8484,3.7081,3.399,3.2596,3.139,0.0,0.0,0.0,0.0,0.0,0.0,0.0,0.0,0.0,3.4747,0.0,0.0,3.6721,3.6053,0.0,0.0,0.0,0.0,0.0,3.6237,3.6641,3.7235,3.7419,3.7852,0.0,0.0,3.9672,0.0,0.0,0.0,0.0,0.0,4.8746,5.3078,5.4777,6.086,6.8348,7.1747,7.4536,7.6702,7.7561,7.8479,7.9507,8.0681,8.206,8.2941,8.215,8.1929,7.9617,7.0697,6.8017,6.5131,5.7017,5.5978,5.6528,5.6528,6.1263,6.5742,6.7444,7.4001,7.969,8.1893,8.4535,8.6757,8.828,8.9033,8.9767,9.0776,9.1436,9.1803,9.1803,9.1803,9.1675,9.1435,8.96,8.8043,8.6817,8.5861,8.5369,8.5369,8.5369,8.5369,8.5369,8.5369,8.5369,8.5369,8.5369,8.5463,8.5712,8.6632,8.6612,8.5977,8.6636,8.6816,8.6654,8.6366,8.7233,8.8599,8.8337,8.8787,8.9483,0.0,0.0,0.0,0.0,0.0,0.0,0.0,3.4394,3.7558,4.2331,4.1662,3.9819,3.7301,3.4988,3.2375,0.0,0.0,0.0,0.0,0.0,0.0,0.0,0.0,0.0,0.0,0.0,0.0,3.4137,3.4064,0.0,0.0,0.0,0.0,0.0,0.0,3.6347,3.6457,3.7199,0.0,0.0,0.0,0.0,0.0,0.0,0.0,0.0,0.0,4.6094,4.848,5.3004,5.7042,6.0884,6.4921,6.9779,7.4184,7.4992,7.6335,7.8023,8.0372,8.1636,8.2113,8.1305,8.1122,7.8772,6.983,6.7187,6.431,5.6161,5.5144,5.5695,5.5695,5.8584,6.2438,6.6966,7.022,7.4536,8.1269,8.3104,8.5106,8.8849,8.9363,8.9987,9.1546,9.1767,9.1803,9.1803,9.1803,9.1342,9.0208,8.9965,8.9284,8.8065,8.7929,8.7861,8.7861,8.7861,8.7861,8.7861,8.7861,8.7861,8.7861,8.7861,8.8307,8.9081,8.9196,8.9585,0.0,8.9015,8.8953,8.9389,8.8239,8.9014,9.0554,8.9436,8.9758,9.0666,0.0,0.0,0.0,0.0,0.0,0.0,3.328,3.4461,3.7074,4.3387,4.2828,4.1075,3.9174,3.7191,3.4144,2.9421,0.0,0.0,0.0,0.0,0.0,0.0,0.0,0.0,0.0,0.0,3.3807,3.3807,3.4277,0.0,0.0,0.0,0.0,0.0,0.0,3.4935,3.5211,3.6325,0.0,0.0,0.0,0.0,0.0,0.0,0.0,0.0,0.0,0.0,4.8113,5.0058,5.3875,5.7875,5.8547,6.2254,6.732,7.2092,7.4573,7.6408,7.8883,8.0131,8.0697,8.0351,7.8442,7.4918,6.8458,6.4824,6.108,5.4939,5.4693,5.5585,5.5585,5.7813,6.0627,6.3552,6.732,7.1197,7.5102,7.969,8.3618,8.6224,8.8225,9.0024,9.1657,9.1803,9.1803,9.1803,9.1803,9.1602,9.1116,9.0384,8.9801,8.9306,8.8579,8.8201,8.8259,8.8201,8.8201,8.8201,8.8259,8.8259,8.8236,8.8719,8.9166,8.9553,9.0786,9.1091,0.0,9.0938,9.1032,9.1003,9.0498,9.1052,9.2077,9.1565,9.1716,9.1964,0.0,0.0,0.0,0.0,0.0,2.8332,3.35,3.4424,3.6817,4.3158,4.258,4.1148,4.0018,3.7595,3.4431,3.0418,2.9947,0.0,0.0,0.0,0.0,0.0,0.0,0.0,0.0,0.0,3.3917,3.4167,3.4797,3.4849,0.0,0.0,3.4354,3.3314,0.0,0.0,0.0,0.0,0.0,0.0,0.0,0.0,0.0,0.0,0.0,0.0,0.0,0.0,0.0,0.0,0.0,5.4509,5.3628,5.6308,6.1165,6.8017,7.1835,7.4353,7.6827,7.8626,7.9743,7.9522,7.6549,7.2437,6.7614,6.3356,5.9171,5.4803,5.4803,5.5658,5.5915,5.7556,5.9453,6.13,6.4677,6.8151,7.1233,7.6497,8.1012,8.3581,8.6097,8.8445,9.0519,9.1363,9.1803,9.1803,9.1803,9.1803,9.1803,9.0984,9.0539,9.0539,8.9703,8.9284,8.9306,8.9284,8.9284,8.9284,8.9306,8.9306,8.9284,8.9915,9.0438,9.1004,9.243,9.2817,0.0,9.2998,9.2985,9.2649,9.2245,9.267,9.3409,9.3038,9.3131,9.3224,0.0,0.0,0.0,0.0,0.0,0.0,3.2002,3.4688,3.7742,4.1772,4.0936,3.9908,3.9908,3.5569,3.2619,3.2583,3.0381,0.0,0.0,0.0,0.0,0.0,0.0,0.0,0.0,0.0,3.4204,3.4997,3.5269,3.5431,3.5471,3.4967,3.4314,3.3554,0.0,0.0,0.0,0.0,0.0,0.0,0.0,0.0,0.0,0.0,0.0,0.0,0.0,0.0,0.0,0.0,0.0,0.0,0.0,5.3041,5.6796,6.2524,6.7577,7.1857,7.428,7.7304,7.9596,7.8809,7.613,7.2437,6.7614,6.3356,5.9501,5.6246,5.5585,5.5842,5.6638,5.7446,5.8804,6.119,6.2328,6.5105,7.1578,7.3913,7.6775,8.1636,8.2957,8.4702,8.7912,9.0408,9.1803,9.1803,9.1803,9.1803,9.1803,9.1803,9.1785,9.1785,9.1785,9.1785,9.1785,9.1785,9.1785,9.1785,9.1785,9.1785,9.1785,9.1785,9.2703,9.4244,9.4281,9.5161,0.0,9.5286,9.4784,9.4619,9.3386,9.3638,9.4633,9.3363,9.3719,9.4402,0.0,0.0,0.0,0.0,0.0,0.0,0.0,3.1158,3.2956,3.7588,3.6743,3.6163,3.7294,3.4534,3.2583,3.2583,3.0381,0.0,0.0,0.0,0.0,0.0,0.0,0.0,0.0,0.0,3.4035,3.4806,3.6497,3.7044,3.6521,3.6401,3.5472,3.3903,3.3477,3.2791,0.0,0.0,0.0,0.0,0.0,0.0,0.0,0.0,0.0,0.0,0.0,0.0,0.0,0.0,0.0,0.0,0.0,0.0,0.0,5.6455,6.1704,6.6916,6.9302,7.1138,7.2165,7.1372,6.8678,6.5558,6.2952,5.9612,5.6528,5.4399,5.4399,5.484,5.5097,5.6271,5.8143,6.1117,6.3246,6.5802,6.9522,7.4771,7.9029,8.1122,8.5967,8.9528,9.0555,9.1363,9.1803,9.1803,9.1803,9.1803,9.1803,9.1803,9.1803,9.1803,9.1803,9.1803,9.1803,9.1803,9.1803,9.1803,9.1803,9.1803,9.184,9.2978,9.3786,9.4336,9.5474,9.6245,9.6666,9.6242,9.6104,9.6047,9.5631,9.5749,9.6027,9.5668,9.5749,9.5866,0.0,0.0,0.0,0.0,0.0,0.0,0.0,2.8913,3.0198,3.355,3.2816,3.2846,3.5092,3.2632,3.1224,3.2314,3.0165,0.0,0.0,0.0,0.0,0.0,0.0,0.0,3.1695,3.2409,3.397,3.6449,3.7712,3.837,3.8475,3.8296,3.6814,3.4216,3.3738,3.2794,0.0,0.0,0.0,0.0,0.0,0.0,4.2653,0.0,0.0,0.0,0.0,0.0,0.0,0.0,0.0,0.0,0.0,0.0,0.0,0.0,5.6345,6.086,6.4787,6.71,6.8311,6.7847,6.5007,6.2071,6.108,5.7886,5.4961,5.4252,5.4252,5.4583,5.5207,5.6113,5.7655,6.0272,6.2511,6.5191,6.8825,7.4037,7.8589,8.1546,8.6701,9.0115,9.0408,9.1253,9.1803,9.1803,9.1803,9.1803,9.1803,9.1803,9.1803,9.1803,9.1803,9.1803,9.1803,9.1803,9.1803,9.1803,9.1803,9.195,9.2317,9.3382,9.4189,9.4813,9.5804,9.6428,0.0,9.6685,9.6685,9.6685,9.6685,9.6685,9.6685,9.6685,9.6685,9.6531,0.0,0.0,0.0,0.0,0.0,0.0,0.0,2.7776,2.9023,2.9843,2.928,2.9971,3.3003,2.9996,2.8846,3.1562,0.0,0.0,0.0,0.0,0.0,0.0,0.0,0.0,3.1137,3.1409,3.4006,3.9048,3.8851,3.9549,4.0998,4.0542,3.835,3.4787,3.3998,3.278,0.0,0.0,0.0,0.0,0.0,0.0,0.0,0.0,0.0,0.0,0.0,0.0,0.0,0.0,0.0,0.0,0.0,0.0,0.0,0.0,0.0,0.0,0.0,6.4383,6.6819,6.6783,6.3956,6.1165,6.108,5.7629,0.0,5.5291,5.484,5.4803,5.6418,5.6701,5.7288,5.9086,6.0823,6.3906,6.9486,7.2753,7.6827,8.3014,8.5877,8.7619,8.8316,9.0445,9.1803,9.1803,9.1803,9.1803,9.1803,9.1803,9.1803,9.1803,9.1803,9.1803,9.1803,9.1803,9.184,9.1877,9.1877,9.2354,9.3198,9.3235,9.4116,9.5492,9.5565,9.6025,9.6685,9.6685,9.6685,9.6685,9.6685,9.6685,9.6685,9.6685,9.6685,9.655,0.0,0.0,0.0,0.0,0.0,0.0,0.0,0.0,0.0,0.0,2.7268,2.7582,2.8626,2.7906,2.777,0.0,0.0,0.0,0.0,0.0,0.0,0.0,0.0,0.0,2.9872,3.1913,3.4093,3.6465,3.9805,4.1614,4.2001,4.2407,4.0954,3.79,3.6581,3.4855,0.0,0.0,0.0,0.0,0.0,0.0,0.0,0.0,0.0,0.0,4.3506,4.4011,0.0,0.0,0.0,0.0,0.0,0.0,0.0,0.0,4.9591,5.0986,5.3775,0.0,5.8302,5.7666,5.7274,5.6833,0.0,5.5207,5.4289,5.3838,5.3618,5.3959,5.5574,5.5879,5.7017,6.0456,6.3466,6.688,7.1321,7.8295,8.3985,8.6738,8.9197,9.0482,9.0078,9.1106,9.1803,9.1803,9.1803,9.1803,9.1803,9.1803,9.1803,9.1803,9.1803,9.1803,9.1803,9.1803,9.2134,9.2794,9.2794,9.3235,9.4042,9.4666,9.5125,9.5528,9.6171,9.6539,9.6685,9.6685,9.6685,9.6685,9.6685,9.6685,9.6685,9.6685,9.6685,9.6647,0.0,0.0,0.0,0.0,0.0,0.0,0.0,0.0,0.0,0.0,0.0,2.5763,2.6353,2.6744,0.0,0.0,0.0,0.0,0.0,0.0,0.0,0.0,0.0,2.7894,2.9743,3.1477,3.4134,3.7652,4.0426,4.2489,4.3842,4.391,4.2185,3.887,3.6366,3.4871,0.0,0.0,0.0,0.0,3.9896,0.0,0.0,0.0,0.0,0.0,4.3506,4.424,0.0,4.7021,4.8122,4.881,0.0,0.0,0.0,0.0,4.7498,4.8122,4.9407,5.2601,5.5511,5.5071,5.5291,5.5475,5.506,5.4363,5.3728,5.3287,5.3214,5.3691,5.5291,5.7409,5.9501,6.13,6.6512,7.1762,7.5836,8.1195,8.5563,8.7912,8.9344,9.0408,9.1106,9.1546,9.1803,9.1803,9.1803,9.1803,9.1803,9.1803,9.1803,9.1803,9.1803,9.1803,9.1803,9.1803,9.2024,9.2501,9.2905,9.3529,9.4336,9.5144,9.5675,9.6061,9.6502,9.6685,9.6685,9.6685,9.6685,9.6685,9.6685,9.6685,9.6685,9.6685,9.6685,9.6685,0.0,0.0,0.0,0.0,0.0,0.0,0.0,0.0,0.0,0.0,0.0,0.0,0.0,0.0,0.0,0.0,0.0,0.0,0.0,0.0,0.0,0.0,2.686,2.7943,3.02,3.1224,3.4347,3.9762,4.1204,4.32,4.5703,4.5514,4.3301,3.9321,3.5654,3.4552,0.0,0.0,0.0,0.0,3.9475,0.0,0.0,0.0,0.0,0.0,0.0,0.0,0.0,4.8086,4.9407,5.0205,4.9958,0.0,0.0,0.0,0.0,0.0,4.7159,5.1463,5.5438,5.4851,5.5034,5.5365,5.5108,5.4179,5.3398,5.3398,5.3471,5.4289,5.665,6.0126,6.2719,6.3025,6.9926,7.6702,8.0791,8.3051,8.5289,8.7876,8.8536,8.9491,9.1436,9.173,9.1803,9.1803,9.1803,9.1803,9.1803,9.1803,9.1803,9.1803,9.1803,9.1803,9.1803,9.1803,9.1877,9.2024,9.2868,9.3712,9.452,9.5327,9.6061,9.6685,9.6685,0.0,9.6685,9.6685,9.6685,9.6685,9.6685,9.6685,9.6685,9.6685,9.6685,9.6685,0.0,0.0,0.0,0.0,0.0,0.0,0.0,0.0,0.0,0.0,0.0,0.0,0.0,0.0,0.0,0.0,0.0,0.0,0.0,0.0,0.0,2.7587,2.7621,2.8712,3.0987,3.2994,3.5385,3.8227,4.2794,4.5263,4.5771,4.8139,4.6484,4.1397,3.8284,3.652,3.5923,3.6305,0.0,0.0,4.0097,0.0,0.0,0.0,0.0,0.0,0.0,0.0,0.0,4.5324,4.6425,4.7443,4.6058,0.0,0.0,0.0,0.0,0.0,4.8426,5.2354,5.4777,5.1363,5.2574,5.4216,5.2868,5.3408,5.4216,5.4216,5.4766,5.6969,6.2756,6.2695,6.3539,6.8921,7.3839,7.8353,8.2463,8.617,8.8409,8.8206,9.0005,9.1143,9.0812,9.14,9.1803,9.1803,9.1803,9.1803,9.1803,9.1803,9.1803,9.1803,9.1803,9.1803,9.1803,9.1803,9.217,9.2905,9.3712,9.4556,9.5364,9.6171,9.6575,9.6685,0.0,9.6685,9.6685,9.6685,9.6685,9.6685,9.6685,9.6685,9.6685,9.6685,9.6685,9.6612,0.0,0.0,0.0,0.0,0.0,0.0,0.0,0.0,0.0,0.0,0.0,0.0,0.0,0.0,0.0,0.0,0.0,0.0,0.0,0.0,2.8002,2.9557,3.0403,3.1316,3.2374,3.5351,3.8227,4.0886,4.5317,4.7699,4.8052,4.7277,4.4931,4.1276,3.8566,3.7212,3.7032,3.7284,3.7756,3.8486,0.0,0.0,0.0,0.0,0.0,0.0,0.0,0.0,0.0,0.0,4.7085,4.8159,4.6535,0.0,0.0,0.0,0.0,0.0,4.6957,5.0261,5.2968,5.2868,5.6602,6.0309,6.0468,6.0725,6.0566,5.9208,5.9612,6.1239,6.4664,6.688,7.0697,7.85,7.9491,8.0702,8.4776,8.617,8.7308,8.8666,8.9821,9.0702,9.1216,9.1583,9.1803,9.1803,9.1803,9.1803,9.1803,9.1803,9.1803,9.1803,9.1803,9.1803,9.1803,9.2281,9.2464,9.2427,9.3675,9.4483,9.4887,9.6135,9.6685,9.6685,0.0,9.6685,9.6685,9.6685,9.6685,9.6685,9.6685,9.6685,9.6649,9.6208,9.6061,9.5951,0.0,0.0,0.0,0.0,0.0,0.0,0.0,0.0,0.0,0.0,0.0,0.0,0.0,0.0,0.0,0.0,0.0,0.0,0.0,0.0,2.8813,3.1099,3.2939,3.4326,3.5216,3.8193,4.1305,4.4471,4.7699,4.9619,5.0246,4.6672,4.3631,4.1193,3.8893,3.7855,3.7837,3.8018,3.8316,3.8828,0.0,0.0,0.0,0.0,0.0,0.0,0.0,0.0,0.0,0.0,0.0,0.0,0.0,0.0,0.0,4.4791,4.3947,4.424,4.6214,4.915,5.2454,5.5868,6.0052,6.3967,6.6549,6.6526,6.5668,6.4701,6.5338,6.6439,6.76,7.1982,7.7708,8.4756,8.3765,8.3324,8.6811,8.6554,8.6921,8.94,8.984,9.0427,9.1693,9.1803,9.1803,9.1803,9.1803,9.1803,9.1803,9.1803,9.1803,9.1803,9.1803,9.1913,9.2097,9.2758,9.2648,9.1803,9.3675,9.4483,9.4336,9.5951,9.6685,9.6685,9.6685,9.6685,9.6685,9.6685,9.6685,9.6685,9.6685,9.6575,9.6355,9.5712,9.5382,9.5107,0.0,0.0,0.0,0.0,0.0,0.0,0.0,0.0,0.0,0.0,0.0,0.0,0.0,0.0,0.0,0.0,0.0,0.0,0.0,0.0,2.8813,3.1099,3.392,3.7065,4.0561,4.1576,4.3876,4.7582,4.9221,5.0358,5.0952,4.8448,4.5526,4.2301,4.0647,3.899,3.7594,3.832,3.8658,3.8828,4.0443,0.0,0.0,0.0,0.0,0.0,0.0,0.0,0.0,0.0,0.0,0.0,0.0,0.0,4.603,4.581,4.5186,4.5296,4.8462,5.1693,5.5097,5.9061,5.8731,5.8829,6.4224,6.4861,6.5264,6.8825,7.0807,7.2606,7.4918,7.8148,8.0938,8.2333,8.4168,8.6077,8.7876,8.9307,9.0262,9.0482,9.1179,9.1657,9.1803,9.1803,9.1803,9.1803,9.1803,9.1803,9.1803,9.1803,9.1803,9.1803,9.1803,9.217,9.3015,9.3088,9.2648,9.184,9.4263,9.5034,9.4336,9.5951,9.6685,9.6685,9.6685,9.6685,9.6685,9.6685,9.6685,9.6685,9.6685,9.6245,9.5565,9.5528,9.5034,9.4263,0.0,0.0,0.0,0.0,0.0,0.0,0.0,0.0,0.0,0.0,0.0,0.0,0.0,0.0,0.0,0.0,0.0,0.0,0.0,2.785,2.9736,3.2442,3.4979,3.8294,4.2476,4.4674,4.7394,5.0642,5.161,5.1741,5.0945,4.7453,4.4403,4.1758,3.9991,3.913,3.899,3.8799,3.8982,3.9533,4.0663,4.1095,0.0,0.0,0.0,0.0,0.0,0.0,0.0,0.0,4.4635,4.5333,4.4644,4.5443,4.6461,4.5434,4.4957,4.5177,4.7462,5.1536,5.5868,5.8902,6.0884,6.382,7.0513,7.2165,7.2738,7.4243,7.6313,7.7928,7.8332,8.1856,8.4682,8.4462,8.604,8.7839,8.9454,9.0225,9.0812,9.1289,9.162,9.1803,9.1803,9.1803,9.1803,9.1803,9.1803,9.1803,9.1803,9.1803,9.1803,9.1803,9.1803,9.2207,9.3088,9.3602,9.3675,9.3382,9.4813,9.507,9.4336,9.5951,9.6685,9.6685,9.6685,9.6685,9.6685,9.6685,9.6685,9.6649,9.6171,9.5474,9.4703,9.4189,9.3822,9.3418,0.0,0.0,0.0,0.0,0.0,0.0,0.0,0.0,0.0,0.0,0.0,0.0,0.0,0.0,0.0,0.0,0.0,0.0,2.67,2.8121,3.0117,3.2611,3.5329,3.8645,4.2611,4.5892,4.9003,5.1961,5.3084,5.2586,5.0487,4.7377,4.4782,4.2721,4.0735,4.0267,4.0936,3.9643,3.9533,4.0341,4.0883,4.125,0.0,0.0,0.0,0.0,0.0,0.0,0.0,0.0,4.4461,4.5076,4.4745,4.559,4.6535,4.5727,4.6388,4.7672,4.903,5.2821,5.7189,6.0627,6.36,6.765,7.5175,7.6702,7.7215,7.9491,8.0922,8.1672,8.1395,8.4022,8.6151,8.5874,8.7582,8.9344,9.0445,9.0812,9.1179,9.173,9.1803,9.1803,9.1803,9.1803,9.1803,9.1803,9.1803,9.1803,9.1803,9.1803,9.1803,9.1803,9.1803,9.2207,9.3088,9.3896,9.4299,9.4299,9.5364,9.5474,9.4703,9.6098,9.6685,9.6685,9.6428,9.6318,9.6318,9.6318,9.6318,9.6282,9.5712,9.485,9.3859,9.3308,9.2941,9.2611,0.0,0.0,0.0,0.0,0.0,0.0,0.0,0.0,0.0,0.0,0.0,0.0,0.0,0.0,0.0,0.0,0.0,0.0,2.67,2.8121,2.9653,3.1133,3.4787,3.8137,4.1089,4.4838,4.8222,5.1183,5.3311,5.2736,4.9557,4.8705,4.7425,4.5773,4.3387,4.2772,4.3322,4.0936,4.0377,4.1103,4.1132,4.1617,4.2396,0.0,0.0,0.0,0.0,0.0,0.0,0.0,4.4158,4.3947,4.6315,4.6535,4.6104,4.6856,4.9975,5.3324,5.4142,5.6161,5.9391,6.5044,6.6549,6.8715,7.679,7.6717,7.6995,8.4315,8.4535,8.3638,8.4462,8.4609,8.4903,8.5673,8.85,9.0592,9.0629,9.1289,9.1803,9.1803,9.1803,9.1803,9.1803,9.1803,9.1803,9.1803,9.1803,9.1803,9.1803,9.1803,9.1803,9.1803,9.1803,9.2207,9.3088,9.3896,9.4299,9.4336,9.5914,9.6282,9.5528,9.6318,9.6685,9.6649,9.5859,9.5492,9.5492,9.5492,9.5455,9.5455,9.5455,9.452,9.3088,9.3088,9.2537,9.1803,0.0,0.0,0.0,0.0,0.0,0.0,0.0,0.0,0.0,0.0,0.0,0.0,0.0,0.0,0.0,0.0,0.0,0.0,2.67,2.8121,2.9441,3.0378,3.3491,3.6107,3.807,4.2091,4.6443,5.106,5.2138,5.1274,4.8652,4.7843,4.6315,4.4204,4.4048,4.3497,4.258,4.1295,4.1213,4.1984,4.2543,4.258,4.247,0.0,0.0,0.0,0.0,0.0,0.0,0.0,0.0,0.0,4.5177,4.6838,4.8205,4.6691,4.8343,5.0592,5.0215,5.56,6.1765,6.349,6.9522,7.5946,7.947,7.9727,8.0608,8.56,8.538,8.4499,8.5306,8.6371,8.7215,8.7435,8.9234,9.0812,9.1363,9.1657,9.1803,9.1803,9.1803,9.1803,9.1803,9.1803,9.1803,9.1803,9.1803,9.1803,9.1803,9.1803,9.1803,9.1803,9.1803,9.2207,9.3088,9.3896,9.4593,9.518,9.6208,9.6282,9.5528,9.6318,9.6685,9.6649,9.5859,9.5492,9.5455,9.4887,9.4336,9.3822,9.3822,9.3161,9.217,9.217,9.2024,9.1803,0.0,0.0,0.0,0.0,0.0,0.0,0.0,0.0,2.3274,2.3004,2.4485,2.5499,0.0,0.0,0.0,2.67,2.67,2.67,2.67,2.8121,2.9441,3.048,3.3085,3.5745,3.8355,4.1463,4.4554,4.7607,4.9244,4.9112,4.7352,4.8186,4.7976,4.6884,4.7388,4.6874,4.5553,4.3782,4.3269,4.3754,4.3901,4.3864,4.3791,0.0,0.0,0.0,0.0,0.0,0.0,0.0,0.0,0.0,4.459,4.6067,4.7802,4.8563,5.0765,5.3529,5.6235,6.1471,6.6866,6.9765,7.4845,7.9837,8.2737,8.3398,8.4078,8.65,8.6481,8.6187,8.6664,8.8059,8.916,8.916,9.0225,9.1253,9.173,9.1803,9.1803,9.1803,9.1803,9.1803,9.1803,9.1803,9.1803,9.1803,9.1803,9.1803,9.1803,9.1803,9.1803,9.1803,9.1803,9.2207,9.3088,9.3896,9.4703,9.5492,9.6318,9.6465,9.5988,9.6502,9.6685,9.6649,9.5511,9.485,9.4501,9.4006,9.3529,9.3088,9.3088,9.2574,9.1803,9.1803,9.1803,9.1803,0.0,0.0,0.0,0.0,0.0,0.0,0.0,2.297,2.3173,2.2489,2.4146,2.5169,0.0,0.0,0.0,2.6691,2.67,2.67,2.67,2.8121,2.9653,3.1133,3.3535,3.666,4.0597,4.1906,4.2443,4.2178,4.5405,4.6565,4.5847,4.9224,5.1132,5.1767,5.1877,5.1353,5.0251,4.7021,4.5663,4.5626,4.4957,4.5104,4.559,4.4883,0.0,0.0,0.0,0.0,0.0,0.0,0.0,0.0,4.4452,4.481,4.5948,5.1122,5.5207,5.9612,6.7063,7.033,7.3289,8.0167,8.1175,8.1599,8.6004,8.7051,8.7088,8.7088,8.7692,8.8243,8.839,8.9601,9.0629,9.0702,9.1326,9.1803,9.1803,9.1803,9.1803,9.1803,9.1803,9.1803,9.1803,9.1803,9.1803,9.1803,9.1803,9.1803,9.1803,9.1803,9.1803,9.1803,9.1803,9.217,9.2978,9.3859,9.4666,9.5382,9.6282,9.6685,9.6685,9.6685,9.6612,9.6392,9.485,9.3712,9.2978,9.2978,9.2978,9.2978,9.2978,9.2501,9.1803,9.1803,9.1803,9.1803,0.0,0.0,0.0,0.0,0.0,0.0,2.3173,2.3316,2.3342,2.3173,2.3579,2.4026,2.444,2.5304,0.0,2.6666,2.67,2.67,2.67,2.8121,2.9653,3.1133,3.5047,3.7786,3.913,3.9196,3.9449,3.9833,4.3469,4.5123,4.503,4.8957,5.0545,5.0068,5.0765,4.9884,4.7746,4.5112,4.402,4.4057,4.4516,4.4415,4.3983,4.3836,4.2763,0.0,0.0,0.0,0.0,0.0,0.0,0.0,4.4452,4.5572,4.6819,4.803,5.2957,5.851,6.0884,6.771,7.4977,7.8516,8.2443,8.571,8.6757,8.7509,8.7949,8.7949,8.8096,8.8573,8.9858,9.0372,9.0812,9.1436,9.1693,9.1803,9.1803,9.1803,9.1803,9.1803,9.1803,9.1803,9.1803,9.1803,9.1803,9.1803,9.1803,9.1803,9.1803,9.1803,9.1803,9.1803,9.1803,9.1877,9.206,9.3565,9.4373,9.4593,9.6025,9.6685,9.6685,9.6685,9.6025,9.474,9.3786,9.2868,9.206,9.206,9.206,9.206,9.206,9.195,9.1803,9.1803,9.1803,9.1803,0.0,0.0,0.0,0.0,0.0,0.0,0.0,0.0,2.4188,2.3485,2.4019,2.4458,2.4515,2.5169,0.0,0.0,2.6496,2.67,2.67,2.8121,3.0127,3.2689,3.6537,3.8387,3.7926,3.7623,3.7739,3.8336,4.0675,4.2608,4.4195,4.8269,5.0362,5.0729,5.1573,5.0572,4.8159,4.6104,4.5002,4.4681,4.5112,4.4782,4.4011,4.3653,4.2249,4.0524,4.0524,0.0,0.0,0.0,0.0,0.0,0.0,0.0,4.5984,4.9104,5.2737,5.7226,6.4237,7.0426,7.6151,8.1342,8.4829,8.7088,8.7509,8.7912,8.8426,8.9197,8.9344,8.9601,9.0445,9.0922,9.1326,9.173,9.1803,9.1803,9.1803,9.1803,9.1803,9.1803,9.1803,9.1803,9.1803,9.1803,9.1803,9.1803,9.1803,9.1803,9.1803,9.1803,9.1803,9.1803,9.1803,9.1987,9.2427,9.3675,9.4483,9.4887,9.6135,9.6502,9.6135,9.6135,9.5254,9.3712,9.3272,9.2611,9.1803,9.1803,9.1803,9.1803,9.1803,9.1803,9.1803,9.1803,9.1803,9.1803,0.0,0.0,0.0,0.0,0.0,0.0,0.0,0.0,0.0,2.3755,2.4661,2.5169,2.4583,2.5033,2.5398,0.0,0.0,0.0,2.6522,2.8324,3.0833,3.4103,3.7206,3.8344,3.7255,3.6692,3.6878,3.7896,3.8432,4.0561,4.4204,4.7682,5.0115,5.1583,5.2113,5.1096,4.883,4.7049,4.5801,4.5076,4.5076,4.4672,4.3966,4.302,4.1523,3.9871,3.9578,3.9651,4.0128,4.1589,0.0,0.0,0.0,0.0,4.4607,5.0278,5.2737,5.6187,6.7981,7.334,7.7362,8.5069,8.6978,8.7161,8.7839,8.8206,8.8793,9.0097,9.0501,9.0629,9.0776,9.1363,9.1803,9.1803,9.1803,9.1803,9.1803,9.1803,9.1803,9.1803,9.1803,9.1803,9.1803,9.1803,9.1803,9.1803,9.1803,9.1803,9.1803,9.1803,9.1803,9.1803,9.1803,9.2207,9.3088,9.3749,9.4556,9.5492,9.6171,9.5988,9.5088,9.5088,9.4373,9.3088,9.2941,9.2464,9.1803,9.1803,9.1803,9.1803,9.1803,9.1803,9.1803,9.1803,9.1803,9.1803,0.0,0.0,0.0,0.0,0.0,0.0,0.0,0.0,0.0,0.0,2.4508,2.4609,2.4508,2.4575,2.4643,2.4643,2.5304,2.5736,2.5736,0.0,0.0,3.313,3.5475,3.7026,3.7694,3.6308,3.6894,3.9578,3.8982,4.1434,4.6645,4.7893,4.8967,4.9821,4.9224,4.8012,4.625,4.3938,4.2461,4.1727,4.1727,4.1682,4.1434,3.9892,3.957,3.9724,3.8337,3.8733,4.0055,4.0956,4.1727,0.0,0.0,0.0,4.3947,4.6214,5.0875,5.6124,6.0077,6.9435,7.9543,8.551,8.6978,8.7014,8.7124,8.8225,8.929,8.951,9.0097,9.0812,9.151,9.173,9.1803,9.1803,9.1803,9.1803,9.1803,9.1803,9.1803,9.1803,9.1803,9.1803,9.1803,9.1803,9.1803,9.1803,9.1803,9.1803,9.1803,9.1803,9.1803,9.1803,9.1803,9.2207,9.3088,9.3198,9.4006,9.5492,9.5602,9.4868,9.3418,9.3418,9.3308,9.3051,9.2281,9.1913,9.1803,9.1803,9.1803,9.1803,9.1803,9.1803,9.1803,9.1803,9.1803,9.1913,0.0,0.0,0.0,0.0,0.0,0.0,0.0,0.0,0.0,0.0,0.0,2.4974,2.4541,2.4515,2.4338,2.3932,2.4568,2.5338,2.615,2.8827,3.0989,3.2318,3.4242,3.5464,3.5827,3.5416,3.6279,3.855,3.8182,4.1148,4.7113,4.7443,4.903,5.1499,4.9774,4.8343,4.7021,4.3718,4.2103,4.1727,4.1287,4.2453,4.4104,4.0671,4.1001,4.28,3.9386,3.8615,3.9423,4.07,4.136,4.1837,4.3102,0.0,0.0,0.0,4.7893,5.2847,6.2132,7.1468,7.9947,8.5583,8.6978,8.7234,8.8152,8.8886,8.9657,9.0537,9.1033,9.1363,9.173,9.1803,9.1803,9.1803,9.1803,9.1803,9.1803,9.1803,9.1803,9.1803,9.1803,9.1803,9.1803,9.1803,9.1803,9.1803,9.1803,9.1803,9.1803,9.1803,9.1803,9.1803,9.1803,9.2207,9.3088,9.3565,9.4593,9.6171,9.5712,9.4887,9.3749,9.3308,9.2831,9.2354,9.195,9.1803,9.1803,9.1803,9.1803,9.1803,9.1803,9.1803,9.1803,9.1803,9.2097,9.2501,0.0,0.0,0.0,0.0,0.0,0.0,0.0,0.0,0.0,0.0,0.0,2.5609,2.4872,0.0,0.0,0.0,2.3898,2.4893,2.6483,2.8341,3.0035,3.1592,3.3069,3.3964,3.4167,3.452,3.5635,3.7492,3.7705,4.1222,4.7746,4.7929,5.0205,5.3985,5.1169,4.8967,4.7159,4.3975,4.2506,4.2323,4.2535,4.4434,4.6856,4.4488,4.5562,4.7682,4.2433,4.0773,4.114,4.1103,4.1242,4.1654,4.3065,4.3506,0.0,0.0,0.0,4.9691,6.2866,7.0257,7.5983,8.3104,8.5179,8.6097,8.8519,8.9253,8.9803,9.1216,9.1657,9.1803,9.1803,9.1803,9.1803,9.1803,9.1803,9.1803,9.1803,9.1803,9.1803,9.1803,9.1803,9.1803,9.1803,9.1803,9.1803,9.1803,9.1803,9.1803,9.1803,9.1803,9.1803,9.1803,9.1803,9.2207,9.3088,9.4116,9.4887,9.5437,9.529,9.4666,9.3639,9.3051,9.2427,9.1803,9.1803,9.1803,9.1803,9.1803,9.1803,9.1803,9.1803,9.1803,9.184,9.206,9.2391,9.2758,0.0,0.0,0.0,0.0,0.0,0.0,0.0,0.0,0.0,0.0,0.0,2.6353,2.5634,2.4906,2.4203,2.3444,2.3451,2.4266,2.6081,2.7618,2.9222,3.0865,3.1708,0.0,3.3803,3.3837,3.5062,3.7492,3.8248,4.2359,4.949,5.0251,5.2737,5.6444,5.2491,4.8553,4.481,4.3864,4.2992,4.258,4.5581,4.6892,4.759,5.1977,5.4252,5.4263,4.7829,4.6507,4.7122,4.2599,4.1617,4.2396,4.3212,4.3506,4.3506,0.0,0.0,0.0,5.7214,6.108,6.5167,7.624,8.0167,8.2553,8.7215,8.8849,8.9657,9.0482,9.1253,9.1803,9.1803,9.1803,9.1803,9.1803,9.1803,9.1803,9.1803,9.1803,9.1803,9.1803,9.1803,9.1803,9.1803,9.1803,9.1803,9.1803,9.1803,9.1803,9.1803,9.1803,9.1803,9.1803,9.1803,9.2207,9.3088,9.4648,9.4299,9.206,9.3602,9.3492,9.1913,9.1877,9.184,9.1803,9.1803,9.1803,9.1803,9.1803,9.1803,9.1803,9.1803,9.1803,9.1913,9.2721,9.2537,9.2097,0.0,0.0,0.0,0.0,0.0,0.0,0.0,0.0,0.0,0.0,0.0,0.0,0.0,2.5372,2.5015,2.4527,2.5157,2.5764,2.6182,2.7372,2.8815,3.0433,3.1017,3.2064,3.3763,3.3807,3.5025,3.7492,3.7779,4.1368,4.8003,4.8296,5.0058,5.2894,5.1453,4.9994,4.837,4.4415,4.2873,4.3359,4.6571,4.9764,5.2637,5.3361,5.637,5.938,5.2884,4.9581,4.8113,4.6948,4.4672,4.2433,4.3249,4.3506,4.3506,4.3506,4.5002,4.8039,5.4388,5.8437,6.2695,7.044,7.5946,8.0314,8.3581,8.6995,8.9767,9.1106,9.1583,9.1803,9.1803,9.1803,9.1803,9.1803,9.1803,9.1803,9.1803,9.1803,9.1803,9.1803,9.1803,9.1803,9.1803,9.1803,9.1803,9.1803,9.1803,9.1803,9.1803,9.1803,9.1803,9.1803,9.1803,9.2464,9.3859,9.4446,9.4556,9.4189,9.3749,9.3235,9.2611,9.206,9.1803,9.1803,9.1803,9.1803,9.1803,9.1803,9.1803,9.1803,9.1803,9.2134,9.2611,9.2354,9.2758,9.3345,0.0,0.0,0.0,2.4838,0.0,2.3755,2.3755,2.4406,2.4948,2.5218,0.0,0.0,0.0,0.0,2.6499,2.5736,2.6597,2.7012,2.6591,2.7499,2.884,3.0578,3.0946,3.1939,3.3763,3.3807,3.4724,3.6677,3.7235,4.0385,4.5911,4.6425,4.815,5.0765,4.9911,4.9884,5.0141,4.603,4.4488,4.5149,4.9985,5.3115,5.5097,5.785,6.0701,6.2622,5.7776,5.4792,5.3141,5.2894,5.0839,4.8122,4.6774,4.5048,4.3506,4.3506,4.4819,4.7049,5.0582,5.4106,5.84,6.5141,7.011,7.4918,8.1195,8.4866,8.7839,9.0776,9.162,9.1803,9.1803,9.1803,9.1803,9.1803,9.1803,9.1803,9.1803,9.1803,9.1803,9.1803,9.1803,9.1803,9.1803,9.1803,9.1803,9.1803,9.1803,9.1803,9.1803,9.1803,9.1803,9.1803,9.1803,9.2317,9.3455,9.3749,9.4006,9.4263,9.3492,9.2941,9.2648,9.206,9.1803,9.1803,9.1803,9.1803,9.1803,9.1803,9.1803,9.184,9.2134,9.2427,9.2648,9.2648,9.2978,9.3382,0.0,2.4549,2.4812,2.5533,2.5041,2.4583,2.4575,2.5218,2.5963,2.6691,0.0,0.0,0.0,0.0,0.0,2.7146,2.7724,2.7953,2.7441,2.8109,2.9358,3.1329,3.1421,3.2161,3.377,3.3807,3.4204,3.4997,3.667,3.9512,4.3433,4.5039,4.7535,5.0508,4.815,4.7976,4.9427,4.8526,4.7746,4.7846,5.5845,5.6847,5.4719,6.5852,6.7724,6.4286,6.2597,6.2401,6.2572,6.0297,5.982,5.9208,5.3592,4.7985,4.3506,4.3506,4.4085,4.4883,0.0,0.0,0.0,6.026,6.2536,6.6206,7.9748,8.237,8.3544,8.9234,9.1033,9.1657,9.1767,9.1803,9.1803,9.1803,9.1803,9.1803,9.1803,9.1803,9.1803,9.1803,9.1803,9.1803,9.1803,9.1803,9.1803,9.1803,9.1803,9.1803,9.1803,9.1803,9.1803,9.1803,9.1803,9.1803,9.184,9.2648,9.2648,9.184,9.2684,9.2611,9.1803,9.1803,9.1803,9.1803,9.1803,9.1803,9.1803,9.1803,9.1803,9.1877,9.2721,9.2574,9.2024,9.3639,9.3235,9.2097,2.4474,2.5354,2.6319,2.7046,2.659,2.626,2.6818,2.7365,2.7988,0.0,0.0,0.0,0.0,0.0,0.0,3.1592,3.1942,3.1524,3.0008,3.0327,3.0974,3.186,3.2142,3.2742,3.377,3.3807,3.4204,3.4997,3.667,3.8667,4.0936,4.2543,4.4415,4.6388,4.6278,4.6507,4.6847,4.5415,4.603,4.8406,5.3618,5.785,6.163,6.7136,7.105,7.3435,7.1784,6.9119,6.6402,6.6916,6.1777,5.4315,4.9187,4.5709,4.3506,4.3506,4.4497,4.548,4.514,0.0,0.0,0.0,0.0,0.0,6.7871,7.2863,7.7818,8.4078,8.6481,8.8353,9.1253,9.1803,9.1803,9.1803,9.1803,9.1803,9.1803,9.1803,9.1803,9.1803,9.1803,9.1803,9.1803,9.1803,9.1803,9.1803,9.1803,9.1803,9.1803,9.1803,9.1803,9.1803,9.1803,9.2097,9.2721,9.2354,9.2354,9.2758,9.2354,9.2024,9.1803,9.1803,9.1803,9.1803,9.1803,9.1803,9.1803,9.1803,9.1803,9.1803,9.206,9.2391,9.2721,9.2537,9.2978,9.3602,2.4974,2.615,2.7494,2.8568,2.8842,2.9256,3.0336,3.0637,3.1148,0.0,0.0,0.0,0.0,0.0,0.0,3.5162,3.4583,3.3682,3.222,3.1656,3.1675,3.2293,3.2827,3.347,3.4277,3.4651,3.5055,3.5555,3.6861,3.8153,3.9423,4.0708,4.1992,4.3232,4.3672,4.4085,4.4342,4.3396,4.5039,4.8884,5.5721,5.9869,6.2683,6.8995,7.2408,7.3876,7.4647,7.2679,7.0146,7.312,6.6843,5.7116,5.3555,4.926,4.5296,4.4305,4.5369,4.6728,4.5911,4.6975,4.8737,5.0618,0.0,0.0,6.5668,7.0257,7.5139,8.3654,8.6407,8.8133,9.0812,9.1289,9.14,9.173,9.1803,9.1803,9.1803,9.1803,9.1803,9.1803,9.1803,9.1803,9.1803,9.1803,9.1803,9.1803,9.1803,9.1803,9.1803,9.1803,9.1803,9.1803,9.1803,9.2024,9.2537,9.206,9.206,9.2537,9.2024,9.1803,9.1803,9.1803,9.1803,9.1803,9.1803,9.1803,9.1803,9.1803,9.1803,9.1877,9.2574,9.2721,9.2574,9.2758,9.3235,9.3822,0.0,2.7055,2.8613,3.0354,3.1611,3.2945,3.4657,3.4659,3.5068,0.0,3.6877,0.0,0.0,0.0,0.0,0.0,3.6553,3.5114,3.4137,3.2639,3.2118,3.2839,3.3653,3.4424,3.5151,3.6009,3.634,3.6156,3.7052,3.7815,3.8461,3.9357,4.0157,4.0846,4.092,4.1397,4.2176,4.2543,4.5186,4.9921,5.9281,6.1924,6.1361,7.116,7.3068,7.0991,7.4647,7.494,7.4147,7.798,7.3061,6.4824,6.2181,5.6124,4.9397,4.6058,4.7122,4.9104,4.7856,4.8113,0.0,5.2333,5.204,0.0,6.7283,7.0022,7.2775,8.3214,8.617,8.7234,8.85,8.8793,8.9087,8.9821,9.0519,9.1179,9.173,9.1803,9.1803,9.1803,9.1803,9.1803,9.1803,9.1803,9.1803,9.1803,9.1803,9.1803,9.1803,9.1803,9.1803,9.1803,9.1803,9.1803,9.1803,9.1803,9.1803,9.1803,9.1803,9.1803,9.1803,9.1803,9.1803,9.1803,9.1803,9.1803,9.1803,9.1913,9.1877,9.195,9.3418,9.3161,9.2134,9.3602,9.3822,9.3565,2.7844,2.8852,3.0587,3.3538,3.4466,3.57,3.8328,3.8393,3.8958,4.1205,4.2914,0.0,0.0,0.0,0.0,0.0,4.0238,3.8065,3.5943,3.4864,3.438,3.452,3.5341,3.5899,3.6046,3.6861,3.6604,3.5261,3.6751,3.7235,3.6817,3.8248,3.9019,3.9195,3.9863,4.0598,4.1507,4.4085,4.8673,5.43,5.5721,6.0603,6.7564,7.2885,7.7252,8.0739,8.2186,8.1672,7.9837,7.6864,7.45,7.127,6.2426,6.0309,5.9245,5.0251,5.1646,5.5244,5.1169,5.0655,5.1436,5.205,5.2491,0.0,5.55,5.8364,6.1961,6.6756,6.9472,7.2202,7.624,7.7524,7.8023,7.817,8.259,8.7362,9.1253,9.1803,9.1803,9.1803,9.1803,9.1803,9.1803,9.1803,9.1803,9.1803,9.1803,9.1803,9.1803,9.1803,9.1803,9.1803,9.1803,9.1803,9.1803,9.1803,9.1803,9.1803,9.1803,9.1803,9.1803,9.1803,9.1803,9.1803,9.1803,9.1803,9.184,9.2574,9.2427,9.184,9.217,9.2501,9.2905,9.3198,9.4042,9.5088,2.9606,3.1194,3.3552,3.6788,3.8349,4.0165,4.3196,4.3345,4.388,4.5905,4.7787,0.0,0.0,0.0,0.0,0.0,0.0,0.0,3.8219,3.6553,3.5635,3.5635,3.6083,3.667,3.7477,3.7881,3.7881,3.7433,3.7485,3.7309,3.6934,3.7705,3.9827,4.2791,4.0781,4.2139,4.5874,4.5039,4.7498,5.2491,5.8584,6.5632,7.301,7.7892,8.1525,8.4042,8.4462,8.4095,8.2884,7.9653,7.5836,0.0,6.8187,6.5362,6.2108,5.517,5.6014,5.8143,5.3287,5.2297,5.2674,5.3115,5.3188,0.0,0.0,5.7446,6.0077,6.5375,6.6769,6.8201,7.1835,7.2812,7.3252,7.3619,7.9176,8.3398,8.3361,8.8243,9.1803,9.1803,9.1803,9.1803,9.1803,9.1803,9.1803,9.1803,9.1803,9.1803,9.1803,9.1803,9.1803,9.1803,9.1803,9.1803,9.1803,9.1803,9.1803,9.1803,9.1803,9.1803,9.1803,9.1803,9.1803,9.1803,9.1803,9.1803,9.184,9.2281,9.217,9.1877,9.2721,9.3051,9.3198,9.4006,9.4813,9.5565,3.1476,3.3492,3.6194,3.9403,4.1662,4.4015,4.6954,4.7248,4.7746,4.9601,5.1767,5.2454,0.0,0.0,0.0,0.0,0.0,0.0,4.1625,3.9386,3.8146,3.8146,3.7265,3.7808,4.0047,3.9166,3.8872,3.921,3.7896,3.7191,3.7044,3.7345,4.0349,4.5351,4.2873,4.4791,4.9664,4.6994,4.8122,5.2747,6.3589,7.0,7.378,8.0277,8.292,8.3361,8.4609,8.5049,8.4719,8.248,7.7393,7.2055,7.2642,6.9619,6.4738,5.9171,6.0015,6.1484,5.5673,5.4462,5.4829,5.484,5.4719,5.5306,0.0,0.0,0.0,6.5485,6.5718,6.5558,6.7674,6.8041,6.8224,6.8701,7.4515,7.7414,7.2958,8.1562,8.8426,8.872,9.0298,9.1106,9.0482,9.0262,9.0629,9.173,9.0812,9.0665,9.173,9.1803,9.1803,9.1803,9.1803,9.1803,9.1803,9.1803,9.1803,9.1803,9.1803,9.1803,9.1803,9.1803,9.1803,9.1803,9.1803,9.1803,9.1803,9.1803,9.1803,9.1913,9.3272,9.3602,9.3492,9.4795,9.5474,9.5822,3.4003,3.5016,3.6943,4.0333,4.2577,4.4609,4.6797,4.7121,4.7966,5.0362,5.4546,5.7483,5.7912,5.8609,5.8914,5.8657,0.0,0.0,4.7672,4.5736,4.4819,4.4819,4.0708,4.0524,4.4966,4.0891,3.8065,3.6714,3.653,3.6046,3.5334,3.6787,3.8256,3.9892,4.5856,4.7728,4.6801,5.2024,5.8192,6.4677,6.7577,6.6109,6.3196,7.2481,7.6885,7.8867,8.4665,8.6721,8.604,0.0,7.9449,7.7136,6.8141,7.0624,7.4037,5.9991,6.3099,6.9119,5.9942,5.9024,5.9979,5.7226,5.8058,5.8437,5.3959,0.0,5.5658,5.4337,0.0,5.5159,5.6124,0.0,0.0,5.5489,6.2059,6.6256,6.3503,7.0403,7.6276,7.7708,8.4849,8.8556,8.571,8.4776,8.6444,9.1436,8.7178,8.6554,9.151,9.1803,9.1803,9.1803,9.1803,9.1803,9.1803,9.1803,9.1803,9.1803,9.1803,9.1803,9.1803,9.1803,9.1803,9.1803,9.1803,9.1803,9.1803,9.1803,9.1803,9.1803,9.2024,9.2941,9.4189,9.4373,9.5327,9.6575,3.4976,3.6801,3.8989,4.1384,4.3641,4.5716,4.7534,5.0215,5.2417,5.3445,5.6161,5.796,5.7802,5.7288,5.7483,5.8877,5.7666,5.4987,5.0729,4.8893,4.6957,4.4607,4.123,4.0781,4.3754,4.0451,3.8351,3.7698,3.6259,3.5371,3.5034,3.6714,3.9908,4.448,4.9481,5.3482,5.6576,5.8338,6.0027,6.1814,6.4897,6.3833,6.1961,7.6408,8.2353,8.3271,8.6023,8.6978,8.6684,0.0,8.0241,0.0,7.7011,7.4404,7.0073,6.5925,6.6109,6.6219,5.9758,6.0468,6.2157,5.8437,5.9648,0.0,5.4106,0.0,5.3345,0.0,0.0,0.0,0.0,0.0,0.0,0.0,5.8107,6.097,5.665,6.3796,7.0807,7.4294,7.8002,8.1048,8.303,8.3324,8.5546,9.0739,8.6738,8.6371,9.151,9.1803,9.1803,9.1803,9.1803,9.1803,9.1803,9.1803,9.1803,9.1803,9.1803,9.1803,9.1803,9.1803,9.1803,9.1803,9.1803,9.1803,9.1803,9.1803,9.1803,9.1803,9.1803,9.2537,9.3675,9.4116,9.474,9.529,3.6178,3.7961,3.9835,4.1662,4.3791,4.5993,4.8269,5.2024,5.4851,5.5511,5.7384,5.8694,5.8804,5.8951,5.9905,6.2108,6.2365,6.0774,5.6895,5.4032,5.1683,4.9894,4.3873,4.2359,4.6177,4.1295,3.8681,3.8681,3.6442,3.5481,3.5708,3.7155,4.0863,4.6571,5.1856,5.7262,6.2487,6.3515,6.3796,6.387,6.6623,6.7834,6.9229,8.0461,8.5673,8.6978,8.6978,8.6978,8.6794,8.549,8.0351,0.0,8.1232,7.6717,6.9596,7.116,7.0257,6.754,6.212,6.3148,6.4506,5.9281,0.0,0.0,0.0,0.0,0.0,0.0,0.0,0.0,0.0,0.0,0.0,0.0,0.0,5.6345,5.1353,5.7336,6.3723,6.7907,7.0183,7.345,0.0,7.8956,8.1326,8.7509,8.4425,8.4976,9.1143,9.1693,9.1803,9.1803,9.1803,9.1803,9.1803,9.1803,9.1803,9.1803,9.1803,9.1803,9.1803,9.1803,9.1803,9.1803,9.1803,9.1803,9.1803,9.1803,9.1803,9.1803,9.1803,9.217,9.2831,9.3675,9.4116,9.4299,3.8307,3.8065,3.8329,4.0736,4.2506,4.4901,4.8857,5.0959,5.2941,5.5291,5.8364,6.1227,6.3625,6.7981,7.1417,7.3046,7.5307,7.428,6.8701,6.3135,6.1777,6.5595,5.0655,4.6654,5.6113,4.4737,3.8681,3.8681,3.7074,3.6677,3.7456,3.8285,3.9635,4.1792,5.2076,5.7262,5.8694,6.6512,7.2973,7.7892,7.7142,8.1069,8.6701,8.1012,8.226,8.6978,8.6978,0.0,0.0,8.1599,7.9816,0.0,0.0,0.0,0.0,7.3817,7.6276,7.8552,0.0,0.0,0.0,5.9979,0.0,0.0,0.0,0.0,5.6223,0.0,0.0,0.0,0.0,0.0,0.0,0.0,0.0,0.0,0.0,4.9581,5.2234,5.473,6.1251,6.716,0.0,6.8862,7.1027,0.0,7.8259,8.0571,9.0152,9.1363,9.1803,9.1803,9.1803,9.1803,9.1803,9.1803,9.1803,9.1803,9.1803,9.1803,9.1803,9.1803,9.1803,9.1803,9.1803,9.1803,9.1803,9.1803,9.1803,9.1803,9.1803,9.1803,9.195,9.2831,9.3639,9.4299,4.0076,4.0076,4.0149,4.0956,4.2433,4.4864,4.894,5.2317,5.5831,5.9832,6.2279,6.4995,6.8481,7.0316,7.2371,7.5065,7.6019,7.5014,7.1505,6.6512,6.4261,6.5668,5.4289,5.0215,5.5097,4.6975,4.1874,4.0296,3.8689,3.8285,3.91,3.9892,4.1434,4.3892,5.3371,6.0126,6.48,7.077,7.5014,7.7766,7.8075,8.1232,8.5747,0.0,8.6481,8.8519,8.7986,8.7802,0.0,8.5306,8.2443,8.0073,8.1599,7.8809,7.5285,7.6864,7.6387,7.4845,0.0,0.0,7.4456,6.5778,0.0,0.0,0.0,0.0,0.0,0.0,0.0,0.0,0.0,0.0,0.0,0.0,0.0,0.0,0.0,4.7021,4.8049,4.9397,5.6957,6.2389,0.0,0.0,0.0,0.0,7.905,0.0,9.0188,9.0849,9.1253,9.1767,9.1803,9.1803,9.1803,9.1803,9.1803,9.1803,9.1803,9.1803,9.1803,9.1803,9.1803,9.1803,9.1803,9.1803,9.1803,9.1803,9.1803,9.1803,9.1803,9.1803,9.184,9.2134,9.2391,9.2648,4.1846,4.1956,4.1956,4.1956,4.3754,4.6406,4.9931,5.4116,5.851,6.3086,6.5362,6.8114,7.2151,7.3362,7.494,7.7598,7.8626,7.7598,7.4001,7.0881,6.8995,6.8738,6.0517,5.7483,6.0786,5.2784,4.7526,4.5397,4.2608,4.1368,4.1625,4.2131,4.3525,4.5874,5.3067,6.0529,6.8031,7.2863,7.7326,8.1252,8.2113,8.4168,8.6921,0.0,8.85,8.7785,0.0,8.8647,8.8573,8.8042,8.5783,8.3691,8.6554,8.3141,7.8662,8.1525,8.0131,7.7451,7.6533,7.8222,0.0,7.0587,6.9816,0.0,6.0126,0.0,5.9795,0.0,0.0,0.0,0.0,0.0,0.0,0.0,0.0,0.0,0.0,4.5736,4.6104,4.6608,5.226,0.0,0.0,0.0,0.0,0.0,0.0,0.0,0.0,9.0427,9.0959,9.1767,9.1803,9.1803,9.1803,9.1803,9.1803,9.1803,9.1803,9.1803,9.1803,9.1803,9.1803,9.1803,9.1803,9.1803,9.1803,9.1803,9.1803,9.1803,9.1803,9.1803,9.1803,9.1803,9.1803,9.184,4.3616,4.3726,4.38,4.3836,4.6397,4.926,5.1803,5.6271,6.0884,6.5105,6.782,7.0917,7.494,7.7488,7.9507,8.1048,8.3287,8.2296,7.6864,7.635,7.5983,7.538,6.9142,6.7857,7.2569,6.163,5.506,5.3508,4.8416,4.5626,4.4957,4.4873,4.5727,4.7407,5.1487,5.8713,6.8212,7.2884,8.0105,8.8423,8.9229,8.9945,9.0551,9.0735,8.8274,8.5173,8.8316,8.9473,8.9436,8.94,8.94,8.9253,8.85,8.8243,8.8096,8.7344,8.7124,8.628,8.2443,8.1379,8.0021,7.4368,7.2899,0.0,0.0,0.0,6.6402,0.0,0.0,0.0,0.0,0.0,0.0,0.0,0.0,0.0,0.0,0.0,0.0,0.0,0.0,0.0,0.0,0.0,0.0,0.0,0.0,7.6738,0.0,8.984,9.0629,9.1693,9.1767,9.1803,9.1803,9.1803,9.1803,9.1803,9.1803,9.1803,9.1803,9.1803,9.1803,9.1803,9.1803,9.1803,9.1803,9.1803,9.1803,9.1803,9.1803,9.1803,9.1803,9.1803,9.1803,9.1913,4.5406,4.6774,4.8205,4.882,4.9627,5.1169,5.4226,5.8767,6.4004,6.9889,7.3854,7.7635,8.1672,8.27,8.3214,8.3654,8.4242,8.3985,8.2517,7.9617,7.9213,8.2003,7.4771,7.2092,7.5102,6.4677,5.8657,5.7643,5.0352,4.7305,4.8325,4.7436,4.7858,4.953,5.2721,6.0341,7.0927,7.3461,8.0829,9.087,9.1642,9.0971,8.9836,0.0,9.0699,8.7492,8.9553,9.028,9.0207,8.9583,8.94,8.9363,8.9143,8.9069,8.9033,8.8849,8.8776,8.8556,8.7528,8.6811,8.527,8.0828,7.8369,7.5799,0.0,0.0,0.0,0.0,0.0,0.0,0.0,0.0,0.0,0.0,0.0,0.0,0.0,0.0,0.0,4.6645,0.0,0.0,0.0,0.0,0.0,0.0,0.0,0.0,8.8023,0.0,8.5747,9.0739,9.1473,9.1803,9.1803,9.1803,9.1803,9.1803,9.1803,9.1803,9.1803,9.1803,9.1803,9.1803,9.1803,9.1803,9.1803,9.1803,9.1803,9.1803,9.1803,9.1803,9.1803,9.1803,9.1803,9.184,4.7618,5.0335,5.2894,5.3335,5.55,5.7519,5.8584,6.1031,6.5251,7.2129,7.5946,7.9323,8.2663,8.4609,8.5637,8.5637,8.5637,8.4756,8.2627,8.237,8.2333,8.248,7.98,7.8956,8.0314,7.2459,0.0,6.2915,5.5856,5.1416,4.9583,4.8716,4.8965,5.0291,5.3577,6.0039,6.894,7.6092,8.3328,9.0151,9.2452,9.2784,0.0,9.3903,9.3479,9.1933,9.288,9.2323,9.1069,9.0592,9.0427,9.0391,9.0024,8.9913,8.984,8.951,8.94,8.94,8.94,8.9069,8.8206,8.593,8.4058,8.1636,7.7231,7.6276,7.6093,0.0,7.439,7.3891,0.0,0.0,0.0,0.0,0.0,0.0,0.0,0.0,0.0,0.0,0.0,0.0,0.0,0.0,0.0,0.0,0.0,0.0,0.0,8.1489,8.3618,8.9381,9.0005,9.0739,9.1803,9.1106,9.1106,9.1803,9.1803,9.1803,9.1803,9.1803,9.1803,9.1803,9.1803,9.1803,9.1803,9.1803,9.1803,9.1803,9.1803,9.1803,9.1803,9.1803,9.1803,9.1803,5.0078,5.3775,5.6957,5.6957,6.1655,6.5178,6.4334,6.4591,6.7247,7.378,7.6922,7.9381,8.1546,8.4903,8.6978,8.6978,8.6978,8.5233,8.1028,8.4756,8.5233,8.0918,8.4168,8.6094,8.5967,8.1213,7.5228,0.0,6.2167,5.5986,4.973,4.9325,4.9532,5.0434,5.4182,5.9605,6.6811,7.9921,8.6795,8.9161,9.2995,9.5041,9.5736,9.5736,9.6188,9.6725,9.6725,9.4763,9.2113,9.2113,9.1949,9.1693,9.0996,9.0776,9.0629,8.9913,8.9693,8.9693,8.9693,8.9657,8.9546,8.9546,8.8959,8.7252,8.3067,8.1489,8.0918,8.0918,7.7414,7.6754,0.0,0.0,0.0,0.0,0.0,0.0,0.0,0.0,0.0,0.0,0.0,0.0,0.0,0.0,0.0,0.0,0.0,0.0,0.0,0.0,8.215,8.8169,8.8463,8.9454,9.1473,9.0317,9.0317,9.1473,9.1693,9.1803,9.1803,9.1803,9.1803,9.1803,9.1803,9.1803,9.1803,9.1803,9.1803,9.1803,9.1803,9.1803,9.1803,9.1803,9.1803,9.1803,5.2564,5.539,5.7776,5.7776,6.2511,6.754,7.1211,7.4074,7.6754,7.9396,8.2977,8.5473,8.5877,8.6574,8.6978,8.6978,8.6978,8.6647,8.5783,8.7142,8.7325,8.582,8.7068,8.7472,8.6794,8.1948,7.6395,0.0,6.3014,5.6428,5.0517,5.0096,5.0329,5.1254,5.5076,6.3579,7.5598,8.361,9.0064,9.4996,9.6378,9.7408,9.8176,9.8176,9.7899,9.7498,9.7498,9.5889,9.3776,9.3776,9.29,9.1767,9.162,9.1583,9.1546,9.1436,9.1363,9.1363,9.1363,9.0922,9.0391,9.0391,8.9767,8.8959,8.8115,8.7325,8.6738,8.6738,8.5527,8.3564,8.0608,0.0,0.0,0.0,0.0,0.0,0.0,0.0,0.0,0.0,0.0,0.0,0.0,0.0,0.0,0.0,0.0,0.0,0.0,0.0,7.6592,0.0,8.984,9.006,0.0,0.0,9.0849,8.984,9.1179,9.1803,9.1803,9.1803,9.1803,9.1803,9.1803,9.1803,9.1803,9.1803,9.1803,9.1803,9.1803,9.1803,9.1803,9.1803,9.1803,9.1803,5.8022,5.9416,6.1153,6.3282,6.7981,7.2826,7.6864,8.1305,8.3581,8.1856,8.3675,8.5143,8.5143,8.7014,8.8225,8.8225,8.8225,8.8225,8.8225,8.8592,8.8629,8.8262,8.8629,8.8463,8.7655,8.5664,8.0279,7.1353,0.0,5.9668,5.1368,5.0487,5.032,5.1013,5.8785,6.688,7.5302,8.4716,9.0644,9.3971,9.6962,9.8711,9.949,9.949,9.9526,9.9566,9.9566,9.832,9.6503,9.5239,9.4008,9.2974,9.2591,9.217,9.1803,9.1803,9.1803,9.1803,9.1803,9.151,9.1216,9.1216,9.0629,9.0024,9.0024,8.94,8.872,8.828,8.7876,8.5783,7.9727,7.3634,0.0,0.0,0.0,0.0,0.0,0.0,0.0,0.0,0.0,0.0,0.0,0.0,0.0,0.0,0.0,0.0,0.0,7.1248,7.5065,0.0,0.0,0.0,8.9987,0.0,9.0592,9.0665,9.1436,9.1803,9.1803,9.1803,9.1803,9.1803,9.1803,9.1803,9.1803,9.1803,9.1803,9.1803,9.1803,9.1803,9.1803,9.1803,9.1803,9.1803,6.4114,6.478,6.6272,7.0208,7.4764,7.8809,8.1538,8.6459,8.8432,8.4275,8.4278,8.4665,8.4665,8.7491,8.94,8.94,8.94,8.94,8.94,8.9546,8.9583,8.94,8.9546,8.9359,8.8684,8.9404,8.4601,0.0,0.0,6.3955,5.3841,5.1916,5.2006,5.4115,6.3502,7.0636,7.633,0.0,9.1124,9.3441,9.7442,9.9606,10.0414,10.0414,10.0712,10.1279,10.1279,10.0488,9.9176,9.7099,9.5648,9.458,9.3829,9.3104,9.2479,9.217,9.206,9.2024,9.184,9.1803,9.1803,9.1803,9.1326,9.0849,9.0849,9.0207,8.9473,8.883,8.8426,8.6224,7.98,7.5909,0.0,0.0,0.0,0.0,0.0,0.0,0.0,0.0,0.0,0.0,0.0,0.0,0.0,0.0,0.0,0.0,7.0513,7.0073,7.4258,8.4462,8.5563,8.6811,8.8536,0.0,9.0354,9.1289,9.1657,9.1803,9.1803,9.1803,9.1803,9.1803,9.1803,9.1803,9.1803,9.1803,9.1803,9.1803,9.1803,9.1803,9.1803,9.1803,9.1803,9.1803,6.9431,7.1234,7.3311,7.6798,8.0904,8.4055,8.5022,8.876,9.0798,8.8972,8.8776,8.8849,8.8849,8.9179,8.94,8.94,8.94,8.94,8.94,9.006,9.017,8.9436,9.0097,9.0409,9.0286,9.0991,8.7777,0.0,0.0,6.8534,5.9903,5.5929,5.817,6.5635,6.8269,7.6053,0.0,8.9124,9.3518,9.9298,9.9798,10.0481,10.1212,10.1212,10.1202,10.1279,10.1279,10.1211,10.0888,10.0092,9.8257,9.6233,9.5438,9.5124,9.4771,9.3381,9.2978,9.2831,9.2024,9.1803,9.1803,9.1803,9.173,9.1693,9.1693,9.1069,9.0482,9.0408,8.9234,8.6224,7.98,8.2333,8.2774,0.0,0.0,0.0,0.0,0.0,0.0,0.0,0.0,0.0,0.0,0.0,0.0,0.0,5.6847,0.0,0.0,0.0,7.2069,8.1158,8.2223,8.2406,8.1893,8.8316,9.0922,8.9657,9.1106,9.1803,9.1803,9.1803,9.1803,9.1803,9.1803,9.1803,9.1803,9.1803,9.1803,9.1803,9.1803,9.1803,9.1803,9.1803,9.1803,9.1803,7.7235,7.7257,7.8382,8.2653,8.4393,8.6402,9.0143,9.2476,9.3837,9.3722,9.3249,9.2971,9.299,9.3434,9.3546,9.3048,9.2971,9.2934,9.2934,9.2769,9.2583,9.2246,9.2545,9.2436,9.1897,9.2606,8.9885,0.0,0.0,0.0,6.4557,6.2864,6.6327,7.4137,7.8946,8.4209,8.971,9.4134,9.7605,10.0106,10.0596,10.1019,10.1279,10.1279,10.1279,10.1279,10.1279,10.1279,10.1288,10.0997,9.9299,9.7171,9.6372,9.5466,9.4628,9.3989,9.3492,9.3015,9.2684,9.2207,9.1803,9.1803,9.1803,9.1803,9.1803,9.1546,9.1179,9.0702,8.9307,8.7399,8.4829,8.303,8.1893,8.1709,0.0,0.0,0.0,0.0,0.0,0.0,0.0,0.0,0.0,0.0,0.0,0.0,0.0,0.0,0.0,0.0,7.0954,7.6423,8.3067,8.5453,8.3177,8.8904,9.1473,9.0849,9.1473,9.1803,9.1803,9.1803,9.1803,9.1803,9.1803,9.1803,9.1803,9.1803,9.1803,9.1803,9.1803,9.1803,9.1803,9.1803,9.1803,9.1803,8.4794,8.4178,8.4864,8.9524,8.9678,9.0582,9.4831,9.5767,9.6385,9.7477,9.7072,9.6455,9.5822,9.6244,9.636,9.5798,9.5717,9.5691,9.5691,9.5149,9.4847,9.4847,9.4847,0.0,9.4261,9.4737,9.2978,8.8744,8.2928,0.0,7.306,7.1552,7.4784,8.2054,8.7171,9.071,9.3249,9.8288,10.0491,10.0481,10.1096,10.1279,10.1279,10.1279,10.1279,10.1279,10.1279,10.1279,10.1279,10.1279,10.0115,9.8365,9.7573,9.6547,9.5542,9.4853,9.4263,9.3712,9.3235,9.2648,9.2134,9.184,9.1803,9.1803,9.1803,9.1803,9.1583,9.0776,8.9711,8.8757,8.828,8.4499,8.2333,8.5123,0.0,0.0,0.0,8.56,0.0,0.0,8.1232,7.8259,7.6592,6.9045,0.0,0.0,0.0,0.0,0.0,0.0,0.0,0.0,0.0,0.0,8.4278,8.9271,9.1803,9.1803,9.1803,9.1803,9.1803,9.1803,9.1803,9.1803,9.206,9.2024,9.184,9.2317,9.2391,9.217,9.217,9.217,9.2134,9.1877,9.1803,9.1803,9.1385,9.2355,9.3663,9.7933,9.8036,9.781,9.8625,9.814,9.8253,9.9826,10.001,9.9151,9.6852,9.6587,9.6587,9.6573,9.6587,9.6587,9.6587,9.6587,9.6587,0.0,9.6587,9.6914,9.7641,9.7653,9.7566,9.7356,0.0,0.0,8.7055,8.2016,8.3277,8.9816,9.074,9.4441,9.999,10.0904,10.1279,10.1279,10.1279,10.1279,10.1279,10.1279,10.1279,10.1279,10.1279,10.1279,10.1279,10.1279,10.0804,9.9986,9.9197,9.8955,9.8494,9.6159,9.5455,9.5125,9.3529,9.3088,9.2868,9.2024,9.1803,9.1803,9.1803,9.1803,9.1583,9.0776,9.0592,9.0078,8.85,8.8133,8.6811,8.2884,0.0,0.0,0.0,0.0,0.0,0.0,7.0917,6.8628,7.6518,6.7797,0.0,0.0,0.0,0.0,0.0,0.0,0.0,8.0718,8.2574,0.0,8.3418,8.8977,9.1803,9.1803,9.1803,9.1803,9.1803,9.1803,9.1803,9.184,9.2721,9.2611,9.1913,9.3565,9.3786,9.3088,9.3088,9.3088,9.2978,9.2134,9.1803,9.1803,9.648,9.6788,9.7211,9.8557,9.8624,9.8718,9.9577,9.9508,9.9726,10.0808,10.0904,10.0583,9.9901,9.978,9.9622,9.9099,9.9006,9.8987,9.8987,9.8441,9.8096,9.8096,9.8096,9.8221,9.8426,9.8437,9.844,9.8404,0.0,0.0,9.0825,8.921,9.1748,9.7663,9.7971,9.9135,10.0904,10.1212,10.1279,10.1279,10.1279,10.1279,10.1279,10.1279,10.1279,10.1279,10.1279,10.1279,10.1279,10.1279,10.1093,10.0814,10.0087,9.9065,9.8054,9.7297,9.6326,9.5382,9.4868,9.3932,9.3015,9.2758,9.2244,9.1803,9.1803,9.1803,9.173,9.1473,9.0996,9.0445,8.9931,8.894,8.7766,8.6481,8.6701,0.0,8.5637,0.0,8.5196,8.4425,8.1803,8.1106,0.0,7.7414,0.0,0.0,0.0,0.0,0.0,0.0,0.0,0.0,8.4298,0.0,8.5049,8.9528,9.1803,9.1803,9.1803,9.1803,9.1803,9.1803,9.1803,9.1803,9.2097,9.206,9.184,9.2391,9.2427,9.2207,9.2207,9.2207,9.217,9.1913,9.1803,9.1803,9.9673,9.975,9.9827,10.0212,10.0212,10.0404,10.0991,10.1299,10.1597,10.1789,10.2097,10.2289,10.2289,10.2289,10.1803,10.0683,10.0599,10.0606,10.0606,9.9981,9.975,9.975,9.975,9.975,9.975,9.975,0.0,9.975,9.6865,9.5942,9.6788,9.6788,9.875,10.2289,10.2289,10.2289,10.2289,10.2289,10.2289,10.2202,10.1894,10.202,10.2212,10.1904,10.202,10.2212,10.1904,10.1779,10.1702,10.1394,10.1279,10.119,10.0386,9.9291,9.8167,9.7877,9.693,9.5859,9.5565,9.4777,9.3859,9.3272,9.2684,9.2207,9.1877,9.1803,9.1803,9.1803,9.14,9.0959,9.0665,8.9784,8.8904,8.8316,8.7766,8.7344,8.7014,0.0,8.6207,0.0,0.0,0.0,0.0,8.0645,7.8626,0.0,0.0,0.0,0.0,0.0,7.8846,8.0739,8.7472,9.0078,8.8059,9.0519,9.1803,9.1803,9.1803,9.1803,9.1803,9.1803,9.1803,9.1803,9.2134,9.2097,9.184,9.2464,9.2574,9.2281,9.2281,9.2281,9.2244,9.1913,9.1803,9.1803,10.1212,10.1279,10.1587,10.252,10.2712,10.2712,10.2712,10.3405,10.3597,10.2789,10.3405,10.3905,10.3905,10.3905,10.3212,10.1587,10.1394,10.1394,10.1279,10.1394,10.1394,10.1394,10.1394,10.1394,10.151,10.1394,10.1394,10.151,10.2289,10.3097,10.3905,10.3905,10.3905,10.3905,10.3905,10.3905,10.3905,10.3905,10.3905,10.3789,10.2981,10.3212,10.3789,10.2981,10.3212,10.3789,10.2981,10.2712,10.2597,10.1712,10.1394,10.1315,10.0509,9.9679,9.8861,9.8042,9.7263,9.6539,9.5785,9.5528,9.5125,9.3639,9.3198,9.2868,9.1987,9.1803,9.1803,9.1803,9.1803,9.1583,9.0812,9.0629,9.0115,8.861,8.828,8.7949,8.7215,8.7014,8.5086,0.0,0.0,0.0,0.0,7.936,8.1379,0.0,0.0,8.7766,0.0,0.0,8.0115,9.0298,9.1363,9.1803,9.1803,9.1803,9.1803,9.1803,9.1803,9.1803,9.1803,9.1803,9.1803,9.184,9.2648,9.2537,9.1913,9.3492,9.3712,9.3088,9.3015,9.3051,9.2978,9.2134,9.1803,9.1803,10.1289,10.1779,10.2404,10.2597,10.3212,10.3597,10.3597,10.3789,10.3789,10.3597,10.3789,10.3905,10.3905,10.3905,10.3712,10.3289,10.2712,10.202,10.1279,10.1894,10.2289,10.2289,10.2289,10.2597,10.3289,10.2597,10.2597,10.3289,10.3482,10.3712,10.3905,10.3905,10.3905,10.3905,10.3905,10.3905,10.3905,10.3905,10.3905,10.3905,10.3712,10.3712,10.3905,10.3712,10.3712,10.3905,10.3712,10.3597,10.3482,10.2597,10.2289,10.2105,10.1293,10.0098,9.8861,9.8042,9.7263,9.6649,9.6465,9.5969,9.5418,9.5015,9.4006,9.2868,9.1987,9.1803,9.1803,9.1803,9.1803,9.173,9.1546,9.1033,9.0482,9.0078,8.9014,8.8133,8.7949,8.7399,8.6738,0.0,8.593,8.6187,8.6794,8.6831,8.562,0.0,0.0,8.3618,8.3618,8.2223,8.4225,9.0408,9.1363,9.1803,9.1803,9.1803,9.1803,9.1803,9.1803,9.1803,9.1803,9.1803,9.1803,9.1803,9.2024,9.1987,9.184,9.2207,9.2684,9.3015,9.2354,9.2501,9.2978,9.2134,9.1803,9.1803,10.252,10.2904,10.3289,10.3712,10.4097,10.4405,10.4405,10.4789,10.4905,10.4482,10.4789,10.502,10.502,10.502,10.4905,10.4482,10.3712,10.2981,10.252,10.2904,10.3212,10.3212,10.3212,10.3405,10.3905,10.3405,10.3597,10.4405,10.4405,10.4713,10.502,10.502,10.502,10.502,10.502,10.502,10.502,10.502,10.502,10.4982,10.4597,10.4713,10.4982,10.4597,10.4713,10.4982,10.4597,10.4405,10.4299,10.302,10.2597,10.2403,10.1185,10.0195,9.9305,9.8156,9.7263,9.6685,9.6685,9.6392,9.5951,9.5565,9.4281,9.2978,9.2501,9.2097,9.1803,9.1803,9.1803,9.1803,9.1803,9.1436,9.1033,9.0665,8.9234,8.8316,8.872,8.7748,8.7418,8.8592,8.8739,8.8923,8.9363,8.94,8.8115,8.5069,8.56,0.0,8.604,8.6811,8.8463,9.1069,9.1583,9.1803,9.1803,9.1803,9.1803,9.1803,9.1803,9.1803,9.1803,9.1803,9.1803,9.1803,9.1803,9.1803,9.184,9.2244,9.2427,9.2501,9.2427,9.2427,9.2464,9.195,9.1803,9.1803,10.3905,10.3982,10.4289,10.4992,10.5213,10.529,10.529,10.5905,10.6087,10.5405,10.5905,10.6395,10.6395,10.6395,10.6097,10.5405,10.4713,10.4212,10.3905,10.3982,10.4097,10.4097,10.4097,10.4097,10.4289,10.4289,10.4597,10.529,10.529,10.5713,10.6395,10.6395,10.6395,10.6395,10.6395,10.6395,10.6395,10.6395,10.6395,10.628,10.5597,10.5713,10.628,10.5597,10.579,10.628,10.5597,10.529,10.5097,10.3482,10.2904,10.2517,10.0998,10.0421,9.9924,9.856,9.7562,9.6839,9.6724,9.6685,9.6502,9.5675,9.4483,9.3418,9.3308,9.2611,9.1987,9.1987,9.1877,9.1803,9.1803,9.1803,9.1289,8.9784,8.8977,8.85,8.8335,8.7748,8.7895,8.94,8.9583,8.962,8.9767,8.9767,8.9767,8.9767,9.0408,9.0776,9.0776,9.1436,9.1803,9.1803,9.1803,9.1803,9.1803,9.1803,9.1803,9.1803,9.1803,9.1803,9.1803,9.1803,9.1803,9.1803,9.1803,9.1803,9.184,9.2611,9.2537,9.206,9.2684,9.2537,9.1987,9.184,9.1803,9.1803,10.3905,10.4405,10.4992,10.5107,10.5713,10.6213,10.6213,10.628,10.6405,10.6203,10.628,10.6395,10.6395,10.6395,10.628,10.6203,10.6097,10.5405,10.3982,10.4482,10.4905,10.4905,10.4905,10.529,10.602,10.602,10.6097,10.6213,10.6213,10.629,10.6395,10.6395,10.6395,10.6395,10.6395,10.6395,10.6395,10.6395,10.6395,10.6395,10.629,10.629,10.6395,10.6203,10.629,10.6395,10.6203,10.6213,10.602,10.4982,10.4299,10.351,10.2497,10.1302,10.0186,9.9898,9.8787,9.751,9.6877,9.6685,9.6502,9.5675,9.5308,9.4941,9.4263,9.3492,9.2905,9.2905,9.2317,9.1803,9.1803,9.1803,9.0188,8.5289,8.7711,8.861,8.3985,8.6611,8.9363,9.028,9.0391,9.0702,9.1363,9.1436,9.1436,9.1436,9.1546,9.162,9.162,9.173,9.1803,9.1803,9.1803,9.1803,9.1803,9.1803,9.1803,9.1803,9.1803,9.1803,9.1803,9.1803,9.1803,9.1803,9.1803,9.1803,9.1803,9.195,9.2354,9.2831,9.2244,9.2354,9.2831,9.206,9.1803,9.1803,10.5213,10.552,10.579,10.579,10.6087,10.6395,10.6395,10.6395,10.6395,10.6395,10.6395,10.6395,10.6395,10.6395,10.6395,10.6395,10.6395,10.6097,10.529,10.5597,10.579,10.579,10.579,10.602,10.6395,10.6395,10.6395,10.6395,10.6395,10.6395,10.6395,10.6395,10.6395,10.6395,10.6395,10.6395,10.6395,10.6395,10.6395,10.6395,10.6395,10.6395,10.6395,10.6395,10.6395,10.6395,10.6395,10.6395,10.629,10.5405,10.4915,10.4289,10.302,10.2079,10.1313,10.0483,9.9065,9.7646,9.6878,9.6685,9.6612,9.6245,9.5804,9.5401,9.5034,9.4336,9.3749,9.3749,9.3088,9.2501,9.2501,9.2134,9.0959,8.8353,8.9069,8.9326,8.7619,8.8519,8.984,9.1106,9.1253,9.1583,9.2427,9.206,9.217,9.3088,9.2758,9.2684,9.3125,9.3125,9.3125,9.3125,9.2281,9.1803,9.1803,9.1803,9.1803,9.1803,9.1803,9.1803,9.1803,9.1803,9.1803,9.1803,9.1803,9.1803,9.184,9.2317,9.2464,9.2391,9.2464,9.2464,9.2354,9.195,9.1803,9.1803,10.6395,10.6395,10.6395,10.6395,10.6395,10.6395,10.6395,10.6395,10.6395,10.6395,10.6395,10.6395,10.6395,10.6395,10.6395,10.6395,10.6395,10.6395,10.6395,10.6395,10.6395,10.6395,10.6395,10.6395,10.6395,10.6395,10.6395,10.6395,10.6395,10.6395,10.6395,10.6395,10.6395,10.6395,10.6395,10.6395,10.6395,10.6395,10.6395,10.6395,10.6395,10.6395,10.6395,10.6395,10.6395,10.6395,10.6395,10.6395,10.628,10.5597,10.529,10.4789,10.3405,10.2789,10.2286,10.089,9.9442,9.8156,9.721,9.682,9.6685,9.6685,9.6245,9.5787,9.5768,9.518,9.4593,9.4593,9.3932,9.3382,9.3382,9.2831,9.195,9.0629,9.0482,9.0519,9.0408,9.0482,9.0978,9.2244,9.2391,9.2648,9.3308,9.2758,9.2905,9.4189,9.3712,9.3639,9.4263,9.4299,9.4299,9.4299,9.2868,9.1987,9.1803,9.1803,9.1803,9.1803,9.1803,9.1803,9.1803,9.1803,9.1803,9.1803,9.1803,9.1913,9.2134,9.2831,9.2721,9.217,9.3051,9.2721,9.1803,9.2024,9.195,9.1803,10.6395,10.6395,10.6395,10.6395,10.6395,10.6395,10.6395,10.6395,10.6395,10.6395,10.6395,10.6395,10.6395,10.6395,10.6395,10.6395,10.6395,10.6395,10.6395,10.6395,10.6395,10.6395,10.6395,10.6395,10.6395,10.6395,10.6395,10.6395,10.6395,10.6395,10.6395,10.6395,10.6395,10.6395,10.6395,10.6395,10.6395,10.6395,10.6395,10.6395,10.6395,10.6395,10.6395,10.6395,10.6395,10.6395,10.6395,10.6395,10.6395,10.628,10.579,10.4905,10.4097,10.3289,10.2395,10.1509,10.0683,9.9679,9.814,9.7228,9.6685,9.6685,9.6649,9.6612,9.6612,9.5988,9.5418,9.5418,9.4777,9.4189,9.4189,9.4153,9.2391,8.7105,9.0555,9.2134,8.6958,9.0665,9.3969,9.4079,9.4116,9.4116,9.4189,9.4153,9.4153,9.4299,9.4226,9.4226,9.4299,9.4299,9.4299,9.4299,9.3455,9.2611,9.1803,9.1803,9.1803,9.1803,9.1803,9.1803,9.1803,9.1803,9.1803,9.1803,9.1803,9.2244,9.3015,9.3088,9.3051,9.3088,9.3896,9.3198,9.1913,9.2721,9.2501,9.1803,10.6395,10.6395,10.6395,10.6395,10.6395,10.6395,10.6395,10.6395,10.6395,10.6395,10.6395,10.6395,10.6395,10.6395,10.6395,10.6395,10.6395,10.6395,10.6395,10.6395,10.6395,10.6395,10.6395,10.6395,10.6395,10.6395,10.6395,10.6395,10.6395,10.6395,10.6395,10.6395,10.6395,10.6395,10.6395,10.6395,10.6395,10.6395,10.6395,10.6395,10.6395,10.6395,10.6395,10.6395,10.6395,10.6395,10.6395,10.6395,10.6395,10.6395,10.6213,10.5713,10.4289,10.3712,10.3097,10.1712,10.0782,10.0112,9.9466,9.8364,9.7369,9.7369,9.7027,9.6685,9.6685,9.6465,9.6245,9.6245,9.5621,9.5034,9.5034,9.463,9.3565,9.14,9.2886,9.3529,9.1381,9.2905,9.4467,9.4909,9.4576,9.4669,9.563,9.4852,9.4703,9.5694,9.5327,9.5254,9.5768,9.5804,9.5547,9.507,9.474,9.3969,9.2611,9.2611,9.2317,9.1803,9.1803,9.1803,9.1803,9.1803,9.1803,9.1803,9.1803,9.1987,9.2354,9.2868,9.3088,9.3125,9.3455,9.3161,9.2574,9.2354,9.2427,9.2537,10.6395,10.6395,10.6395,10.6395,10.6395,10.6395,10.6395,10.6395,10.6395,10.6395,10.6395,10.6395,10.6395,10.6395,10.6395,10.6395,10.6395,10.6395,10.6395,10.6395,10.6395,10.6395,10.6395,10.6395,10.6395,10.6395,10.6395,10.6395,10.6395,10.6395,10.6395,10.6395,10.6395,10.6395,10.6395,10.6395,10.6395,10.6395,10.6395,10.6395,10.6395,10.6395,10.6395,10.6395,10.6395,10.6395,10.6395,10.6395,10.6395,10.6395,10.6395,10.6087,10.4405,10.3482,10.2789,10.1712,10.09,10.0516,10.0516,9.9587,9.8421,9.791,9.7595,9.7353,9.7119,9.7246,9.7424,9.7424,9.6979,9.6608,9.6608,9.6144,9.5773,9.5773,9.5773,9.5773,9.5773,9.5773,9.5977,9.6473,9.6091,9.6097,9.6903,9.624,9.6132,9.699,9.6764,9.6744,9.7027,9.7046,9.6676,9.5914,9.5859,9.5254,9.3896,9.3345,9.2794,9.2207,9.1913,9.1803,9.1803,9.1803,9.1803,9.1803,9.1803,9.195,9.2244,9.2868,9.3235,9.3492,9.3749,9.3565,9.3051,9.2721,9.2611,9.2611,10.6395,10.6395,10.6395,10.6395,10.6395,10.6395,10.6395,10.6395,10.6395,10.6395,10.6395,10.6395,10.6395,10.6395,10.6395,10.6395,10.6395,10.6395,10.6395,10.6395,10.6395,10.6395,10.6395,10.6395,10.6395,10.6395,10.6395,10.6395,10.6395,10.6395,10.6395,10.6395,10.6395,10.6395,10.6395,10.6395,10.6395,10.6395,10.6395,10.6395,10.6395,10.6395,10.6395,10.6395,10.6395,10.6395,10.6395,10.6395,10.6395,10.6395,10.6395,10.6087,10.4405,10.2712,10.1279,10.1279,10.1279,10.1279,10.1279,10.0809,9.9834,9.8236,9.8421,9.8802,9.7993,9.8436,9.9007,9.9007,9.9007,9.9007,9.9007,9.9007,9.9007,9.9007,9.9007,9.9007,9.9007,9.9007,9.9022,9.9022,9.9022,9.8697,9.7877,9.8544,9.8682,9.786,9.856,9.8667,9.7827,9.7813,9.7475,9.6743,9.6705,9.6337,9.553,9.3932,9.3125,9.3088,9.2244,9.1803,9.1803,9.1803,9.1803,9.1803,9.1803,9.2281,9.3088,9.3088,9.3565,9.4373,9.518,9.4501,9.3198,9.4006,9.3235,9.1803,10.6395,10.6395,10.6395,10.6395,10.6395,10.6395,10.6395,10.6395,10.6395,10.6395,10.6395,10.6395,10.6395,10.6395,10.6395,10.6395,10.6395,10.6395,10.6395,10.6395,10.6395,10.6395,10.6395,10.6395,10.6395,10.6395,10.6395,10.6395,10.6395,10.6395,10.6395,10.6395,10.6395,10.6395,10.6395,10.6395,10.6395,10.6395,10.6395,10.6395,10.6395,10.6395,10.6395,10.6395,10.6395,10.6395,10.6395,10.6395,10.6395,10.6395,10.6395,10.6087,10.4405,10.3097,10.2097,10.151,10.1279,10.1279,10.1279,10.1093,10.0711,9.9719,9.9235,9.8949,9.8712,9.8846,9.9007,9.9007,9.9007,9.9007,9.9007,9.9007,9.9007,9.9007,9.9007,9.9007,9.9007,9.9007,9.9207,9.9758,9.9332,9.9136,9.9466,9.9193,9.892,9.8667,9.8876,9.8905,9.8667,9.8651,9.8544,9.8332,9.8316,9.8204,9.7958,9.5841,9.4226,9.3088,9.3418,9.2941,9.1803,9.2427,9.2391,9.1803,9.1803,9.195,9.2244,9.2868,9.3235,9.3529,9.4336,9.4006,9.3125,9.3382,9.3492,9.3382,10.6395,10.6395,10.6395,10.6395,10.6395,10.6395,10.6395,10.6395,10.6395,10.6395,10.6395,10.6395,10.6395,10.6395,10.6395,10.6395,10.6395,10.6395,10.6395,10.6395,10.6395,10.6395,10.6395,10.6395,10.6395,10.6395,10.6395,10.6395,10.6395,10.6395,10.6395,10.6395,10.6395,10.6395,10.6395,10.6395,10.6395,10.6395,10.6395,10.6395,10.6395,10.6395,10.6395,10.6395,10.6395,10.6395,10.6395,10.6395,10.6395,10.6395,10.602,10.5213,10.4212,10.3289,10.2404,10.1597,10.151,10.1702,10.1394,10.1279,10.121,10.0711,10.0307,9.9835,9.956,9.9706,9.9898,9.9898,9.9898,9.9898,9.9898,9.9898,9.9898,9.9898,9.9898,9.9898,9.9898,9.9898,10.0085,10.0589,10.0183,9.9999,10.0211,9.9986,9.9898,9.9898,9.9898,9.9783,9.9506,9.9455,9.9318,9.9022,9.9007,9.9007,9.9007,9.7573,9.6068,9.4478,9.4356,9.3749,9.2794,9.3345,9.3272,9.2794,9.2794,9.2794,9.2794,9.3015,9.3492,9.4042,9.3896,9.3712,9.3529,9.3235,9.3198,9.3161,10.6395,10.6395,10.6395,10.6395,10.6395,10.6395,10.6395,10.6395,10.6395,10.6395,10.6395,10.6395,10.6395,10.6395,10.6395,10.6395,10.6395,10.6395,10.6395,10.6395,10.6395,10.6395,10.6395,10.6395,10.6395,10.6395,10.6395,10.6395,10.6395,10.6395,10.6395,10.6395,10.6395,10.6395,10.6395,10.6395,10.6395,10.6395,10.6395,10.6395,10.6395,10.6395,10.6395,10.6395,10.6395,10.6395,10.6395,10.6395,10.6395,10.6395,10.5405,10.4097,10.3905,10.3405,10.252,10.1597,10.1904,10.2289,10.151,10.1279,10.1279,10.1279,10.1279,10.1121,10.0512,10.0814,10.1279,10.1279,10.1279,10.1279,10.1279,10.1279,10.1279,10.1279,10.1279,10.1279,10.1279,10.1279,10.1279,10.1279,10.1279,10.1011,10.0404,10.0917,10.1279,10.1279,10.1279,10.099,10.0304,10.0307,9.9961,9.9235,9.9221,9.9221,9.9221,9.915,9.8313,9.6696,9.5378,9.4651,9.4503,9.4577,9.4577,9.4503,9.4503,9.4503,9.443,9.3621,9.4172,9.533,9.3823,9.3602,9.4079,9.3382,9.2611,9.1913,10.6395,10.6395,10.6395,10.6395,10.6395,10.6395,10.6395,10.6395,10.6395,10.6395,10.6395,10.6395,10.6395,10.6395,10.6395,10.6395,10.6395,10.6395,10.6395,10.6395,10.6395,10.6395,10.6395,10.6395,10.6395,10.6395,10.6395,10.6395,10.6395,10.6395,10.6395,10.6395,10.6395,10.6395,10.6395,10.6395,10.6395,10.6395,10.6395,10.6395,10.6395,10.6395,10.6395,10.6395,10.6395,10.6395,10.6395,10.6395,10.6395,10.6395,10.6213,10.5587,10.4289,10.3789,10.3289,10.1789,10.1394,10.151,10.1394,10.1279,10.1279,10.1279,10.1279,10.1298,10.1101,10.12,10.1279,10.1279,10.1279,10.1279,10.1279,10.1279,10.1279,10.1279,10.1279,10.1279,10.1279,10.1279,10.1279,10.1279,10.1279,10.1201,10.108,10.122,10.1279,10.1279,10.1279,10.1191,10.1119,10.1109,10.1018,10.0776,10.0814,10.0814,10.0814,10.0195,9.9143,9.753,9.7839,9.7312,9.6103,9.6764,9.6689,9.6103,9.6103,9.6103,9.6058,9.5218,9.5105,9.5318,9.4393,9.3749,9.3345,9.3161,9.2978,9.2905,10.6395,10.6395,10.6395,10.6395,10.6395,10.6395,10.6395,10.6395,10.6395,10.6395,10.6395,10.6395,10.6395,10.6395,10.6395,10.6395,10.6395,10.6395,10.6395,10.6395,10.6395,10.6395,10.6395,10.6395,10.6395,10.6395,10.6395,10.6395,10.6395,10.6395,10.6395,10.6395,10.6395,10.6395,10.6395,10.6395,10.6395,10.6395,10.6395,10.6395,10.6395,10.6395,10.6395,10.6395,10.6395,10.6395,10.6395,10.6395,10.6395,10.6395,10.6087,10.5597,10.4713,10.4212,10.3597,10.2289,10.1894,10.1779,10.1394,10.1279,10.1279,10.1279,10.1279,10.1279,10.1279,10.1279,10.1279,10.1279,10.1279,10.1279,10.1279,10.1279,10.1279,10.1279,10.1279,10.1279,10.1279,10.1279,10.1279,10.1279,10.1279,10.1279,10.1279,10.1279,10.1279,10.1279,10.1279,10.1279,10.1279,10.1279,10.1279,10.1279,10.1279,10.1279,10.1279,10.0889,10.0287,9.9462,9.9132,9.8569,9.7767,9.8168,9.813,9.7729,9.7729,9.7729,9.7701,9.69,9.6542,9.6439,9.5274,9.4575,9.4153,9.3382,9.3088,9.3235,10.6395,10.6395,10.6395,10.6395,10.6395,10.6395,10.6395,10.6395,10.6395,10.6395,10.6395,10.6395,10.6395,10.6395,10.6395,10.6395,10.6395,10.6395,10.6395,10.6395,10.6395,10.6395,10.6395,10.6395,10.6395,10.6395,10.6395,10.6395,10.6395,10.6395,10.6395,10.6395,10.6395,10.6395,10.6395,10.6395,10.6395,10.6395,10.6395,10.6395,10.6395,10.6395,10.6395,10.6395,10.6395,10.6395,10.6395,10.6395,10.6395,10.6395,10.579,10.5107,10.5107,10.4405,10.3482,10.2789,10.252,10.2212,10.151,10.1279,10.1279,10.1279,10.1279,10.1279,10.1279,10.1279,10.1279,10.1279,10.1279,10.1279,10.1279,10.1279,10.1279,10.1279,10.1279,10.1279,10.1279,10.1279,10.1279,10.1279,10.1279,10.1279,10.1279,10.1279,10.1279,10.1279,10.1279,10.1279,10.1279,10.1279,10.1279,10.1279,10.1279,10.1279,10.1279,10.1279,10.1279,10.1308,9.9986,9.9401,9.9401,9.9401,9.9401,9.9401,9.9401,9.9401,9.9311,9.8558,9.8229,9.8071,9.6447,9.5825,9.568,9.4057,9.3396,9.34,10.6395,10.6395,10.6395,10.6395,10.6395,10.6395,10.6395,10.6395,10.6395,10.6395,10.6395,10.6395,10.6395,10.6395,10.6395,10.6395,10.6395,10.6395,10.6395,10.6395,10.6395,10.6395,10.6395,10.6395,10.6395,10.6395,10.6395,10.6395,10.6395,10.6395,10.6395,10.6395,10.6395,10.6395,10.6395,10.6395,10.6395,10.6395,10.6395,10.6395,10.6395,10.6395,10.6395,10.6395,10.6395,10.6395,10.6395,10.6395,10.6395,10.6395,10.579,10.5107,10.5107,10.3982,10.2789,10.2597,10.2097,10.152,10.1279,10.1279,10.1279,10.1279,10.1279,10.1279,10.1279,10.1279,10.1279,10.1279,10.1279,10.1279,10.1279,10.1279,10.1279,10.1279,10.1279,10.1279,10.1279,10.1279,10.1279,10.1279,10.1279,10.1279,10.1279,10.1279,10.1279,10.1279,10.1279,10.1279,10.1279,10.1279,10.1279,10.1279,10.1279,10.1279,10.1279,10.1279,10.1279,10.1279,10.1101,10.099,10.099,10.099,10.099,10.099,10.099,10.099,10.091,10.0216,9.9885,9.9707,9.8116,9.7499,9.7282,9.5627,9.4615,9.4169,10.6395,10.6395,10.6395,10.6395,10.6395,10.6395,10.6395,10.6395,10.6395,10.6395,10.6395,10.6395,10.6395,10.6395,10.6395,10.6395,10.6395,10.6395,10.6395,10.6395,10.6395,10.6395,10.6395,10.6395,10.6395,10.6395,10.6395,10.6395,10.6395,10.6395,10.6395,10.6395,10.6395,10.6395,10.6395,10.6395,10.6395,10.6395,10.6395,10.6395,10.6395,10.6395,10.6395,10.6395,10.6395,10.6395,10.6395,10.6395,10.6395,10.6395,10.579,10.5107,10.5107,10.3905,10.2597,10.2597,10.202,10.1279,10.1279,10.1279,10.1279,10.1279,10.1279,10.1279,10.1279,10.1279,10.1279,10.1279,10.1279,10.1279,10.1279,10.1279,10.1279,10.1279,10.1279,10.1279,10.1279,10.1279,10.1279,10.1279,10.1279,10.1279,10.1279,10.1279,10.1279,10.1279,10.1279,10.1279,10.1279,10.1279,10.1279,10.1279,10.1279,10.1279,10.1279,10.1279,10.1279,10.1279,10.1279,10.1279,10.1279,10.1279,10.1279,10.1279,10.1279,10.1279,10.1308,10.091,10.0615,10.0084,9.9416,9.8289,9.7045,9.6743,9.5873,9.4925]}]]